Wetterdaten: aktuell Samstag, 20.07.2019 10:15
Datum Zeit Temp 2m Temp 5cm Temp -10cm Temp -20cm Temp -50cm Luftf 2m BFeucht-10cm BFeucht-20cm BFeucht-50cm Luftdruck Regen Wind Richtung Richtung Sonnenschein ET UV Solar Taupunkt Windchill Windben Empfang
20.07.2019 10:15 22,3 C 29,4 C 18,9 C 18,9 C 18,9 C 65 % 52 cb 155 cb 181 cb 1016,3 hPa 0,0 l/m 4,8 km/h (1 Bft) NO 45 1 min 0,000 mm 3,9 UV-I 689 W/m 15,4 C 22,3 C 9,7 km/h (2 Bft) 95,65 %
20.07.2019 10:14 22,3 C 28,9 C 18,9 C 18,9 C 18,9 C 64 % 52 cb 155 cb 181 cb 1016,3 hPa 0,0 l/m 4,8 km/h (1 Bft) O-NO 67 1 min 0,000 mm 3,9 UV-I 677 W/m 15,2 C 22,3 C 6,4 km/h (2 Bft) 91,30 %
20.07.2019 10:13 22,4 C 28,9 C 18,9 C 18,9 C 18,9 C 64 % 52 cb 155 cb 181 cb 1016,4 hPa 0,0 l/m 4,8 km/h (1 Bft) O-NO 67 1 min 0,000 mm 3,8 UV-I 654 W/m 15,2 C 22,4 C 6,4 km/h (2 Bft) 100,00 %
20.07.2019 10:12 22,6 C 28,9 C 18,9 C 18,9 C 18,9 C 63 % 52 cb 155 cb 181 cb 1016,4 hPa 0,0 l/m 6,4 km/h (2 Bft) NO 45 1 min 0,000 mm 3,8 UV-I 656 W/m 15,2 C 22,6 C 8,0 km/h (2 Bft) 91,30 %
20.07.2019 10:11 22,6 C 28,3 C 18,9 C 18,9 C 18,9 C 65 % 52 cb 155 cb 181 cb 1016,3 hPa 0,0 l/m 4,8 km/h (1 Bft) O-NO 67 1 min 0,000 mm 3,7 UV-I 633 W/m 15,7 C 22,6 C 8,0 km/h (2 Bft) 95,65 %
20.07.2019 10:10 22,4 C 28,3 C 18,9 C 18,9 C 18,9 C 66 % 52 cb 155 cb 181 cb 1016,3 hPa 0,0 l/m 6,4 km/h (2 Bft) O 90 1 min 0,000 mm 3,6 UV-I 626 W/m 15,7 C 22,4 C 9,7 km/h (2 Bft) 100,00 %
20.07.2019 10:09 22,3 C 28,9 C 18,9 C 18,9 C 18,9 C 64 % 52 cb 155 cb 181 cb 1016,3 hPa 0,0 l/m 4,8 km/h (1 Bft) O-NO 67 1 min 0,000 mm 3,5 UV-I 527 W/m 15,2 C 22,3 C 8,0 km/h (2 Bft) 86,96 %
20.07.2019 10:08 22,3 C 28,9 C 18,9 C 18,9 C 18,9 C 64 % 52 cb 155 cb 181 cb 1016,4 hPa 0,0 l/m 6,4 km/h (2 Bft) O-SO 112 1 min 0,000 mm 3,5 UV-I 603 W/m 15,2 C 22,3 C 8,0 km/h (2 Bft) 86,96 %
20.07.2019 10:07 22,4 C 28,9 C 18,9 C 18,9 C 18,9 C 63 % 52 cb 155 cb 181 cb 1016,4 hPa 0,0 l/m 4,8 km/h (1 Bft) O 90 1 min 0,000 mm 3,6 UV-I 617 W/m 15,0 C 22,4 C 6,4 km/h (2 Bft) 95,65 %
20.07.2019 10:06 22,4 C 28,9 C 18,9 C 18,9 C 18,9 C 63 % 52 cb 155 cb 181 cb 1016,4 hPa 0,0 l/m 6,4 km/h (2 Bft) O-SO 112 1 min 0,000 mm 3,6 UV-I 631 W/m 15,0 C 22,4 C 9,7 km/h (2 Bft) 91,30 %
20.07.2019 10:05 22,3 C 28,9 C 18,9 C 18,9 C 18,9 C 64 % 52 cb 155 cb 181 cb 1016,3 hPa 0,0 l/m 8,0 km/h (2 Bft) S-SO 157 1 min 0,000 mm 3,7 UV-I 657 W/m 15,2 C 21,8 C 11,3 km/h (2 Bft) 91,30 %
20.07.2019 10:04 22,2 C 28,9 C 18,9 C 18,9 C 18,9 C 67 % 52 cb 155 cb 181 cb 1016,3 hPa 0,0 l/m 8,0 km/h (2 Bft) O-SO 112 1 min 0,000 mm 3,7 UV-I 649 W/m 15,8 C 21,7 C 11,3 km/h (2 Bft) 100,00 %
20.07.2019 10:03 22,1 C 28,9 C 18,9 C 18,9 C 18,9 C 66 % 52 cb 155 cb 181 cb 1016,3 hPa 0,0 l/m 4,8 km/h (1 Bft) O 90 1 min 0,000 mm 3,7 UV-I 642 W/m 15,4 C 22,1 C 11,3 km/h (2 Bft) 95,65 %
20.07.2019 10:02 21,9 C 28,9 C 18,9 C 18,9 C 18,9 C 64 % 52 cb 155 cb 181 cb 1016,3 hPa 0,0 l/m 4,8 km/h (1 Bft) O 90 1 min 0,000 mm 3,6 UV-I 631 W/m 14,8 C 21,9 C 8,0 km/h (2 Bft) 95,65 %
20.07.2019 10:01 22,1 C 28,9 C 18,9 C 18,9 C 18,9 C 65 % 52 cb 155 cb 181 cb 1016,4 hPa 0,0 l/m 8,0 km/h (2 Bft) O-NO 67 1 min 0,000 mm 3,6 UV-I 615 W/m 15,2 C 21,6 C 11,3 km/h (2 Bft) 100,00 %
20.07.2019 10:00 22,0 C 28,9 C 18,9 C 18,9 C 18,9 C 66 % 52 cb 155 cb 181 cb 1016,4 hPa 0,0 l/m 4,8 km/h (1 Bft) O-NO 67 1 min 0,279 mm 3,5 UV-I 598 W/m 15,3 C 22,0 C 8,0 km/h (2 Bft) 95,65 %
20.07.2019 09:59 22,1 C 28,9 C 18,9 C 18,9 C 18,9 C 65 % 52 cb 155 cb 181 cb 1016,3 hPa 0,0 l/m 3,2 km/h (1 Bft) O-NO 67 1 min 0,000 mm 3,5 UV-I 589 W/m 15,2 C 22,1 C 4,8 km/h (1 Bft) 95,65 %
20.07.2019 09:58 22,2 C 28,3 C 18,9 C 18,9 C 18,9 C 68 % 52 cb 155 cb 181 cb 1016,3 hPa 0,0 l/m 6,4 km/h (2 Bft) O-NO 67 1 min 0,000 mm 3,5 UV-I 561 W/m 16,0 C 22,2 C 8,0 km/h (2 Bft) 91,30 %
20.07.2019 09:57 22,3 C 28,3 C 18,9 C 18,9 C 18,9 C 67 % 52 cb 155 cb 181 cb 1016,4 hPa 0,0 l/m 6,4 km/h (2 Bft) O-NO 67 1 min 0,000 mm 3,5 UV-I 547 W/m 15,9 C 22,3 C 11,3 km/h (2 Bft) 91,30 %
20.07.2019 09:56 22,2 C 28,3 C 18,9 C 18,9 C 18,9 C 65 % 52 cb 154 cb 181 cb 1016,3 hPa 0,0 l/m 6,4 km/h (2 Bft) S-SO 157 1 min 0,000 mm 3,5 UV-I 541 W/m 15,3 C 22,2 C 11,3 km/h (2 Bft) 91,30 %
20.07.2019 09:55 22,2 C 27,8 C 18,9 C 18,9 C 18,9 C 65 % 52 cb 154 cb 181 cb 1016,3 hPa 0,0 l/m 4,8 km/h (1 Bft) SO 135 1 min 0,000 mm 3,4 UV-I 513 W/m 15,3 C 22,2 C 9,7 km/h (2 Bft) 100,00 %
20.07.2019 09:54 22,2 C 27,8 C 18,9 C 18,9 C 18,9 C 65 % 52 cb 154 cb 181 cb 1016,3 hPa 0,0 l/m 3,2 km/h (1 Bft) SO 135 1 min 0,000 mm 3,4 UV-I 497 W/m 15,3 C 22,2 C 6,4 km/h (2 Bft) 95,65 %
20.07.2019 09:53 22,1 C 27,8 C 18,9 C 18,9 C 18,9 C 68 % 52 cb 154 cb 181 cb 1016,4 hPa 0,0 l/m 6,4 km/h (2 Bft) SO 135 1 min 0,000 mm 3,4 UV-I 504 W/m 15,9 C 22,1 C 8,0 km/h (2 Bft) 95,65 %
20.07.2019 09:52 21,8 C 27,2 C 18,9 C 18,9 C 18,9 C 68 % 52 cb 154 cb 181 cb 1016,4 hPa 0,0 l/m 9,7 km/h (2 Bft) SO 135 1 min 0,000 mm 3,4 UV-I 503 W/m 15,6 C 20,7 C 11,3 km/h (2 Bft) 100,00 %
20.07.2019 09:51 21,7 C 27,2 C 18,9 C 18,9 C 18,9 C 66 % 52 cb 154 cb 181 cb 1016,4 hPa 0,0 l/m 4,8 km/h (1 Bft) NO 45 1 min 0,000 mm 3,2 UV-I 475 W/m 15,1 C 21,7 C 9,7 km/h (2 Bft) 95,65 %
20.07.2019 09:50 21,8 C 27,2 C 18,9 C 18,9 C 18,9 C 67 % 52 cb 154 cb 181 cb 1016,4 hPa 0,0 l/m 3,2 km/h (1 Bft) N-NO 22 1 min 0,000 mm 3,3 UV-I 432 W/m 15,4 C 21,8 C 6,4 km/h (2 Bft) 95,65 %
20.07.2019 09:49 21,8 C 27,2 C 18,9 C 18,9 C 18,9 C 67 % 52 cb 154 cb 181 cb 1016,3 hPa 0,0 l/m 3,2 km/h (1 Bft) N-NO 22 1 min 0,000 mm 3,1 UV-I 439 W/m 15,4 C 21,8 C 4,8 km/h (1 Bft) 100,00 %
20.07.2019 09:48 21,9 C 26,7 C 18,9 C 18,9 C 18,9 C 65 % 52 cb 154 cb 181 cb 1016,4 hPa 0,0 l/m 4,8 km/h (1 Bft) NO 45 1 min 0,000 mm 3,1 UV-I 439 W/m 15,0 C 21,9 C 6,4 km/h (2 Bft) 91,30 %
20.07.2019 09:47 21,9 C 26,7 C 18,9 C 18,9 C 18,9 C 68 % 52 cb 154 cb 181 cb 1016,4 hPa 0,0 l/m 6,4 km/h (2 Bft) SO 135 1 min 0,000 mm 3,1 UV-I 445 W/m 15,7 C 21,9 C 9,7 km/h (2 Bft) 91,30 %
20.07.2019 09:46 21,8 C 26,7 C 18,9 C 18,9 C 18,9 C 65 % 52 cb 154 cb 181 cb 1016,4 hPa 0,0 l/m 6,4 km/h (2 Bft) SO 135 1 min 0,000 mm 3,1 UV-I 417 W/m 14,9 C 21,8 C 8,0 km/h (2 Bft) 95,65 %
20.07.2019 09:45 21,7 C 26,7 C 18,9 C 18,9 C 18,9 C 66 % 52 cb 154 cb 181 cb 1016,3 hPa 0,0 l/m 8,0 km/h (2 Bft) O-SO 112 1 min 0,000 mm 3,1 UV-I 462 W/m 15,1 C 21,1 C 11,3 km/h (2 Bft) 95,65 %
20.07.2019 09:44 21,6 C 26,7 C 18,9 C 18,9 C 18,9 C 67 % 52 cb 154 cb 181 cb 1016,3 hPa 0,0 l/m 6,4 km/h (2 Bft) SO 135 1 min 0,000 mm 3,1 UV-I 462 W/m 15,2 C 21,6 C 9,7 km/h (2 Bft) 91,30 %
20.07.2019 09:43 21,5 C 26,1 C 18,9 C 18,9 C 18,9 C 69 % 52 cb 154 cb 181 cb 1016,5 hPa 0,0 l/m 6,4 km/h (2 Bft) O-SO 112 1 min 0,000 mm 3,1 UV-I 462 W/m 15,6 C 21,5 C 11,3 km/h (2 Bft) 95,65 %
20.07.2019 09:42 21,4 C 26,1 C 18,9 C 18,9 C 18,9 C 67 % 52 cb 154 cb 181 cb 1016,4 hPa 0,0 l/m 4,8 km/h (1 Bft) O-SO 112 1 min 0,000 mm 3,0 UV-I 466 W/m 15,0 C 21,4 C 8,0 km/h (2 Bft) 95,65 %
20.07.2019 09:41 21,3 C 26,1 C 18,9 C 18,9 C 18,9 C 70 % 52 cb 154 cb 181 cb 1016,4 hPa 0,0 l/m 8,0 km/h (2 Bft) O-SO 112 1 min 0,000 mm 3,0 UV-I 473 W/m 15,6 C 20,7 C 11,3 km/h (2 Bft) 95,65 %
20.07.2019 09:40 21,3 C 25,6 C 18,9 C 18,9 C 18,9 C 71 % 52 cb 154 cb 181 cb 1016,5 hPa 0,0 l/m 3,2 km/h (1 Bft) O 90 1 min 0,000 mm 2,9 UV-I 436 W/m 15,8 C 21,3 C 4,8 km/h (1 Bft) 95,65 %
20.07.2019 09:39 21,2 C 25,0 C 18,9 C 18,9 C 18,9 C 67 % 52 cb 154 cb 181 cb 1016,4 hPa 0,0 l/m 3,2 km/h (1 Bft) O 90 1 min 0,000 mm 2,8 UV-I 468 W/m 14,8 C 21,2 C 4,8 km/h (1 Bft) 95,65 %
20.07.2019 09:38 21,3 C 25,0 C 18,9 C 18,9 C 18,9 C 68 % 52 cb 154 cb 181 cb 1016,4 hPa 0,0 l/m 4,8 km/h (1 Bft) O-NO 67 1 min 0,000 mm 2,9 UV-I 455 W/m 15,1 C 21,3 C 6,4 km/h (2 Bft) 95,65 %
20.07.2019 09:37 21,3 C 24,4 C 18,9 C 18,9 C 18,9 C 68 % 52 cb 154 cb 181 cb 1016,5 hPa 0,0 l/m 4,8 km/h (1 Bft) O 90 1 min 0,000 mm 2,8 UV-I 459 W/m 15,1 C 21,3 C 8,0 km/h (2 Bft) 86,96 %
20.07.2019 09:36 21,2 C 23,9 C 18,9 C 18,9 C 18,9 C 68 % 52 cb 154 cb 181 cb 1016,4 hPa 0,0 l/m 4,8 km/h (1 Bft) SO 135 1 min 0,000 mm 2,8 UV-I 450 W/m 15,1 C 21,2 C 6,4 km/h (2 Bft) 100,00 %
20.07.2019 09:35 21,2 C 23,3 C 18,9 C 18,9 C 18,9 C 67 % 52 cb 154 cb 181 cb 1016,4 hPa 0,0 l/m 6,4 km/h (2 Bft) O-SO 112 1 min 0,000 mm 2,6 UV-I 264 W/m 14,8 C 21,2 C 9,7 km/h (2 Bft) 95,65 %
20.07.2019 09:34 21,2 C 23,3 C 18,9 C 18,9 C 18,9 C 66 % 52 cb 154 cb 181 cb 1016,5 hPa 0,0 l/m 6,4 km/h (2 Bft) O 90 1 min 0,000 mm 2,3 UV-I 264 W/m 14,6 C 21,2 C 6,4 km/h (2 Bft) 95,65 %
20.07.2019 09:33 21,3 C 23,3 C 18,9 C 18,9 C 18,9 C 66 % 52 cb 154 cb 181 cb 1016,3 hPa 0,0 l/m 8,0 km/h (2 Bft) O-SO 112 1 min 0,000 mm 2,3 UV-I 311 W/m 14,7 C 20,7 C 9,7 km/h (2 Bft) 100,00 %
20.07.2019 09:32 21,3 C 23,3 C 18,9 C 18,9 C 18,9 C 67 % 52 cb 154 cb 181 cb 1016,3 hPa 0,0 l/m 8,0 km/h (2 Bft) O-SO 112 1 min 0,000 mm 2,3 UV-I 316 W/m 14,9 C 20,7 C 9,7 km/h (2 Bft) 95,65 %
20.07.2019 09:31 21,3 C 23,3 C 18,9 C 18,9 C 18,9 C 67 % 52 cb 154 cb 181 cb 1016,3 hPa 0,0 l/m 8,0 km/h (2 Bft) O-SO 112 1 min 0,000 mm 2,3 UV-I 318 W/m 14,9 C 20,7 C 9,7 km/h (2 Bft) 91,30 %
20.07.2019 09:30 21,2 C 23,3 C 18,9 C 18,9 C 18,9 C 67 % 52 cb 154 cb 181 cb 1016,3 hPa 0,0 l/m 4,8 km/h (1 Bft) O-NO 67 1 min 0,000 mm 2,2 UV-I 271 W/m 14,8 C 21,2 C 11,3 km/h (2 Bft) 95,65 %
20.07.2019 09:29 21,2 C 23,3 C 18,9 C 18,9 C 18,9 C 69 % 52 cb 154 cb 181 cb 1016,3 hPa 0,0 l/m 4,8 km/h (1 Bft) SO 135 1 min 0,000 mm 2,1 UV-I 265 W/m 15,3 C 21,2 C 6,4 km/h (2 Bft) 91,30 %
20.07.2019 09:28 21,2 C 23,3 C 18,9 C 18,9 C 18,9 C 67 % 52 cb 154 cb 181 cb 1016,3 hPa 0,0 l/m 6,4 km/h (2 Bft) O-SO 112 1 min 0,000 mm 2,1 UV-I 262 W/m 14,8 C 21,2 C 9,7 km/h (2 Bft) 86,96 %
20.07.2019 09:27 21,2 C 23,3 C 18,9 C 18,9 C 18,9 C 67 % 52 cb 154 cb 181 cb 1016,4 hPa 0,0 l/m 8,0 km/h (2 Bft) O-SO 112 1 min 0,000 mm 2,1 UV-I 292 W/m 14,8 C 20,6 C 11,3 km/h (2 Bft) 100,00 %
20.07.2019 09:26 21,3 C 23,9 C 18,9 C 18,9 C 18,9 C 66 % 52 cb 154 cb 181 cb 1016,3 hPa 0,0 l/m 9,7 km/h (2 Bft) O-SO 112 1 min 0,000 mm 2,1 UV-I 294 W/m 14,7 C 20,2 C 11,3 km/h (2 Bft) 86,96 %
20.07.2019 09:25 21,4 C 23,9 C 18,9 C 18,9 C 18,9 C 66 % 52 cb 154 cb 181 cb 1016,2 hPa 0,0 l/m 8,0 km/h (2 Bft) O-SO 112 1 min 0,000 mm 2,0 UV-I 248 W/m 14,8 C 20,8 C 11,3 km/h (2 Bft) 86,96 %
20.07.2019 09:24 21,4 C 23,9 C 18,9 C 18,9 C 18,9 C 68 % 52 cb 154 cb 181 cb 1016,4 hPa 0,0 l/m 8,0 km/h (2 Bft) O 90 1 min 0,000 mm 2,0 UV-I 248 W/m 15,2 C 20,8 C 11,3 km/h (2 Bft) 95,65 %
20.07.2019 09:23 21,5 C 23,9 C 18,9 C 18,9 C 18,9 C 66 % 52 cb 154 cb 181 cb 1016,3 hPa 0,0 l/m 4,8 km/h (1 Bft) O-SO 112 1 min 0,000 mm 2,1 UV-I 309 W/m 14,9 C 21,5 C 9,7 km/h (2 Bft) 95,65 %
20.07.2019 09:22 21,6 C 23,9 C 18,9 C 18,9 C 18,9 C 67 % 52 cb 154 cb 181 cb 1016,2 hPa 0,0 l/m 9,7 km/h (2 Bft) O-SO 112 1 min 0,000 mm 2,2 UV-I 325 W/m 15,2 C 20,5 C 12,9 km/h (3 Bft) 91,30 %
20.07.2019 09:21 21,5 C 23,9 C 18,9 C 18,9 C 18,9 C 67 % 52 cb 154 cb 181 cb 1016,3 hPa 0,0 l/m 8,0 km/h (2 Bft) SO 135 1 min 0,000 mm 2,3 UV-I 388 W/m 15,1 C 20,9 C 11,3 km/h (2 Bft) 95,65 %
20.07.2019 09:20 21,4 C 23,9 C 18,9 C 18,9 C 18,9 C 66 % 52 cb 154 cb 181 cb 1016,3 hPa 0,0 l/m 11,3 km/h (2 Bft) O-SO 112 1 min 0,000 mm 2,3 UV-I 427 W/m 14,8 C 19,8 C 14,5 km/h (3 Bft) 91,30 %
20.07.2019 09:19 21,3 C 23,9 C 18,9 C 18,9 C 18,9 C 66 % 52 cb 154 cb 181 cb 1016,2 hPa 0,0 l/m 12,9 km/h (3 Bft) O-SO 112 1 min 0,000 mm 2,4 UV-I 431 W/m 14,7 C 19,3 C 14,5 km/h (3 Bft) 86,96 %
20.07.2019 09:18 21,3 C 23,9 C 18,9 C 18,9 C 18,9 C 67 % 52 cb 154 cb 181 cb 1016,3 hPa 0,0 l/m 11,3 km/h (2 Bft) O-SO 112 1 min 0,000 mm 2,3 UV-I 383 W/m 14,9 C 19,7 C 16,1 km/h (3 Bft) 95,65 %
20.07.2019 09:17 21,2 C 23,9 C 18,9 C 18,9 C 18,9 C 66 % 52 cb 154 cb 181 cb 1016,3 hPa 0,0 l/m 14,5 km/h (3 Bft) O-SO 112 1 min 0,000 mm 2,1 UV-I 320 W/m 14,6 C 18,8 C 17,7 km/h (3 Bft) 95,65 %
20.07.2019 09:16 21,2 C 23,9 C 18,9 C 18,9 C 18,9 C 66 % 52 cb 154 cb 181 cb 1016,3 hPa 0,0 l/m 11,3 km/h (2 Bft) SO 135 1 min 0,000 mm 2,1 UV-I 327 W/m 14,6 C 19,6 C 16,1 km/h (3 Bft) 86,96 %
20.07.2019 09:15 21,1 C 23,9 C 18,9 C 18,9 C 18,9 C 67 % 52 cb 154 cb 181 cb 1016,3 hPa 0,0 l/m 11,3 km/h (2 Bft) O-SO 112 1 min 0,000 mm 2,1 UV-I 362 W/m 14,7 C 19,5 C 16,1 km/h (3 Bft) 95,65 %
20.07.2019 09:14 21,1 C 23,9 C 18,9 C 18,9 C 18,9 C 68 % 52 cb 154 cb 181 cb 1016,3 hPa 0,0 l/m 8,0 km/h (2 Bft) O-SO 112 1 min 0,000 mm 2,1 UV-I 364 W/m 15,0 C 20,5 C 11,3 km/h (2 Bft) 95,65 %
20.07.2019 09:13 21,1 C 23,9 C 18,9 C 18,9 C 18,9 C 68 % 52 cb 154 cb 181 cb 1016,3 hPa 0,0 l/m 4,8 km/h (1 Bft) O 90 1 min 0,000 mm 2,1 UV-I 353 W/m 15,0 C 21,1 C 6,4 km/h (2 Bft) 91,30 %
20.07.2019 09:12 21,2 C 23,9 C 18,9 C 18,9 C 18,9 C 67 % 52 cb 154 cb 182 cb 1016,2 hPa 0,0 l/m 4,8 km/h (1 Bft) O 90 1 min 0,000 mm 2,1 UV-I 369 W/m 14,8 C 21,2 C 6,4 km/h (2 Bft) 100,00 %
20.07.2019 09:11 21,3 C 23,9 C 18,9 C 18,9 C 18,9 C 67 % 52 cb 154 cb 181 cb 1016,3 hPa 0,0 l/m 8,0 km/h (2 Bft) O-NO 67 1 min 0,000 mm 2,1 UV-I 322 W/m 14,9 C 20,7 C 11,3 km/h (2 Bft) 91,30 %
20.07.2019 09:10 21,4 C 23,9 C 18,9 C 18,9 C 18,9 C 68 % 52 cb 154 cb 181 cb 1016,3 hPa 0,0 l/m 6,4 km/h (2 Bft) S-SO 157 1 min 0,000 mm 1,9 UV-I 301 W/m 15,2 C 21,4 C 11,3 km/h (2 Bft) 91,30 %
20.07.2019 09:09 21,4 C 24,4 C 18,9 C 18,9 C 18,9 C 67 % 52 cb 154 cb 181 cb 1016,2 hPa 0,0 l/m 4,8 km/h (1 Bft) O-NO 67 1 min 0,000 mm 1,8 UV-I 265 W/m 15,0 C 21,4 C 6,4 km/h (2 Bft) 91,30 %
20.07.2019 09:08 21,5 C 24,4 C 18,9 C 18,9 C 18,9 C 67 % 52 cb 154 cb 182 cb 1016,2 hPa 0,0 l/m 4,8 km/h (1 Bft) O 90 1 min 0,000 mm 1,8 UV-I 297 W/m 15,1 C 21,5 C 6,4 km/h (2 Bft) 95,65 %
20.07.2019 09:07 21,5 C 24,4 C 18,9 C 18,9 C 18,9 C 67 % 52 cb 154 cb 182 cb 1016,2 hPa 0,0 l/m 4,8 km/h (1 Bft) SO 135 1 min 0,000 mm 1,9 UV-I 297 W/m 15,1 C 21,5 C 8,0 km/h (2 Bft) 86,96 %
20.07.2019 09:06 21,4 C 24,4 C 18,9 C 18,9 C 18,9 C 67 % 52 cb 154 cb 182 cb 1016,3 hPa 0,0 l/m 9,7 km/h (2 Bft) SO 135 1 min 0,000 mm 1,9 UV-I 338 W/m 15,0 C 20,3 C 11,3 km/h (2 Bft) 100,00 %
20.07.2019 09:05 21,4 C 24,4 C 18,9 C 18,9 C 18,9 C 69 % 52 cb 154 cb 181 cb 1016,2 hPa 0,0 l/m 9,7 km/h (2 Bft) SO 135 1 min 0,000 mm 2,1 UV-I 367 W/m 15,5 C 20,3 C 12,9 km/h (3 Bft) 91,30 %
20.07.2019 09:04 21,3 C 25,0 C 18,9 C 18,9 C 18,9 C 67 % 52 cb 154 cb 182 cb 1016,2 hPa 0,0 l/m 8,0 km/h (2 Bft) SO 135 1 min 0,000 mm 2,2 UV-I 476 W/m 14,9 C 20,7 C 12,9 km/h (3 Bft) 95,65 %
20.07.2019 09:03 21,2 C 25,0 C 18,9 C 18,9 C 18,9 C 67 % 52 cb 154 cb 182 cb 1016,3 hPa 0,0 l/m 8,0 km/h (2 Bft) O-SO 112 1 min 0,000 mm 2,2 UV-I 496 W/m 14,8 C 20,6 C 11,3 km/h (2 Bft) 95,65 %
20.07.2019 09:02 21,2 C 24,4 C 18,9 C 18,9 C 18,9 C 68 % 52 cb 154 cb 182 cb 1016,3 hPa 0,0 l/m 9,7 km/h (2 Bft) O-SO 112 1 min 0,000 mm 2,2 UV-I 533 W/m 15,1 C 20,1 C 11,3 km/h (2 Bft) 95,65 %
20.07.2019 09:01 21,2 C 24,4 C 18,9 C 18,9 C 18,9 C 68 % 52 cb 154 cb 181 cb 1016,3 hPa 0,0 l/m 6,4 km/h (2 Bft) O-SO 112 1 min 0,000 mm 2,2 UV-I 515 W/m 15,1 C 21,2 C 9,7 km/h (2 Bft) 91,30 %
20.07.2019 09:00 21,2 C 24,4 C 18,9 C 18,9 C 18,9 C 67 % 52 cb 154 cb 181 cb 1016,2 hPa 0,0 l/m 8,0 km/h (2 Bft) O-SO 112 1 min 0,279 mm 2,2 UV-I 533 W/m 14,8 C 20,6 C 11,3 km/h (2 Bft) 95,65 %
20.07.2019 08:59 21,2 C 24,4 C 18,9 C 18,9 C 18,9 C 67 % 52 cb 154 cb 181 cb 1016,2 hPa 0,0 l/m 12,9 km/h (3 Bft) O-SO 112 1 min 0,000 mm 2,3 UV-I 543 W/m 14,8 C 19,2 C 14,5 km/h (3 Bft) 91,30 %
20.07.2019 08:58 21,3 C 24,4 C 18,9 C 18,9 C 18,9 C 67 % 52 cb 154 cb 182 cb 1016,2 hPa 0,0 l/m 9,7 km/h (2 Bft) O-SO 112 1 min 0,000 mm 2,2 UV-I 554 W/m 14,9 C 20,2 C 14,5 km/h (3 Bft) 86,96 %
20.07.2019 08:57 21,3 C 23,9 C 18,9 C 18,9 C 18,9 C 67 % 52 cb 154 cb 182 cb 1016,2 hPa 0,0 l/m 9,7 km/h (2 Bft) O-SO 112 1 min 0,000 mm 2,2 UV-I 520 W/m 14,9 C 20,2 C 11,3 km/h (2 Bft) 95,65 %
20.07.2019 08:56 21,2 C 23,9 C 18,9 C 18,9 C 18,9 C 68 % 52 cb 154 cb 182 cb 1016,2 hPa 0,0 l/m 9,7 km/h (2 Bft) SO 135 1 min 0,000 mm 2,2 UV-I 543 W/m 15,1 C 20,1 C 14,5 km/h (3 Bft) 86,96 %
20.07.2019 08:55 21,1 C 23,9 C 18,9 C 18,9 C 18,9 C 67 % 52 cb 154 cb 182 cb 1016,2 hPa 0,0 l/m 11,3 km/h (2 Bft) O-SO 112 1 min 0,000 mm 2,2 UV-I 547 W/m 14,7 C 19,5 C 16,1 km/h (3 Bft) 95,65 %
20.07.2019 08:54 21,0 C 23,9 C 18,9 C 18,9 C 18,9 C 68 % 52 cb 154 cb 182 cb 1016,2 hPa 0,0 l/m 9,7 km/h (2 Bft) SO 135 1 min 0,000 mm 2,2 UV-I 536 W/m 14,9 C 19,8 C 16,1 km/h (3 Bft) 91,30 %
20.07.2019 08:53 20,9 C 23,3 C 18,9 C 18,9 C 18,9 C 68 % 52 cb 154 cb 182 cb 1016,2 hPa 0,0 l/m 9,7 km/h (2 Bft) O-SO 112 1 min 0,000 mm 2,1 UV-I 534 W/m 14,8 C 19,7 C 12,9 km/h (3 Bft) 100,00 %
20.07.2019 08:52 20,9 C 23,3 C 18,9 C 18,9 C 18,9 C 67 % 52 cb 154 cb 182 cb 1016,3 hPa 0,0 l/m 8,0 km/h (2 Bft) SO 135 1 min 0,000 mm 2,0 UV-I 504 W/m 14,5 C 20,3 C 12,9 km/h (3 Bft) 91,30 %
20.07.2019 08:51 20,9 C 23,3 C 18,9 C 18,9 C 18,9 C 67 % 52 cb 154 cb 182 cb 1016,2 hPa 0,0 l/m 12,9 km/h (3 Bft) O-SO 112 1 min 0,000 mm 2,0 UV-I 485 W/m 14,5 C 18,8 C 14,5 km/h (3 Bft) 95,65 %
20.07.2019 08:50 20,9 C 23,3 C 18,9 C 18,9 C 18,9 C 67 % 52 cb 154 cb 182 cb 1016,3 hPa 0,0 l/m 14,5 km/h (3 Bft) O-SO 112 1 min 0,000 mm 2,0 UV-I 478 W/m 14,5 C 18,5 C 19,3 km/h (3 Bft) 95,65 %
20.07.2019 08:49 20,8 C 23,3 C 18,9 C 18,9 C 18,9 C 69 % 52 cb 154 cb 182 cb 1016,2 hPa 0,0 l/m 12,9 km/h (3 Bft) SO 135 1 min 0,000 mm 1,9 UV-I 441 W/m 14,9 C 18,7 C 17,7 km/h (3 Bft) 95,65 %
20.07.2019 08:48 20,8 C 23,3 C 18,9 C 18,9 C 18,9 C 68 % 52 cb 154 cb 182 cb 1016,3 hPa 0,0 l/m 11,3 km/h (2 Bft) O-SO 112 1 min 0,000 mm 1,9 UV-I 468 W/m 14,7 C 19,1 C 14,5 km/h (3 Bft) 91,30 %
20.07.2019 08:47 20,8 C 23,3 C 18,9 C 18,9 C 18,9 C 69 % 52 cb 154 cb 182 cb 1016,3 hPa 0,0 l/m 12,9 km/h (3 Bft) O-SO 112 1 min 0,000 mm 2,0 UV-I 503 W/m 14,9 C 18,7 C 16,1 km/h (3 Bft) 100,00 %
20.07.2019 08:46 20,7 C 23,3 C 18,9 C 18,9 C 18,9 C 68 % 52 cb 154 cb 182 cb 1016,3 hPa 0,0 l/m 9,7 km/h (2 Bft) O-SO 112 1 min 0,000 mm 1,9 UV-I 512 W/m 14,6 C 19,5 C 14,5 km/h (3 Bft) 86,96 %
20.07.2019 08:45 20,6 C 22,8 C 18,9 C 18,9 C 18,9 C 69 % 52 cb 154 cb 182 cb 1016,3 hPa 0,0 l/m 9,7 km/h (2 Bft) SO 135 1 min 0,000 mm 1,9 UV-I 512 W/m 14,7 C 19,4 C 16,1 km/h (3 Bft) 91,30 %
20.07.2019 08:44 20,4 C 22,8 C 18,9 C 18,9 C 18,9 C 69 % 52 cb 154 cb 182 cb 1016,2 hPa 0,0 l/m 12,9 km/h (3 Bft) SO 135 1 min 0,000 mm 1,9 UV-I 506 W/m 14,5 C 18,2 C 14,5 km/h (3 Bft) 95,65 %
20.07.2019 08:43 20,4 C 22,8 C 18,9 C 18,9 C 18,9 C 70 % 52 cb 154 cb 182 cb 1016,3 hPa 0,0 l/m 12,9 km/h (3 Bft) O-SO 112 1 min 0,000 mm 1,9 UV-I 483 W/m 14,7 C 18,2 C 14,5 km/h (3 Bft) 91,30 %
20.07.2019 08:42 20,3 C 22,8 C 18,9 C 18,9 C 18,9 C 70 % 52 cb 154 cb 182 cb 1016,3 hPa 0,0 l/m 9,7 km/h (2 Bft) O 90 1 min 0,000 mm 1,8 UV-I 475 W/m 14,6 C 19,1 C 11,3 km/h (2 Bft) 86,96 %
20.07.2019 08:41 20,2 C 22,2 C 18,9 C 18,9 C 18,9 C 71 % 52 cb 154 cb 182 cb 1016,2 hPa 0,0 l/m 4,8 km/h (1 Bft) O-SO 112 1 min 0,000 mm 1,8 UV-I 483 W/m 14,8 C 20,2 C 9,7 km/h (2 Bft) 95,65 %
20.07.2019 08:40 20,2 C 22,2 C 18,9 C 18,9 C 18,9 C 72 % 52 cb 154 cb 182 cb 1016,3 hPa 0,0 l/m 8,0 km/h (2 Bft) O-SO 112 1 min 0,000 mm 1,8 UV-I 485 W/m 15,0 C 19,6 C 11,3 km/h (2 Bft) 95,65 %
20.07.2019 08:39 20,1 C 21,7 C 18,9 C 18,9 C 18,9 C 70 % 52 cb 154 cb 182 cb 1016,2 hPa 0,0 l/m 12,9 km/h (3 Bft) O-SO 112 1 min 0,000 mm 1,7 UV-I 457 W/m 14,5 C 17,9 C 14,5 km/h (3 Bft) 91,30 %
20.07.2019 08:38 20,1 C 21,7 C 18,9 C 18,9 C 18,9 C 71 % 52 cb 154 cb 182 cb 1016,2 hPa 0,0 l/m 11,3 km/h (2 Bft) O-SO 112 1 min 0,000 mm 1,7 UV-I 422 W/m 14,7 C 18,3 C 14,5 km/h (3 Bft) 100,00 %
20.07.2019 08:37 20,1 C 21,7 C 18,9 C 18,9 C 18,9 C 71 % 52 cb 154 cb 182 cb 1016,1 hPa 0,0 l/m 9,7 km/h (2 Bft) O-SO 112 1 min 0,000 mm 1,6 UV-I 388 W/m 14,7 C 18,8 C 14,5 km/h (3 Bft) 86,96 %
20.07.2019 08:36 20,1 C 21,7 C 18,9 C 18,9 C 18,9 C 71 % 52 cb 154 cb 182 cb 1016,2 hPa 0,0 l/m 8,0 km/h (2 Bft) O-SO 112 1 min 0,000 mm 1,6 UV-I 390 W/m 14,7 C 19,5 C 12,9 km/h (3 Bft) 95,65 %
20.07.2019 08:35 19,9 C 21,7 C 18,9 C 18,9 C 18,9 C 70 % 52 cb 154 cb 182 cb 1016,2 hPa 0,0 l/m 8,0 km/h (2 Bft) O-SO 112 1 min 0,000 mm 1,6 UV-I 381 W/m 14,3 C 19,2 C 12,9 km/h (3 Bft) 91,30 %
20.07.2019 08:34 20,0 C 21,7 C 18,9 C 18,9 C 18,9 C 71 % 52 cb 154 cb 182 cb 1016,2 hPa 0,0 l/m 12,9 km/h (3 Bft) O-SO 112 1 min 0,000 mm 1,5 UV-I 404 W/m 14,6 C 17,8 C 14,5 km/h (3 Bft) 95,65 %
20.07.2019 08:33 20,0 C 21,7 C 18,9 C 18,9 C 18,9 C 70 % 52 cb 154 cb 182 cb 1016,1 hPa 0,0 l/m 11,3 km/h (2 Bft) O-SO 112 1 min 0,000 mm 1,5 UV-I 364 W/m 14,4 C 18,2 C 14,5 km/h (3 Bft) 91,30 %
20.07.2019 08:32 19,9 C 21,1 C 18,9 C 18,9 C 18,9 C 71 % 52 cb 154 cb 182 cb 1016,2 hPa 0,0 l/m 9,7 km/h (2 Bft) O-SO 112 1 min 0,000 mm 1,6 UV-I 448 W/m 14,5 C 18,6 C 12,9 km/h (3 Bft) 95,65 %
20.07.2019 08:31 19,8 C 21,1 C 18,9 C 18,9 C 18,9 C 71 % 52 cb 154 cb 182 cb 1016,2 hPa 0,0 l/m 12,9 km/h (3 Bft) O-SO 112 1 min 0,000 mm 1,6 UV-I 408 W/m 14,4 C 17,5 C 16,1 km/h (3 Bft) 91,30 %
20.07.2019 08:30 19,8 C 21,1 C 18,9 C 18,9 C 18,9 C 71 % 52 cb 154 cb 182 cb 1016,2 hPa 0,0 l/m 11,3 km/h (2 Bft) O-SO 112 1 min 0,000 mm 1,6 UV-I 408 W/m 14,4 C 18,0 C 14,5 km/h (3 Bft) 95,65 %
20.07.2019 08:29 19,7 C 21,1 C 18,9 C 18,9 C 18,9 C 71 % 52 cb 154 cb 182 cb 1016,2 hPa 0,0 l/m 12,9 km/h (3 Bft) O-SO 112 1 min 0,000 mm 1,5 UV-I 432 W/m 14,3 C 17,4 C 16,1 km/h (3 Bft) 95,65 %
20.07.2019 08:28 19,7 C 21,1 C 18,9 C 18,9 C 18,9 C 70 % 52 cb 154 cb 182 cb 1016,2 hPa 0,0 l/m 14,5 km/h (3 Bft) O-SO 112 1 min 0,000 mm 1,5 UV-I 417 W/m 14,1 C 17,0 C 17,7 km/h (3 Bft) 91,30 %
20.07.2019 08:27 19,7 C 21,1 C 18,9 C 18,9 C 18,9 C 71 % 52 cb 154 cb 182 cb 1016,2 hPa 0,0 l/m 12,9 km/h (3 Bft) O-SO 112 1 min 0,000 mm 1,5 UV-I 376 W/m 14,3 C 17,4 C 16,1 km/h (3 Bft) 95,65 %
20.07.2019 08:26 19,7 C 21,1 C 18,9 C 18,9 C 18,9 C 71 % 52 cb 154 cb 182 cb 1016,2 hPa 0,0 l/m 12,9 km/h (3 Bft) O-SO 112 1 min 0,000 mm 1,5 UV-I 392 W/m 14,3 C 17,4 C 16,1 km/h (3 Bft) 91,30 %
20.07.2019 08:25 19,6 C 21,1 C 18,9 C 18,9 C 18,9 C 72 % 52 cb 154 cb 182 cb 1016,2 hPa 0,0 l/m 11,3 km/h (2 Bft) O-SO 112 1 min 0,000 mm 1,4 UV-I 355 W/m 14,4 C 17,8 C 14,5 km/h (3 Bft) 95,65 %
20.07.2019 08:24 19,7 C 21,1 C 18,9 C 18,9 C 18,9 C 71 % 52 cb 154 cb 182 cb 1016,2 hPa 0,0 l/m 11,3 km/h (2 Bft) O-SO 112 1 min 0,000 mm 1,4 UV-I 378 W/m 14,3 C 17,9 C 14,5 km/h (3 Bft) 91,30 %
20.07.2019 08:23 19,7 C 21,1 C 18,9 C 18,9 C 18,9 C 71 % 52 cb 154 cb 182 cb 1016,2 hPa 0,0 l/m 14,5 km/h (3 Bft) O-SO 112 1 min 0,000 mm 1,3 UV-I 353 W/m 14,3 C 17,0 C 16,1 km/h (3 Bft) 95,65 %
20.07.2019 08:22 19,7 C 21,1 C 18,9 C 18,9 C 18,9 C 71 % 52 cb 154 cb 182 cb 1016,3 hPa 0,0 l/m 12,9 km/h (3 Bft) O-SO 112 1 min 0,000 mm 1,4 UV-I 364 W/m 14,3 C 17,4 C 17,7 km/h (3 Bft) 91,30 %
20.07.2019 08:21 19,7 C 21,1 C 18,9 C 18,9 C 18,9 C 71 % 52 cb 154 cb 182 cb 1016,3 hPa 0,0 l/m 11,3 km/h (2 Bft) O-SO 112 1 min 0,000 mm 1,4 UV-I 383 W/m 14,3 C 17,9 C 16,1 km/h (3 Bft) 91,30 %
20.07.2019 08:20 19,7 C 21,1 C 18,9 C 18,9 C 18,9 C 71 % 52 cb 154 cb 182 cb 1016,1 hPa 0,0 l/m 12,9 km/h (3 Bft) O-SO 112 1 min 0,000 mm 1,4 UV-I 383 W/m 14,3 C 17,4 C 16,1 km/h (3 Bft) 95,65 %
20.07.2019 08:19 19,7 C 21,1 C 18,9 C 18,9 C 18,9 C 71 % 52 cb 154 cb 182 cb 1016,3 hPa 0,0 l/m 14,5 km/h (3 Bft) O-SO 112 1 min 0,000 mm 1,4 UV-I 399 W/m 14,3 C 17,0 C 19,3 km/h (3 Bft) 95,65 %
20.07.2019 08:18 19,7 C 21,1 C 18,9 C 18,9 C 18,9 C 71 % 52 cb 154 cb 182 cb 1016,2 hPa 0,0 l/m 11,3 km/h (2 Bft) O-SO 112 1 min 0,000 mm 1,4 UV-I 381 W/m 14,3 C 17,9 C 16,1 km/h (3 Bft) 82,61 %
20.07.2019 08:17 19,7 C 21,1 C 18,9 C 18,9 C 18,9 C 72 % 52 cb 154 cb 182 cb 1016,1 hPa 0,0 l/m 9,7 km/h (2 Bft) O-SO 112 1 min 0,000 mm 1,3 UV-I 374 W/m 14,5 C 18,4 C 12,9 km/h (3 Bft) 100,00 %
20.07.2019 08:16 19,6 C 21,1 C 18,9 C 18,9 C 18,9 C 72 % 52 cb 154 cb 182 cb 1016,3 hPa 0,0 l/m 11,3 km/h (2 Bft) O-SO 112 1 min 0,000 mm 1,3 UV-I 392 W/m 14,4 C 17,8 C 14,5 km/h (3 Bft) 91,30 %
20.07.2019 08:15 19,4 C 20,6 C 18,9 C 18,9 C 18,9 C 73 % 52 cb 154 cb 182 cb 1016,2 hPa 0,0 l/m 11,3 km/h (2 Bft) SO 135 1 min 0,000 mm 1,3 UV-I 422 W/m 14,4 C 17,6 C 12,9 km/h (3 Bft) 95,65 %
20.07.2019 08:14 19,3 C 20,6 C 18,9 C 18,9 C 18,9 C 74 % 52 cb 154 cb 182 cb 1016,2 hPa 0,0 l/m 8,0 km/h (2 Bft) O-SO 112 1 min 0,000 mm 1,3 UV-I 401 W/m 14,5 C 18,6 C 12,9 km/h (3 Bft) 95,65 %
20.07.2019 08:13 19,3 C 20,6 C 18,9 C 18,9 C 18,9 C 72 % 52 cb 154 cb 182 cb 1016,2 hPa 0,0 l/m 8,0 km/h (2 Bft) O 90 1 min 0,000 mm 1,3 UV-I 397 W/m 14,1 C 18,6 C 12,9 km/h (3 Bft) 91,30 %
20.07.2019 08:12 19,3 C 20,0 C 18,9 C 18,9 C 18,9 C 73 % 52 cb 154 cb 182 cb 1016,2 hPa 0,0 l/m 11,3 km/h (2 Bft) O-SO 112 1 min 0,000 mm 1,3 UV-I 396 W/m 14,3 C 17,4 C 14,5 km/h (3 Bft) 91,30 %
20.07.2019 08:11 19,2 C 20,0 C 18,9 C 18,9 C 18,9 C 73 % 52 cb 154 cb 182 cb 1016,2 hPa 0,0 l/m 9,7 km/h (2 Bft) O-SO 112 1 min 0,000 mm 1,2 UV-I 387 W/m 14,2 C 17,9 C 12,9 km/h (3 Bft) 91,30 %
20.07.2019 08:10 19,2 C 20,0 C 18,9 C 18,9 C 18,9 C 73 % 52 cb 154 cb 182 cb 1016,2 hPa 0,0 l/m 4,8 km/h (1 Bft) O 90 1 min 0,000 mm 1,2 UV-I 345 W/m 14,2 C 19,2 C 8,0 km/h (2 Bft) 95,65 %
20.07.2019 08:09 19,2 C 19,4 C 18,9 C 18,9 C 18,9 C 73 % 52 cb 154 cb 182 cb 1016,1 hPa 0,0 l/m 6,4 km/h (2 Bft) O-SO 112 1 min 0,000 mm 1,1 UV-I 320 W/m 14,2 C 19,2 C 9,7 km/h (2 Bft) 91,30 %
20.07.2019 08:08 19,2 C 19,4 C 18,9 C 18,9 C 18,9 C 73 % 52 cb 154 cb 182 cb 1016,2 hPa 0,0 l/m 6,4 km/h (2 Bft) O-SO 112 1 min 0,000 mm 1,1 UV-I 306 W/m 14,2 C 19,2 C 11,3 km/h (2 Bft) 91,30 %
20.07.2019 08:07 19,2 C 19,4 C 18,9 C 18,9 C 18,9 C 73 % 52 cb 154 cb 182 cb 1016,1 hPa 0,0 l/m 8,0 km/h (2 Bft) O-SO 112 1 min 0,000 mm 1,1 UV-I 274 W/m 14,2 C 18,5 C 12,9 km/h (3 Bft) 86,96 %
20.07.2019 08:06 19,2 C 19,4 C 18,9 C 18,9 C 18,9 C 72 % 52 cb 154 cb 182 cb 1016,1 hPa 0,0 l/m 6,4 km/h (2 Bft) O-SO 112 1 min 0,000 mm 1,0 UV-I 248 W/m 14,0 C 19,2 C 9,7 km/h (2 Bft) 91,30 %
20.07.2019 08:05 19,2 C 19,4 C 18,9 C 18,9 C 18,9 C 74 % 52 cb 154 cb 182 cb 1016,1 hPa 0,0 l/m 6,4 km/h (2 Bft) SO 135 1 min 0,000 mm 1,0 UV-I 241 W/m 14,4 C 19,2 C 11,3 km/h (2 Bft) 86,96 %
20.07.2019 08:04 19,1 C 19,4 C 18,9 C 18,9 C 18,9 C 73 % 52 cb 154 cb 182 cb 1016,1 hPa 0,0 l/m 6,4 km/h (2 Bft) SO 135 1 min 0,000 mm 1,0 UV-I 234 W/m 14,1 C 19,1 C 11,3 km/h (2 Bft) 100,00 %
20.07.2019 08:03 19,1 C 19,4 C 18,9 C 18,9 C 18,9 C 73 % 52 cb 154 cb 182 cb 1016,1 hPa 0,0 l/m 8,0 km/h (2 Bft) O-SO 112 1 min 0,000 mm 1,0 UV-I 236 W/m 14,1 C 18,4 C 11,3 km/h (2 Bft) 91,30 %
20.07.2019 08:02 19,1 C 19,4 C 18,9 C 18,9 C 18,9 C 73 % 52 cb 154 cb 182 cb 1016,0 hPa 0,0 l/m 9,7 km/h (2 Bft) O-SO 112 1 min 0,000 mm 1,0 UV-I 221 W/m 14,1 C 17,8 C 11,3 km/h (2 Bft) 95,65 %
20.07.2019 08:01 19,1 C 19,4 C 18,9 C 18,9 C 18,9 C 73 % 52 cb 154 cb 182 cb 1016,1 hPa 0,0 l/m 8,0 km/h (2 Bft) O 90 1 min 0,000 mm 0,9 UV-I 209 W/m 14,1 C 18,4 C 11,3 km/h (2 Bft) 95,65 %
20.07.2019 08:00 19,2 C 19,4 C 18,9 C 18,9 C 18,9 C 73 % 52 cb 154 cb 182 cb 1016,1 hPa 0,0 l/m 8,0 km/h (2 Bft) O-SO 112 1 min 0,127 mm 0,9 UV-I 197 W/m 14,2 C 18,5 C 11,3 km/h (2 Bft) 95,65 %
20.07.2019 07:59 19,2 C 19,4 C 18,9 C 18,9 C 18,9 C 73 % 52 cb 154 cb 182 cb 1016,1 hPa 0,0 l/m 8,0 km/h (2 Bft) O 90 1 min 0,000 mm 0,9 UV-I 178 W/m 14,2 C 18,5 C 11,3 km/h (2 Bft) 91,30 %
20.07.2019 07:58 19,2 C 19,4 C 18,9 C 18,9 C 18,9 C 73 % 52 cb 154 cb 182 cb 1016,1 hPa 0,0 l/m 8,0 km/h (2 Bft) O-SO 112 1 min 0,000 mm 0,9 UV-I 172 W/m 14,2 C 18,5 C 12,9 km/h (3 Bft) 100,00 %
20.07.2019 07:57 19,3 C 19,4 C 18,9 C 18,9 C 18,9 C 73 % 52 cb 154 cb 182 cb 1016,0 hPa 0,0 l/m 9,7 km/h (2 Bft) SO 135 1 min 0,000 mm 0,8 UV-I 178 W/m 14,3 C 18,0 C 12,9 km/h (3 Bft) 91,30 %
20.07.2019 07:56 19,2 C 19,4 C 18,9 C 18,9 C 18,9 C 72 % 52 cb 154 cb 182 cb 1016,1 hPa 0,0 l/m 11,3 km/h (2 Bft) O-SO 112 1 min 0,000 mm 0,8 UV-I 185 W/m 14,0 C 17,3 C 14,5 km/h (3 Bft) 91,30 %
20.07.2019 07:55 19,2 C 19,4 C 18,9 C 18,9 C 18,9 C 73 % 52 cb 154 cb 182 cb 1016,2 hPa 0,0 l/m 9,7 km/h (2 Bft) O-SO 112 1 min 0,000 mm 0,8 UV-I 178 W/m 14,2 C 17,9 C 12,9 km/h (3 Bft) 100,00 %
20.07.2019 07:54 19,2 C 19,4 C 18,9 C 18,9 C 18,9 C 72 % 52 cb 154 cb 182 cb 1016,0 hPa 0,0 l/m 8,0 km/h (2 Bft) O-SO 112 1 min 0,000 mm 0,8 UV-I 185 W/m 14,0 C 18,5 C 11,3 km/h (2 Bft) 91,30 %
20.07.2019 07:53 19,2 C 19,4 C 18,9 C 18,9 C 18,9 C 73 % 52 cb 154 cb 182 cb 1016,1 hPa 0,0 l/m 4,8 km/h (1 Bft) O-SO 112 1 min 0,000 mm 0,8 UV-I 202 W/m 14,2 C 19,2 C 11,3 km/h (2 Bft) 95,65 %
20.07.2019 07:52 19,3 C 19,4 C 18,9 C 18,9 C 18,9 C 73 % 52 cb 154 cb 182 cb 1016,1 hPa 0,0 l/m 6,4 km/h (2 Bft) O-SO 112 1 min 0,000 mm 0,8 UV-I 232 W/m 14,3 C 19,3 C 9,7 km/h (2 Bft) 95,65 %
20.07.2019 07:51 19,3 C 19,4 C 18,9 C 18,9 C 18,9 C 73 % 52 cb 154 cb 182 cb 1016,1 hPa 0,0 l/m 4,8 km/h (1 Bft) O-SO 112 1 min 0,000 mm 0,9 UV-I 241 W/m 14,3 C 19,3 C 6,4 km/h (2 Bft) 95,65 %
20.07.2019 07:50 19,2 C 19,4 C 18,9 C 18,9 C 18,9 C 73 % 52 cb 154 cb 182 cb 1016,0 hPa 0,0 l/m 3,2 km/h (1 Bft) O-SO 112 1 min 0,000 mm 0,8 UV-I 220 W/m 14,2 C 19,2 C 4,8 km/h (1 Bft) 86,96 %
20.07.2019 07:49 19,2 C 19,4 C 18,9 C 18,9 C 18,9 C 73 % 52 cb 154 cb 182 cb 1016,0 hPa 0,0 l/m 4,8 km/h (1 Bft) O-SO 112 1 min 0,000 mm 0,8 UV-I 202 W/m 14,2 C 19,2 C 11,3 km/h (2 Bft) 95,65 %
20.07.2019 07:48 19,2 C 19,4 C 18,9 C 18,9 C 18,9 C 73 % 52 cb 154 cb 182 cb 1016,1 hPa 0,0 l/m 6,4 km/h (2 Bft) SO 135 1 min 0,000 mm 0,8 UV-I 248 W/m 14,2 C 19,2 C 11,3 km/h (2 Bft) 91,30 %
20.07.2019 07:47 19,2 C 19,4 C 18,9 C 18,9 C 18,9 C 73 % 52 cb 154 cb 182 cb 1016,1 hPa 0,0 l/m 11,3 km/h (2 Bft) O-SO 112 1 min 0,000 mm 0,8 UV-I 260 W/m 14,2 C 17,3 C 16,1 km/h (3 Bft) 91,30 %
20.07.2019 07:46 19,1 C 18,9 C 18,9 C 18,9 C 18,9 C 74 % 52 cb 153 cb 182 cb 1015,9 hPa 0,0 l/m 9,7 km/h (2 Bft) SO 135 1 min 0,000 mm 0,8 UV-I 255 W/m 14,4 C 17,8 C 14,5 km/h (3 Bft) 95,65 %
20.07.2019 07:45 19,0 C 18,9 C 18,9 C 18,9 C 18,9 C 74 % 51 cb 153 cb 182 cb 1016,0 hPa 0,0 l/m 6,4 km/h (2 Bft) O-SO 112 1 min 0,000 mm 0,8 UV-I 257 W/m 14,3 C 19,0 C 9,7 km/h (2 Bft) 95,65 %
20.07.2019 07:44 19,0 C 18,9 C 18,9 C 18,9 C 18,9 C 74 % 51 cb 153 cb 182 cb 1016,0 hPa 0,0 l/m 9,7 km/h (2 Bft) O-SO 112 1 min 0,000 mm 0,8 UV-I 255 W/m 14,3 C 17,6 C 12,9 km/h (3 Bft) 91,30 %
20.07.2019 07:43 18,9 C 18,9 C 18,9 C 18,9 C 18,9 C 75 % 51 cb 153 cb 182 cb 1015,9 hPa 0,0 l/m 11,3 km/h (2 Bft) O-SO 112 1 min 0,000 mm 0,8 UV-I 258 W/m 14,4 C 17,0 C 16,1 km/h (3 Bft) 91,30 %
20.07.2019 07:42 18,8 C 18,9 C 18,9 C 18,9 C 18,9 C 74 % 51 cb 153 cb 182 cb 1016,0 hPa 0,0 l/m 12,9 km/h (3 Bft) SO 135 1 min 0,000 mm 0,7 UV-I 257 W/m 14,1 C 16,4 C 16,1 km/h (3 Bft) 86,96 %
20.07.2019 07:41 18,7 C 18,9 C 18,9 C 18,9 C 18,9 C 75 % 51 cb 153 cb 182 cb 1015,9 hPa 0,0 l/m 9,7 km/h (2 Bft) SO 135 1 min 0,000 mm 0,7 UV-I 260 W/m 14,2 C 17,3 C 12,9 km/h (3 Bft) 95,65 %
20.07.2019 07:40 18,6 C 18,3 C 18,9 C 18,9 C 18,9 C 75 % 51 cb 153 cb 182 cb 1015,9 hPa 0,0 l/m 8,0 km/h (2 Bft) O-SO 112 1 min 0,000 mm 0,7 UV-I 258 W/m 14,1 C 17,9 C 11,3 km/h (2 Bft) 95,65 %
20.07.2019 07:39 18,4 C 18,3 C 18,9 C 18,9 C 18,9 C 76 % 51 cb 153 cb 182 cb 1016,0 hPa 0,0 l/m 8,0 km/h (2 Bft) O-SO 112 1 min 0,000 mm 0,7 UV-I 232 W/m 14,1 C 17,7 C 9,7 km/h (2 Bft) 86,96 %
20.07.2019 07:38 18,4 C 18,3 C 18,9 C 18,9 C 18,9 C 76 % 51 cb 153 cb 182 cb 1015,9 hPa 0,0 l/m 8,0 km/h (2 Bft) O-SO 112 1 min 0,000 mm 0,7 UV-I 214 W/m 14,1 C 17,7 C 11,3 km/h (2 Bft) 95,65 %
20.07.2019 07:37 18,3 C 18,3 C 18,9 C 18,9 C 18,9 C 76 % 51 cb 153 cb 182 cb 1015,9 hPa 0,0 l/m 8,0 km/h (2 Bft) O-SO 112 1 min 0,000 mm 0,7 UV-I 207 W/m 14,0 C 17,6 C 11,3 km/h (2 Bft) 95,65 %
20.07.2019 07:36 18,2 C 18,3 C 18,9 C 18,9 C 18,9 C 77 % 51 cb 153 cb 182 cb 1015,9 hPa 0,0 l/m 8,0 km/h (2 Bft) O 90 1 min 0,000 mm 0,6 UV-I 192 W/m 14,1 C 17,5 C 11,3 km/h (2 Bft) 91,30 %
20.07.2019 07:35 18,1 C 18,9 C 18,9 C 18,9 C 18,9 C 77 % 51 cb 153 cb 182 cb 1015,9 hPa 0,0 l/m 9,7 km/h (2 Bft) O-SO 112 1 min 0,000 mm 0,6 UV-I 174 W/m 14,0 C 16,7 C 11,3 km/h (2 Bft) 82,61 %
20.07.2019 07:34 18,0 C 18,9 C 18,9 C 18,9 C 18,9 C 78 % 51 cb 153 cb 182 cb 1016,0 hPa 0,0 l/m 4,8 km/h (1 Bft) O-SO 112 1 min 0,000 mm 0,6 UV-I 174 W/m 14,1 C 18,0 C 6,4 km/h (2 Bft) 100,00 %
20.07.2019 07:33 17,9 C 18,9 C 18,9 C 18,9 C 18,9 C 79 % 51 cb 153 cb 182 cb 1015,9 hPa 0,0 l/m 4,8 km/h (1 Bft) O-SO 112 1 min 0,000 mm 0,6 UV-I 176 W/m 14,2 C 17,9 C 6,4 km/h (2 Bft) 86,96 %
20.07.2019 07:32 17,7 C 18,9 C 18,9 C 18,9 C 18,9 C 79 % 51 cb 153 cb 182 cb 1016,0 hPa 0,0 l/m 3,2 km/h (1 Bft) O 90 1 min 0,000 mm 0,6 UV-I 181 W/m 14,0 C 17,7 C 4,8 km/h (1 Bft) 95,65 %
20.07.2019 07:31 17,7 C 18,9 C 18,9 C 18,9 C 18,9 C 80 % 51 cb 153 cb 182 cb 1016,0 hPa 0,0 l/m 4,8 km/h (1 Bft) O-NO 67 1 min 0,000 mm 0,6 UV-I 183 W/m 14,2 C 17,7 C 6,4 km/h (2 Bft) 91,30 %
20.07.2019 07:30 17,6 C 18,9 C 18,9 C 18,9 C 18,9 C 81 % 51 cb 153 cb 182 cb 1016,0 hPa 0,0 l/m 0,0 km/h (0 Bft) NO 45 1 min 0,000 mm 0,6 UV-I 188 W/m 14,3 C 17,6 C 1,6 km/h (1 Bft) 95,65 %
20.07.2019 07:29 17,6 C 18,9 C 18,9 C 18,9 C 18,9 C 82 % 51 cb 153 cb 182 cb 1016,0 hPa 0,0 l/m 0,0 km/h (0 Bft) NO 45 1 min 0,000 mm 0,6 UV-I 181 W/m 14,5 C 17,6 C 1,6 km/h (1 Bft) 86,96 %
20.07.2019 07:28 17,7 C 18,9 C 18,9 C 18,9 C 18,9 C 81 % 51 cb 153 cb 182 cb 1016,0 hPa 0,0 l/m 0,0 km/h (0 Bft) NO 45 1 min 0,000 mm 0,6 UV-I 172 W/m 14,4 C 17,7 C 1,6 km/h (1 Bft) 100,00 %
20.07.2019 07:27 17,7 C 18,9 C 18,9 C 18,9 C 18,9 C 80 % 51 cb 153 cb 182 cb 1015,9 hPa 0,0 l/m 0,0 km/h (0 Bft) NO 45 1 min 0,000 mm 0,5 UV-I 165 W/m 14,2 C 17,7 C 1,6 km/h (1 Bft) 91,30 %
20.07.2019 07:26 17,7 C 18,3 C 18,9 C 18,9 C 18,9 C 80 % 51 cb 153 cb 182 cb 1015,9 hPa 0,0 l/m 1,6 km/h (1 Bft) NO 45 1 min 0,000 mm 0,5 UV-I 156 W/m 14,2 C 17,7 C 3,2 km/h (1 Bft) 95,65 %
20.07.2019 07:25 17,7 C 18,9 C 18,9 C 18,9 C 18,9 C 79 % 51 cb 153 cb 182 cb 1015,9 hPa 0,0 l/m 1,6 km/h (1 Bft) NO 45 0 min 0,000 mm 0,5 UV-I 151 W/m 14,0 C 17,7 C 3,2 km/h (1 Bft) 91,30 %
20.07.2019 07:24 17,7 C 18,3 C 18,9 C 18,9 C 18,9 C 80 % 51 cb 153 cb 182 cb 1015,9 hPa 0,0 l/m 1,6 km/h (1 Bft) NO 45 0 min 0,000 mm 0,5 UV-I 149 W/m 14,2 C 17,7 C 3,2 km/h (1 Bft) 95,65 %
20.07.2019 07:23 17,7 C 18,3 C 18,9 C 18,9 C 18,9 C 80 % 51 cb 153 cb 182 cb 1015,9 hPa 0,0 l/m 3,2 km/h (1 Bft) N-NO 22 0 min 0,000 mm 0,5 UV-I 146 W/m 14,2 C 17,7 C 4,8 km/h (1 Bft) 95,65 %
20.07.2019 07:22 17,7 C 18,3 C 18,9 C 18,9 C 18,9 C 79 % 51 cb 153 cb 182 cb 1016,0 hPa 0,0 l/m 4,8 km/h (1 Bft) O-NO 67 0 min 0,000 mm 0,5 UV-I 146 W/m 14,0 C 17,7 C 6,4 km/h (2 Bft) 95,65 %
20.07.2019 07:21 17,7 C 18,3 C 18,9 C 18,9 C 18,9 C 80 % 51 cb 153 cb 182 cb 1015,9 hPa 0,0 l/m 3,2 km/h (1 Bft) NO 45 1 min 0,000 mm 0,5 UV-I 155 W/m 14,2 C 17,7 C 6,4 km/h (2 Bft) 95,65 %
20.07.2019 07:20 17,7 C 18,3 C 18,9 C 18,9 C 18,9 C 79 % 51 cb 153 cb 182 cb 1015,9 hPa 0,0 l/m 4,8 km/h (1 Bft) NO 45 0 min 0,000 mm 0,5 UV-I 151 W/m 14,0 C 17,7 C 6,4 km/h (2 Bft) 91,30 %
20.07.2019 07:19 17,6 C 18,3 C 18,9 C 18,9 C 18,9 C 79 % 51 cb 153 cb 182 cb 1015,8 hPa 0,0 l/m 4,8 km/h (1 Bft) NO 45 0 min 0,000 mm 0,5 UV-I 148 W/m 13,9 C 17,6 C 6,4 km/h (2 Bft) 95,65 %
20.07.2019 07:18 17,6 C 18,3 C 18,9 C 18,9 C 18,9 C 80 % 51 cb 153 cb 182 cb 1016,0 hPa 0,0 l/m 4,8 km/h (1 Bft) O-NO 67 0 min 0,000 mm 0,5 UV-I 144 W/m 14,1 C 17,6 C 8,0 km/h (2 Bft) 95,65 %
20.07.2019 07:17 17,6 C 18,9 C 18,9 C 18,9 C 18,9 C 80 % 51 cb 153 cb 182 cb 1016,0 hPa 0,0 l/m 4,8 km/h (1 Bft) NO 45 0 min 0,000 mm 0,5 UV-I 151 W/m 14,1 C 17,6 C 6,4 km/h (2 Bft) 91,30 %
20.07.2019 07:16 17,6 C 18,3 C 18,9 C 18,9 C 18,9 C 80 % 51 cb 153 cb 182 cb 1015,9 hPa 0,0 l/m 4,8 km/h (1 Bft) NO 45 0 min 0,000 mm 0,0 UV-I 149 W/m 14,1 C 17,6 C 6,4 km/h (2 Bft) 86,96 %
20.07.2019 07:15 17,6 C 18,3 C 18,9 C 18,9 C 18,9 C 81 % 51 cb 153 cb 182 cb 1015,9 hPa 0,0 l/m 3,2 km/h (1 Bft) O-NO 67 0 min 0,000 mm 0,0 UV-I 148 W/m 14,3 C 17,6 C 4,8 km/h (1 Bft) 100,00 %
20.07.2019 07:14 17,7 C 18,3 C 18,9 C 18,9 C 18,9 C 81 % 51 cb 153 cb 182 cb 1015,9 hPa 0,0 l/m 1,6 km/h (1 Bft) N-NO 22 1 min 0,000 mm 0,0 UV-I 153 W/m 14,4 C 17,7 C 3,2 km/h (1 Bft) 91,30 %
20.07.2019 07:13 17,7 C 18,3 C 18,9 C 18,9 C 18,9 C 81 % 51 cb 153 cb 182 cb 1015,9 hPa 0,0 l/m 1,6 km/h (1 Bft) NO 45 1 min 0,000 mm 0,0 UV-I 153 W/m 14,4 C 17,7 C 3,2 km/h (1 Bft) 95,65 %
20.07.2019 07:12 17,7 C 18,3 C 18,9 C 18,9 C 18,9 C 81 % 51 cb 153 cb 182 cb 1015,9 hPa 0,0 l/m 3,2 km/h (1 Bft) NO 45 1 min 0,000 mm 0,0 UV-I 162 W/m 14,4 C 17,7 C 3,2 km/h (1 Bft) 95,65 %
20.07.2019 07:11 17,7 C 18,3 C 18,9 C 18,9 C 18,9 C 80 % 51 cb 153 cb 182 cb 1015,9 hPa 0,0 l/m 1,6 km/h (1 Bft) O-SO 112 1 min 0,000 mm 0,0 UV-I 158 W/m 14,2 C 17,7 C 4,8 km/h (1 Bft) 86,96 %
20.07.2019 07:10 17,7 C 18,3 C 18,9 C 18,9 C 18,9 C 79 % 51 cb 153 cb 182 cb 1015,9 hPa 0,0 l/m 3,2 km/h (1 Bft) O-SO 112 1 min 0,000 mm 0,0 UV-I 155 W/m 14,0 C 17,7 C 4,8 km/h (1 Bft) 91,30 %
20.07.2019 07:09 17,7 C 18,3 C 18,9 C 18,9 C 18,9 C 80 % 51 cb 153 cb 182 cb 1015,9 hPa 0,0 l/m 3,2 km/h (1 Bft) O-NO 67 0 min 0,000 mm 0,0 UV-I 146 W/m 14,2 C 17,7 C 4,8 km/h (1 Bft) 91,30 %
20.07.2019 07:08 17,6 C 18,3 C 18,9 C 18,9 C 18,9 C 80 % 51 cb 153 cb 182 cb 1016,1 hPa 0,0 l/m 1,6 km/h (1 Bft) O-NO 67 0 min 0,000 mm 0,0 UV-I 141 W/m 14,1 C 17,6 C 3,2 km/h (1 Bft) 91,30 %
20.07.2019 07:07 17,7 C 18,3 C 18,9 C 18,9 C 18,9 C 80 % 51 cb 153 cb 182 cb 1015,9 hPa 0,0 l/m 1,6 km/h (1 Bft) NO 45 0 min 0,000 mm 0,0 UV-I 137 W/m 14,2 C 17,7 C 3,2 km/h (1 Bft) 91,30 %
20.07.2019 07:06 17,7 C 18,3 C 18,9 C 18,9 C 18,9 C 80 % 51 cb 153 cb 182 cb 1016,0 hPa 0,0 l/m 1,6 km/h (1 Bft) NO 45 0 min 0,000 mm 0,0 UV-I 130 W/m 14,2 C 17,7 C 3,2 km/h (1 Bft) 100,00 %
20.07.2019 07:05 17,7 C 17,8 C 18,9 C 18,9 C 18,9 C 80 % 51 cb 153 cb 182 cb 1016,0 hPa 0,0 l/m 3,2 km/h (1 Bft) NO 45 0 min 0,000 mm 0,0 UV-I 127 W/m 14,2 C 17,7 C 4,8 km/h (1 Bft) 91,30 %
20.07.2019 07:04 17,7 C 17,8 C 18,9 C 18,9 C 18,9 C 80 % 51 cb 153 cb 182 cb 1016,1 hPa 0,0 l/m 1,6 km/h (1 Bft) O 90 0 min 0,000 mm 0,0 UV-I 125 W/m 14,2 C 17,7 C 3,2 km/h (1 Bft) 91,30 %
20.07.2019 07:03 17,8 C 17,8 C 18,9 C 18,9 C 18,9 C 78 % 51 cb 153 cb 182 cb 1016,1 hPa 0,0 l/m 1,6 km/h (1 Bft) O 90 0 min 0,000 mm 0,0 UV-I 120 W/m 13,9 C 17,8 C 3,2 km/h (1 Bft) 95,65 %
20.07.2019 07:02 17,8 C 17,8 C 18,9 C 18,9 C 18,9 C 79 % 51 cb 153 cb 182 cb 1016,0 hPa 0,0 l/m 3,2 km/h (1 Bft) O 90 0 min 0,000 mm 0,0 UV-I 123 W/m 14,1 C 17,8 C 4,8 km/h (1 Bft) 95,65 %
20.07.2019 07:01 17,8 C 17,8 C 18,9 C 18,9 C 18,9 C 78 % 51 cb 153 cb 182 cb 1015,9 hPa 0,0 l/m 3,2 km/h (1 Bft) O 90 0 min 0,000 mm 0,0 UV-I 134 W/m 13,9 C 17,8 C 4,8 km/h (1 Bft) 86,96 %
20.07.2019 07:00 17,8 C 17,8 C 18,9 C 18,9 C 18,9 C 78 % 51 cb 153 cb 182 cb 1015,9 hPa 0,0 l/m 3,2 km/h (1 Bft) O 90 0 min 0,051 mm 0,0 UV-I 146 W/m 13,9 C 17,8 C 4,8 km/h (1 Bft) 95,65 %
20.07.2019 06:59 17,8 C 17,8 C 18,9 C 18,9 C 18,9 C 78 % 51 cb 153 cb 182 cb 1015,9 hPa 0,0 l/m 4,8 km/h (1 Bft) SO 135 0 min 0,000 mm 0,0 UV-I 146 W/m 13,9 C 17,8 C 6,4 km/h (2 Bft) 91,30 %
20.07.2019 06:58 17,7 C 17,8 C 18,9 C 18,9 C 18,9 C 78 % 51 cb 153 cb 182 cb 1015,9 hPa 0,0 l/m 4,8 km/h (1 Bft) O-SO 112 0 min 0,000 mm 0,0 UV-I 144 W/m 13,8 C 17,7 C 6,4 km/h (2 Bft) 95,65 %
20.07.2019 06:57 17,6 C 17,8 C 18,9 C 18,9 C 18,9 C 78 % 51 cb 153 cb 182 cb 1015,9 hPa 0,0 l/m 6,4 km/h (2 Bft) O-SO 112 0 min 0,000 mm 0,0 UV-I 141 W/m 13,7 C 17,6 C 11,3 km/h (2 Bft) 95,65 %
20.07.2019 06:56 17,6 C 17,8 C 18,9 C 18,9 C 18,9 C 79 % 51 cb 153 cb 182 cb 1015,9 hPa 0,0 l/m 8,0 km/h (2 Bft) O-SO 112 0 min 0,000 mm 0,0 UV-I 139 W/m 13,9 C 16,8 C 9,7 km/h (2 Bft) 91,30 %
20.07.2019 06:55 17,6 C 17,8 C 18,9 C 18,9 C 18,9 C 79 % 51 cb 153 cb 182 cb 1016,0 hPa 0,0 l/m 4,8 km/h (1 Bft) O-SO 112 0 min 0,000 mm 0,0 UV-I 137 W/m 13,9 C 17,6 C 4,8 km/h (1 Bft) 91,30 %
20.07.2019 06:54 17,5 C 17,8 C 18,9 C 18,9 C 18,9 C 79 % 51 cb 153 cb 182 cb 1015,9 hPa 0,0 l/m 6,4 km/h (2 Bft) O 90 0 min 0,000 mm 0,0 UV-I 135 W/m 13,8 C 17,5 C 11,3 km/h (2 Bft) 100,00 %
20.07.2019 06:53 17,3 C 17,8 C 18,9 C 18,9 C 18,9 C 80 % 51 cb 153 cb 182 cb 1015,9 hPa 0,0 l/m 6,4 km/h (2 Bft) O 90 0 min 0,000 mm 0,0 UV-I 135 W/m 13,8 C 17,3 C 12,9 km/h (3 Bft) 91,30 %
20.07.2019 06:52 17,3 C 17,8 C 18,9 C 18,9 C 18,9 C 81 % 51 cb 153 cb 182 cb 1015,9 hPa 0,0 l/m 4,8 km/h (1 Bft) O-NO 67 0 min 0,000 mm 0,0 UV-I 135 W/m 14,0 C 17,3 C 6,4 km/h (2 Bft) 91,30 %
20.07.2019 06:51 17,2 C 17,8 C 18,9 C 18,9 C 18,9 C 81 % 51 cb 153 cb 182 cb 1015,8 hPa 0,0 l/m 3,2 km/h (1 Bft) O-SO 112 0 min 0,000 mm 0,0 UV-I 141 W/m 13,9 C 17,2 C 6,4 km/h (2 Bft) 100,00 %
20.07.2019 06:50 17,1 C 18,3 C 18,9 C 18,9 C 18,9 C 81 % 51 cb 153 cb 182 cb 1015,9 hPa 0,0 l/m 1,6 km/h (1 Bft) O-SO 112 0 min 0,000 mm 0,0 UV-I 142 W/m 13,8 C 17,1 C 3,2 km/h (1 Bft) 95,65 %
20.07.2019 06:49 17,0 C 17,8 C 18,9 C 18,9 C 18,9 C 82 % 51 cb 153 cb 182 cb 1015,9 hPa 0,0 l/m 1,6 km/h (1 Bft) O-SO 112 0 min 0,000 mm 0,0 UV-I 139 W/m 13,9 C 17,0 C 4,8 km/h (1 Bft) 95,65 %
20.07.2019 06:48 16,8 C 17,8 C 18,9 C 18,9 C 18,9 C 83 % 51 cb 153 cb 182 cb 1015,8 hPa 0,0 l/m 1,6 km/h (1 Bft) O-SO 112 0 min 0,000 mm 0,0 UV-I 130 W/m 13,9 C 16,8 C 4,8 km/h (1 Bft) 100,00 %
20.07.2019 06:47 16,8 C 17,8 C 18,9 C 18,9 C 18,9 C 84 % 51 cb 153 cb 182 cb 1015,9 hPa 0,0 l/m 1,6 km/h (1 Bft) O-SO 112 0 min 0,000 mm 0,0 UV-I 123 W/m 14,1 C 16,8 C 3,2 km/h (1 Bft) 95,65 %
20.07.2019 06:46 16,6 C 17,8 C 18,9 C 18,9 C 18,9 C 84 % 51 cb 153 cb 182 cb 1015,8 hPa 0,0 l/m 3,2 km/h (1 Bft) O 90 0 min 0,000 mm 0,0 UV-I 114 W/m 13,9 C 16,6 C 4,8 km/h (1 Bft) 95,65 %
20.07.2019 06:45 16,5 C 17,8 C 18,9 C 18,9 C 18,9 C 84 % 51 cb 153 cb 182 cb 1015,8 hPa 0,0 l/m 1,6 km/h (1 Bft) O 90 0 min 0,000 mm 0,0 UV-I 105 W/m 13,8 C 16,5 C 3,2 km/h (1 Bft) 100,00 %
20.07.2019 06:44 16,4 C 18,3 C 18,9 C 18,9 C 18,9 C 84 % 51 cb 153 cb 182 cb 1015,7 hPa 0,0 l/m 1,6 km/h (1 Bft) N 360 0 min 0,000 mm 0,0 UV-I 100 W/m 13,7 C 16,4 C 3,2 km/h (1 Bft) 95,65 %
20.07.2019 06:43 16,4 C 18,3 C 18,9 C 18,9 C 18,9 C 85 % 51 cb 153 cb 182 cb 1015,8 hPa 0,0 l/m 0,0 km/h (0 Bft) N 360 0 min 0,000 mm 0,0 UV-I 104 W/m 13,9 C 16,4 C 1,6 km/h (1 Bft) 95,65 %
20.07.2019 06:42 16,4 C 18,3 C 18,9 C 18,9 C 18,9 C 84 % 51 cb 153 cb 182 cb 1015,7 hPa 0,0 l/m 1,6 km/h (1 Bft) N 360 0 min 0,000 mm 0,0 UV-I 114 W/m 13,7 C 16,4 C 1,6 km/h (1 Bft) 95,65 %
20.07.2019 06:41 16,4 C 17,8 C 18,9 C 18,9 C 18,9 C 84 % 51 cb 153 cb 182 cb 1015,8 hPa 0,0 l/m 1,6 km/h (1 Bft) N 360 0 min 0,000 mm 0,0 UV-I 120 W/m 13,7 C 16,4 C 1,6 km/h (1 Bft) 95,65 %
20.07.2019 06:40 16,6 C 17,8 C 18,9 C 18,9 C 18,9 C 84 % 51 cb 153 cb 182 cb 1015,8 hPa 0,0 l/m 1,6 km/h (1 Bft) N 360 0 min 0,000 mm 0,0 UV-I 120 W/m 13,9 C 16,6 C 3,2 km/h (1 Bft) 91,30 %
20.07.2019 06:39 16,6 C 17,8 C 18,9 C 18,9 C 18,9 C 83 % 51 cb 153 cb 182 cb 1015,7 hPa 0,0 l/m 3,2 km/h (1 Bft) N 360 0 min 0,000 mm 0,0 UV-I 121 W/m 13,7 C 16,6 C 4,8 km/h (1 Bft) 100,00 %
20.07.2019 06:38 16,7 C 17,8 C 18,9 C 18,9 C 18,9 C 84 % 51 cb 153 cb 182 cb 1015,8 hPa 0,0 l/m 3,2 km/h (1 Bft) N 360 0 min 0,000 mm 0,0 UV-I 120 W/m 14,0 C 16,7 C 3,2 km/h (1 Bft) 91,30 %
20.07.2019 06:37 16,7 C 17,8 C 18,9 C 18,9 C 18,9 C 84 % 51 cb 153 cb 182 cb 1015,7 hPa 0,0 l/m 3,2 km/h (1 Bft) N 360 0 min 0,000 mm 0,0 UV-I 116 W/m 14,0 C 16,7 C 4,8 km/h (1 Bft) 91,30 %
20.07.2019 06:36 16,7 C 17,8 C 18,9 C 18,9 C 18,9 C 83 % 51 cb 153 cb 182 cb 1015,7 hPa 0,0 l/m 1,6 km/h (1 Bft) O-NO 67 0 min 0,000 mm 0,0 UV-I 116 W/m 13,8 C 16,7 C 3,2 km/h (1 Bft) 95,65 %
20.07.2019 06:35 16,8 C 17,8 C 18,9 C 18,9 C 18,9 C 83 % 51 cb 153 cb 182 cb 1015,8 hPa 0,0 l/m 1,6 km/h (1 Bft) O-NO 67 0 min 0,000 mm 0,0 UV-I 116 W/m 13,9 C 16,8 C 3,2 km/h (1 Bft) 95,65 %
20.07.2019 06:34 16,8 C 17,2 C 18,9 C 18,9 C 18,9 C 82 % 51 cb 153 cb 182 cb 1015,7 hPa 0,0 l/m 0,0 km/h (0 Bft) O-NO 67 0 min 0,000 mm 0,0 UV-I 113 W/m 13,7 C 16,8 C 1,6 km/h (1 Bft) 95,65 %
20.07.2019 06:33 16,8 C 17,2 C 18,9 C 18,9 C 18,9 C 81 % 51 cb 153 cb 182 cb 1015,7 hPa 0,0 l/m 0,0 km/h (0 Bft) O-NO 67 0 min 0,000 mm 0,0 UV-I 111 W/m 13,5 C 16,8 C 1,6 km/h (1 Bft) 91,30 %
20.07.2019 06:32 16,8 C 17,2 C 18,9 C 18,9 C 18,9 C 82 % 51 cb 153 cb 182 cb 1015,7 hPa 0,0 l/m 0,0 km/h (0 Bft) O-NO 67 0 min 0,000 mm 0,0 UV-I 109 W/m 13,7 C 16,8 C 1,6 km/h (1 Bft) 100,00 %
20.07.2019 06:31 16,9 C 17,2 C 18,9 C 18,9 C 18,9 C 81 % 51 cb 153 cb 182 cb 1015,7 hPa 0,0 l/m 1,6 km/h (1 Bft) O-NO 67 0 min 0,000 mm 0,0 UV-I 107 W/m 13,6 C 16,9 C 3,2 km/h (1 Bft) 95,65 %
20.07.2019 06:30 16,8 C 17,2 C 18,9 C 18,9 C 18,9 C 81 % 51 cb 153 cb 182 cb 1015,7 hPa 0,0 l/m 1,6 km/h (1 Bft) O-NO 67 0 min 0,000 mm 0,0 UV-I 107 W/m 13,5 C 16,8 C 3,2 km/h (1 Bft) 95,65 %
20.07.2019 06:29 16,8 C 16,7 C 18,9 C 18,9 C 18,9 C 82 % 51 cb 153 cb 182 cb 1015,6 hPa 0,0 l/m 1,6 km/h (1 Bft) O-NO 67 0 min 0,000 mm 0,0 UV-I 102 W/m 13,7 C 16,8 C 3,2 km/h (1 Bft) 100,00 %
20.07.2019 06:28 16,8 C 16,7 C 18,9 C 18,9 C 18,9 C 82 % 51 cb 153 cb 182 cb 1015,6 hPa 0,0 l/m 3,2 km/h (1 Bft) O-NO 67 0 min 0,000 mm 0,0 UV-I 93 W/m 13,7 C 16,8 C 4,8 km/h (1 Bft) 91,30 %
20.07.2019 06:27 16,8 C 16,7 C 18,9 C 18,9 C 18,9 C 81 % 51 cb 153 cb 182 cb 1015,6 hPa 0,0 l/m 1,6 km/h (1 Bft) O-NO 67 0 min 0,000 mm 0,0 UV-I 90 W/m 13,5 C 16,8 C 3,2 km/h (1 Bft) 95,65 %
20.07.2019 06:26 16,8 C 16,7 C 18,9 C 18,9 C 18,9 C 81 % 51 cb 153 cb 182 cb 1015,6 hPa 0,0 l/m 1,6 km/h (1 Bft) O-NO 67 0 min 0,000 mm 0,0 UV-I 90 W/m 13,5 C 16,8 C 4,8 km/h (1 Bft) 100,00 %
20.07.2019 06:25 16,8 C 16,7 C 18,9 C 18,9 C 18,9 C 81 % 51 cb 153 cb 182 cb 1015,7 hPa 0,0 l/m 1,6 km/h (1 Bft) O-NO 67 0 min 0,000 mm 0,0 UV-I 84 W/m 13,5 C 16,8 C 4,8 km/h (1 Bft) 95,65 %
20.07.2019 06:24 16,8 C 16,7 C 18,9 C 18,9 C 18,9 C 81 % 51 cb 153 cb 182 cb 1015,7 hPa 0,0 l/m 1,6 km/h (1 Bft) NO 45 0 min 0,000 mm 0,0 UV-I 83 W/m 13,5 C 16,8 C 3,2 km/h (1 Bft) 95,65 %
20.07.2019 06:23 16,7 C 16,7 C 18,9 C 18,9 C 18,9 C 81 % 51 cb 153 cb 182 cb 1015,6 hPa 0,0 l/m 3,2 km/h (1 Bft) NO 45 0 min 0,000 mm 0,0 UV-I 77 W/m 13,4 C 16,7 C 3,2 km/h (1 Bft) 82,61 %
20.07.2019 06:22 16,7 C 16,7 C 18,9 C 18,9 C 18,9 C 82 % 51 cb 153 cb 182 cb 1015,6 hPa 0,0 l/m 1,6 km/h (1 Bft) NO 45 0 min 0,000 mm 0,0 UV-I 74 W/m 13,6 C 16,7 C 3,2 km/h (1 Bft) 95,65 %
20.07.2019 06:21 16,7 C 16,1 C 18,9 C 18,9 C 18,9 C 82 % 51 cb 153 cb 182 cb 1015,6 hPa 0,0 l/m 1,6 km/h (1 Bft) NO 45 0 min 0,000 mm 0,0 UV-I 70 W/m 13,6 C 16,7 C 3,2 km/h (1 Bft) 95,65 %
20.07.2019 06:20 16,7 C 16,1 C 18,9 C 18,9 C 18,9 C 82 % 51 cb 153 cb 182 cb 1015,5 hPa 0,0 l/m 3,2 km/h (1 Bft) NO 45 0 min 0,000 mm 0,0 UV-I 69 W/m 13,6 C 16,7 C 4,8 km/h (1 Bft) 100,00 %
20.07.2019 06:19 16,6 C 16,1 C 18,9 C 18,9 C 18,9 C 82 % 51 cb 153 cb 182 cb 1015,6 hPa 0,0 l/m 1,6 km/h (1 Bft) NO 45 0 min 0,000 mm 0,0 UV-I 63 W/m 13,5 C 16,6 C 3,2 km/h (1 Bft) 91,30 %
20.07.2019 06:18 16,6 C 16,1 C 18,9 C 18,9 C 18,9 C 82 % 51 cb 153 cb 182 cb 1015,6 hPa 0,0 l/m 3,2 km/h (1 Bft) NO 45 0 min 0,000 mm 0,0 UV-I 63 W/m 13,5 C 16,6 C 3,2 km/h (1 Bft) 91,30 %
20.07.2019 06:17 16,5 C 16,1 C 18,9 C 18,9 C 18,9 C 82 % 51 cb 153 cb 182 cb 1015,6 hPa 0,0 l/m 3,2 km/h (1 Bft) NO 45 0 min 0,000 mm 0,0 UV-I 62 W/m 13,4 C 16,5 C 4,8 km/h (1 Bft) 100,00 %
20.07.2019 06:16 16,5 C 16,1 C 18,9 C 18,9 C 18,9 C 83 % 51 cb 152 cb 182 cb 1015,6 hPa 0,0 l/m 3,2 km/h (1 Bft) NO 45 0 min 0,000 mm 0,0 UV-I 62 W/m 13,6 C 16,5 C 6,4 km/h (2 Bft) 95,65 %
20.07.2019 06:15 16,4 C 16,1 C 18,9 C 18,9 C 18,9 C 83 % 51 cb 153 cb 182 cb 1015,7 hPa 0,0 l/m 1,6 km/h (1 Bft) NO 45 0 min 0,000 mm 0,0 UV-I 60 W/m 13,5 C 16,4 C 3,2 km/h (1 Bft) 95,65 %
20.07.2019 06:14 16,4 C 16,1 C 18,9 C 18,9 C 18,9 C 83 % 51 cb 153 cb 182 cb 1015,6 hPa 0,0 l/m 3,2 km/h (1 Bft) NO 45 0 min 0,000 mm 0,0 UV-I 60 W/m 13,5 C 16,4 C 3,2 km/h (1 Bft) 95,65 %
20.07.2019 06:13 16,4 C 16,1 C 18,9 C 18,9 C 18,9 C 83 % 51 cb 153 cb 182 cb 1015,7 hPa 0,0 l/m 1,6 km/h (1 Bft) N-NO 22 0 min 0,000 mm 0,0 UV-I 56 W/m 13,5 C 16,4 C 3,2 km/h (1 Bft) 95,65 %
20.07.2019 06:12 16,4 C 16,1 C 18,9 C 18,9 C 18,9 C 83 % 51 cb 152 cb 182 cb 1015,7 hPa 0,0 l/m 3,2 km/h (1 Bft) N-NO 22 0 min 0,000 mm 0,0 UV-I 56 W/m 13,5 C 16,4 C 4,8 km/h (1 Bft) 95,65 %
20.07.2019 06:11 16,4 C 16,1 C 18,9 C 18,9 C 18,9 C 83 % 51 cb 153 cb 182 cb 1015,6 hPa 0,0 l/m 1,6 km/h (1 Bft) N-NO 22 0 min 0,000 mm 0,0 UV-I 51 W/m 13,5 C 16,4 C 3,2 km/h (1 Bft) 100,00 %
20.07.2019 06:10 16,4 C 16,1 C 18,9 C 18,9 C 18,9 C 82 % 51 cb 153 cb 182 cb 1015,6 hPa 0,0 l/m 3,2 km/h (1 Bft) NO 45 0 min 0,000 mm 0,0 UV-I 51 W/m 13,3 C 16,4 C 3,2 km/h (1 Bft) 95,65 %
20.07.2019 06:09 16,4 C 16,1 C 18,9 C 18,9 C 18,9 C 82 % 51 cb 152 cb 182 cb 1015,7 hPa 0,0 l/m 3,2 km/h (1 Bft) N 360 0 min 0,000 mm 0,0 UV-I 49 W/m 13,3 C 16,4 C 4,8 km/h (1 Bft) 91,30 %
20.07.2019 06:08 16,4 C 16,1 C 18,9 C 18,9 C 18,9 C 82 % 51 cb 152 cb 182 cb 1015,6 hPa 0,0 l/m 3,2 km/h (1 Bft) N 360 0 min 0,000 mm 0,0 UV-I 49 W/m 13,3 C 16,4 C 4,8 km/h (1 Bft) 100,00 %
20.07.2019 06:07 16,4 C 16,1 C 18,9 C 18,9 C 18,9 C 82 % 51 cb 152 cb 182 cb 1015,5 hPa 0,0 l/m 3,2 km/h (1 Bft) N 360 0 min 0,000 mm 0,0 UV-I 46 W/m 13,3 C 16,4 C 4,8 km/h (1 Bft) 95,65 %
20.07.2019 06:06 16,4 C 15,6 C 18,9 C 18,9 C 18,9 C 82 % 51 cb 152 cb 182 cb 1015,6 hPa 0,0 l/m 3,2 km/h (1 Bft) N 360 0 min 0,000 mm 0,0 UV-I 44 W/m 13,3 C 16,4 C 4,8 km/h (1 Bft) 91,30 %
20.07.2019 06:05 16,5 C 15,6 C 18,9 C 18,9 C 18,9 C 81 % 51 cb 152 cb 182 cb 1015,6 hPa 0,0 l/m 4,8 km/h (1 Bft) N-NO 22 0 min 0,000 mm 0,0 UV-I 42 W/m 13,2 C 16,5 C 4,8 km/h (1 Bft) 91,30 %
20.07.2019 06:04 16,6 C 15,6 C 18,9 C 18,9 C 18,9 C 81 % 51 cb 153 cb 182 cb 1015,6 hPa 0,0 l/m 4,8 km/h (1 Bft) N-NO 22 0 min 0,000 mm 0,0 UV-I 40 W/m 13,3 C 16,6 C 4,8 km/h (1 Bft) 95,65 %
20.07.2019 06:03 16,6 C 15,6 C 18,9 C 18,9 C 18,9 C 81 % 51 cb 153 cb 182 cb 1015,7 hPa 0,0 l/m 4,8 km/h (1 Bft) N-NO 22 0 min 0,000 mm 0,0 UV-I 39 W/m 13,3 C 16,6 C 6,4 km/h (2 Bft) 95,65 %
20.07.2019 06:02 16,7 C 15,6 C 18,9 C 18,9 C 18,9 C 80 % 51 cb 153 cb 182 cb 1015,6 hPa 0,0 l/m 4,8 km/h (1 Bft) N-NO 22 0 min 0,000 mm 0,0 UV-I 37 W/m 13,2 C 16,7 C 4,8 km/h (1 Bft) 100,00 %
20.07.2019 06:01 16,7 C 15,6 C 18,9 C 18,9 C 18,9 C 80 % 51 cb 153 cb 182 cb 1015,7 hPa 0,0 l/m 3,2 km/h (1 Bft) N-NO 22 0 min 0,000 mm 0,0 UV-I 33 W/m 13,2 C 16,7 C 4,8 km/h (1 Bft) 95,65 %
20.07.2019 06:00 16,8 C 15,6 C 18,9 C 18,9 C 18,9 C 80 % 51 cb 153 cb 182 cb 1015,6 hPa 0,0 l/m 3,2 km/h (1 Bft) O-NO 67 0 min 0,025 mm 0,0 UV-I 33 W/m 13,3 C 16,8 C 3,2 km/h (1 Bft) 91,30 %
20.07.2019 05:59 16,9 C 15,6 C 18,9 C 18,9 C 18,9 C 79 % 51 cb 153 cb 182 cb 1015,7 hPa 0,0 l/m 3,2 km/h (1 Bft) O-NO 67 0 min 0,000 mm 0,0 UV-I 32 W/m 13,2 C 16,9 C 3,2 km/h (1 Bft) 95,65 %
20.07.2019 05:58 17,0 C 15,6 C 18,9 C 18,9 C 18,9 C 79 % 51 cb 153 cb 182 cb 1015,7 hPa 0,0 l/m 1,6 km/h (1 Bft) O-NO 67 0 min 0,000 mm 0,0 UV-I 30 W/m 13,3 C 17,0 C 3,2 km/h (1 Bft) 91,30 %
20.07.2019 05:57 17,1 C 15,6 C 18,9 C 18,9 C 18,9 C 78 % 51 cb 153 cb 182 cb 1015,6 hPa 0,0 l/m 3,2 km/h (1 Bft) O-NO 67 0 min 0,000 mm 0,0 UV-I 28 W/m 13,2 C 17,1 C 3,2 km/h (1 Bft) 95,65 %
20.07.2019 05:56 17,3 C 15,6 C 18,9 C 18,9 C 18,9 C 77 % 51 cb 153 cb 182 cb 1015,6 hPa 0,0 l/m 3,2 km/h (1 Bft) O-NO 67 0 min 0,000 mm 0,0 UV-I 28 W/m 13,2 C 17,3 C 3,2 km/h (1 Bft) 100,00 %
20.07.2019 05:55 17,3 C 15,6 C 18,9 C 18,9 C 18,9 C 77 % 51 cb 153 cb 182 cb 1015,6 hPa 0,0 l/m 3,2 km/h (1 Bft) O-NO 67 0 min 0,000 mm 0,0 UV-I 26 W/m 13,2 C 17,3 C 3,2 km/h (1 Bft) 95,65 %
20.07.2019 05:54 17,4 C 15,6 C 18,9 C 18,9 C 18,9 C 76 % 51 cb 153 cb 182 cb 1015,7 hPa 0,0 l/m 1,6 km/h (1 Bft) O-NO 67 0 min 0,000 mm 0,0 UV-I 25 W/m 13,1 C 17,4 C 3,2 km/h (1 Bft) 95,65 %
20.07.2019 05:53 17,6 C 15,6 C 18,9 C 18,9 C 18,9 C 75 % 51 cb 153 cb 182 cb 1015,6 hPa 0,0 l/m 1,6 km/h (1 Bft) O-NO 67 0 min 0,000 mm 0,0 UV-I 23 W/m 13,1 C 17,6 C 3,2 km/h (1 Bft) 100,00 %
20.07.2019 05:52 17,7 C 15,6 C 18,9 C 18,9 C 18,9 C 75 % 51 cb 153 cb 182 cb 1015,6 hPa 0,0 l/m 1,6 km/h (1 Bft) O-NO 67 0 min 0,000 mm 0,0 UV-I 23 W/m 13,2 C 17,7 C 3,2 km/h (1 Bft) 91,30 %
20.07.2019 05:51 17,7 C 15,6 C 18,9 C 18,9 C 18,9 C 75 % 51 cb 153 cb 182 cb 1015,5 hPa 0,0 l/m 1,6 km/h (1 Bft) O-NO 67 0 min 0,000 mm 0,0 UV-I 19 W/m 13,2 C 17,7 C 3,2 km/h (1 Bft) 95,65 %
20.07.2019 05:50 17,7 C 15,6 C 18,9 C 18,9 C 18,9 C 74 % 51 cb 153 cb 182 cb 1015,6 hPa 0,0 l/m 3,2 km/h (1 Bft) O-NO 67 0 min 0,000 mm 0,0 UV-I 21 W/m 13,0 C 17,7 C 3,2 km/h (1 Bft) 91,30 %
20.07.2019 05:49 17,8 C 15,6 C 18,9 C 18,9 C 18,9 C 74 % 51 cb 153 cb 182 cb 1015,6 hPa 0,0 l/m 3,2 km/h (1 Bft) O 90 0 min 0,000 mm 0,0 UV-I 19 W/m 13,1 C 17,8 C 4,8 km/h (1 Bft) 95,65 %
20.07.2019 05:48 17,8 C 15,6 C 18,9 C 18,9 C 18,9 C 74 % 51 cb 153 cb 182 cb 1015,6 hPa 0,0 l/m 4,8 km/h (1 Bft) O 90 0 min 0,000 mm 0,0 UV-I 19 W/m 13,1 C 17,8 C 6,4 km/h (2 Bft) 95,65 %
20.07.2019 05:47 17,8 C 15,6 C 18,9 C 18,9 C 18,9 C 74 % 51 cb 153 cb 182 cb 1015,6 hPa 0,0 l/m 3,2 km/h (1 Bft) O 90 0 min 0,000 mm 0,0 UV-I 19 W/m 13,1 C 17,8 C 4,8 km/h (1 Bft) 100,00 %
20.07.2019 05:46 17,8 C 15,6 C 18,9 C 18,9 C 18,9 C 74 % 51 cb 153 cb 182 cb 1015,6 hPa 0,0 l/m 4,8 km/h (1 Bft) O 90 0 min 0,000 mm 0,0 UV-I 18 W/m 13,1 C 17,8 C 9,7 km/h (2 Bft) 95,65 %
20.07.2019 05:45 17,8 C 15,6 C 18,9 C 18,9 C 18,3 C 74 % 51 cb 153 cb 180 cb 1015,5 hPa 0,0 l/m 3,2 km/h (1 Bft) O 90 0 min 0,000 mm 0,0 UV-I 18 W/m 13,1 C 17,8 C 4,8 km/h (1 Bft) 91,30 %
20.07.2019 05:44 17,9 C 15,6 C 18,9 C 18,9 C 18,9 C 74 % 51 cb 153 cb 182 cb 1015,5 hPa 0,0 l/m 3,2 km/h (1 Bft) O 90 0 min 0,000 mm 0,0 UV-I 16 W/m 13,2 C 17,9 C 4,8 km/h (1 Bft) 95,65 %
20.07.2019 05:43 17,9 C 15,6 C 18,9 C 18,9 C 18,3 C 74 % 51 cb 153 cb 180 cb 1015,6 hPa 0,0 l/m 3,2 km/h (1 Bft) O 90 0 min 0,000 mm 0,0 UV-I 16 W/m 13,2 C 17,9 C 4,8 km/h (1 Bft) 95,65 %
20.07.2019 05:42 17,9 C 15,6 C 18,9 C 18,9 C 18,9 C 74 % 51 cb 153 cb 182 cb 1015,6 hPa 0,0 l/m 1,6 km/h (1 Bft) O 90 0 min 0,000 mm 0,0 UV-I 16 W/m 13,2 C 17,9 C 3,2 km/h (1 Bft) 95,65 %
20.07.2019 05:41 17,9 C 15,6 C 18,9 C 18,9 C 18,3 C 73 % 51 cb 153 cb 180 cb 1015,6 hPa 0,0 l/m 3,2 km/h (1 Bft) O 90 0 min 0,000 mm 0,0 UV-I 16 W/m 13,0 C 17,9 C 3,2 km/h (1 Bft) 95,65 %
20.07.2019 05:40 18,0 C 15,6 C 18,9 C 18,9 C 18,3 C 73 % 51 cb 152 cb 180 cb 1015,6 hPa 0,0 l/m 3,2 km/h (1 Bft) O 90 0 min 0,000 mm 0,0 UV-I 16 W/m 13,1 C 18,0 C 4,8 km/h (1 Bft) 100,00 %
20.07.2019 05:39 18,0 C 15,6 C 18,9 C 18,9 C 18,3 C 73 % 51 cb 152 cb 180 cb 1015,5 hPa 0,0 l/m 3,2 km/h (1 Bft) O 90 0 min 0,000 mm 0,0 UV-I 14 W/m 13,1 C 18,0 C 4,8 km/h (1 Bft) 95,65 %
20.07.2019 05:38 17,9 C 15,6 C 18,9 C 18,9 C 18,3 C 73 % 51 cb 152 cb 180 cb 1015,5 hPa 0,0 l/m 4,8 km/h (1 Bft) O-SO 112 0 min 0,000 mm 0,0 UV-I 14 W/m 13,0 C 17,9 C 6,4 km/h (2 Bft) 95,65 %
20.07.2019 05:37 17,9 C 15,6 C 18,9 C 18,9 C 18,3 C 73 % 51 cb 152 cb 180 cb 1015,5 hPa 0,0 l/m 3,2 km/h (1 Bft) O 90 0 min 0,000 mm 0,0 UV-I 12 W/m 13,0 C 17,9 C 6,4 km/h (2 Bft) 100,00 %
20.07.2019 05:36 17,9 C 15,6 C 18,9 C 18,9 C 18,3 C 73 % 51 cb 152 cb 180 cb 1015,5 hPa 0,0 l/m 6,4 km/h (2 Bft) O 90 0 min 0,000 mm 0,0 UV-I 12 W/m 13,0 C 17,9 C 11,3 km/h (2 Bft) 91,30 %
20.07.2019 05:35 17,9 C 15,6 C 18,9 C 18,9 C 18,3 C 73 % 51 cb 152 cb 180 cb 1015,5 hPa 0,0 l/m 4,8 km/h (1 Bft) O-SO 112 0 min 0,000 mm 0,0 UV-I 11 W/m 13,0 C 17,9 C 9,7 km/h (2 Bft) 91,30 %
20.07.2019 05:34 18,0 C 15,6 C 18,9 C 18,9 C 18,3 C 73 % 51 cb 152 cb 180 cb 1015,5 hPa 0,0 l/m 4,8 km/h (1 Bft) O-SO 112 0 min 0,000 mm 0,0 UV-I 9 W/m 13,1 C 18,0 C 6,4 km/h (2 Bft) 100,00 %
20.07.2019 05:33 18,0 C 15,6 C 18,9 C 18,9 C 18,3 C 73 % 51 cb 152 cb 180 cb 1015,4 hPa 0,0 l/m 8,0 km/h (2 Bft) O-SO 112 0 min 0,000 mm 0,0 UV-I 9 W/m 13,1 C 17,3 C 11,3 km/h (2 Bft) 95,65 %
20.07.2019 05:32 18,0 C 15,6 C 18,9 C 18,9 C 18,3 C 73 % 51 cb 152 cb 180 cb 1015,4 hPa 0,0 l/m 9,7 km/h (2 Bft) O-SO 112 0 min 0,000 mm 0,0 UV-I 7 W/m 13,1 C 16,5 C 12,9 km/h (3 Bft) 95,65 %
20.07.2019 05:31 18,0 C 15,6 C 18,9 C 18,9 C 18,3 C 73 % 51 cb 152 cb 180 cb 1015,5 hPa 0,0 l/m 8,0 km/h (2 Bft) O-SO 112 0 min 0,000 mm 0,0 UV-I 5 W/m 13,1 C 17,3 C 9,7 km/h (2 Bft) 100,00 %
20.07.2019 05:30 18,1 C 15,6 C 18,9 C 18,9 C 18,3 C 73 % 51 cb 152 cb 180 cb 1015,5 hPa 0,0 l/m 4,8 km/h (1 Bft) O-SO 112 0 min 0,000 mm 0,0 UV-I 5 W/m 13,2 C 18,1 C 6,4 km/h (2 Bft) 95,65 %
20.07.2019 05:29 18,1 C 15,6 C 18,9 C 18,9 C 18,3 C 73 % 51 cb 152 cb 180 cb 1015,4 hPa 0,0 l/m 8,0 km/h (2 Bft) O-SO 112 0 min 0,000 mm 0,0 UV-I 5 W/m 13,2 C 17,4 C 11,3 km/h (2 Bft) 95,65 %
20.07.2019 05:28 18,1 C 15,6 C 18,9 C 18,9 C 18,3 C 73 % 51 cb 152 cb 181 cb 1015,5 hPa 0,0 l/m 4,8 km/h (1 Bft) O-SO 112 0 min 0,000 mm 0,0 UV-I 0 W/m 13,2 C 18,1 C 6,4 km/h (2 Bft) 100,00 %
20.07.2019 05:27 18,1 C 15,6 C 18,9 C 18,9 C 18,3 C 73 % 51 cb 152 cb 180 cb 1015,5 hPa 0,0 l/m 3,2 km/h (1 Bft) O-SO 112 0 min 0,000 mm 0,0 UV-I 0 W/m 13,2 C 18,1 C 4,8 km/h (1 Bft) 91,30 %
20.07.2019 05:26 18,1 C 15,6 C 18,9 C 18,9 C 18,3 C 73 % 51 cb 152 cb 181 cb 1015,5 hPa 0,0 l/m 4,8 km/h (1 Bft) O-SO 112 0 min 0,000 mm 0,0 UV-I 0 W/m 13,2 C 18,1 C 6,4 km/h (2 Bft) 95,65 %
20.07.2019 05:25 18,1 C 15,6 C 18,9 C 18,9 C 18,3 C 73 % 51 cb 152 cb 181 cb 1015,4 hPa 0,0 l/m 3,2 km/h (1 Bft) O 90 0 min 0,000 mm 0,0 UV-I 0 W/m 13,2 C 18,1 C 6,4 km/h (2 Bft) 100,00 %
20.07.2019 05:24 18,1 C 15,6 C 18,9 C 18,9 C 18,3 C 73 % 51 cb 152 cb 181 cb 1015,5 hPa 0,0 l/m 4,8 km/h (1 Bft) O-SO 112 0 min 0,000 mm 0,0 UV-I 0 W/m 13,2 C 18,1 C 6,4 km/h (2 Bft) 95,65 %
20.07.2019 05:23 18,1 C 15,6 C 18,9 C 18,9 C 18,3 C 73 % 51 cb 152 cb 181 cb 1015,4 hPa 0,0 l/m 4,8 km/h (1 Bft) O-SO 112 0 min 0,000 mm 0,0 UV-I 0 W/m 13,2 C 18,1 C 6,4 km/h (2 Bft) 95,65 %
20.07.2019 05:22 18,1 C 15,6 C 18,9 C 18,9 C 18,3 C 73 % 51 cb 152 cb 181 cb 1015,4 hPa 0,0 l/m 8,0 km/h (2 Bft) O-SO 112 0 min 0,000 mm 0,0 UV-I 0 W/m 13,2 C 17,4 C 11,3 km/h (2 Bft) 100,00 %
20.07.2019 05:21 18,1 C 15,6 C 18,9 C 18,9 C 18,3 C 73 % 51 cb 152 cb 181 cb 1015,5 hPa 0,0 l/m 6,4 km/h (2 Bft) O-SO 112 0 min 0,000 mm 0,0 UV-I 0 W/m 13,2 C 18,1 C 9,7 km/h (2 Bft) 91,30 %
20.07.2019 05:20 18,0 C 15,6 C 18,9 C 18,9 C 18,3 C 73 % 51 cb 152 cb 181 cb 1015,3 hPa 0,0 l/m 6,4 km/h (2 Bft) O-SO 112 0 min 0,000 mm 0,0 UV-I 0 W/m 13,1 C 18,0 C 9,7 km/h (2 Bft) 95,65 %
20.07.2019 05:19 18,0 C 15,6 C 18,9 C 18,9 C 18,3 C 73 % 51 cb 152 cb 181 cb 1015,4 hPa 0,0 l/m 8,0 km/h (2 Bft) O-SO 112 0 min 0,000 mm 0,0 UV-I 0 W/m 13,1 C 17,3 C 9,7 km/h (2 Bft) 100,00 %
20.07.2019 05:18 18,0 C 15,6 C 18,9 C 18,9 C 18,3 C 73 % 51 cb 152 cb 181 cb 1015,5 hPa 0,0 l/m 6,4 km/h (2 Bft) O-SO 112 0 min 0,000 mm 0,0 UV-I 0 W/m 13,1 C 18,0 C 9,7 km/h (2 Bft) 95,65 %
20.07.2019 05:17 17,9 C 15,6 C 18,9 C 18,9 C 18,3 C 73 % 51 cb 152 cb 181 cb 1015,5 hPa 0,0 l/m 8,0 km/h (2 Bft) O-SO 112 0 min 0,000 mm 0,0 UV-I 0 W/m 13,0 C 17,1 C 11,3 km/h (2 Bft) 95,65 %
20.07.2019 05:16 17,9 C 15,6 C 18,9 C 18,9 C 18,3 C 73 % 51 cb 152 cb 181 cb 1015,4 hPa 0,0 l/m 9,7 km/h (2 Bft) O-SO 112 0 min 0,000 mm 0,0 UV-I 0 W/m 13,0 C 16,4 C 11,3 km/h (2 Bft) 95,65 %
20.07.2019 05:15 17,9 C 15,6 C 18,9 C 18,9 C 18,3 C 73 % 50 cb 152 cb 181 cb 1015,4 hPa 0,0 l/m 9,7 km/h (2 Bft) O-SO 112 0 min 0,000 mm 0,0 UV-I 0 W/m 13,0 C 16,4 C 12,9 km/h (3 Bft) 91,30 %
20.07.2019 05:14 17,9 C 15,6 C 18,9 C 18,9 C 18,3 C 73 % 50 cb 152 cb 181 cb 1015,4 hPa 0,0 l/m 8,0 km/h (2 Bft) O-SO 112 0 min 0,000 mm 0,0 UV-I 0 W/m 13,0 C 17,1 C 11,3 km/h (2 Bft) 95,65 %
20.07.2019 05:13 17,9 C 15,6 C 18,9 C 18,9 C 18,3 C 73 % 50 cb 152 cb 181 cb 1015,4 hPa 0,0 l/m 8,0 km/h (2 Bft) O-SO 112 0 min 0,000 mm 0,0 UV-I 0 W/m 13,0 C 17,1 C 9,7 km/h (2 Bft) 100,00 %
20.07.2019 05:12 17,9 C 15,6 C 18,9 C 18,9 C 18,3 C 73 % 50 cb 152 cb 181 cb 1015,4 hPa 0,0 l/m 6,4 km/h (2 Bft) O-SO 112 0 min 0,000 mm 0,0 UV-I 0 W/m 13,0 C 17,9 C 8,0 km/h (2 Bft) 95,65 %
20.07.2019 05:11 18,0 C 15,6 C 18,9 C 18,9 C 18,3 C 73 % 50 cb 152 cb 181 cb 1015,4 hPa 0,0 l/m 6,4 km/h (2 Bft) SO 135 0 min 0,000 mm 0,0 UV-I 0 W/m 13,1 C 18,0 C 11,3 km/h (2 Bft) 95,65 %
20.07.2019 05:10 18,0 C 15,6 C 18,9 C 18,9 C 18,3 C 73 % 50 cb 152 cb 181 cb 1015,5 hPa 0,0 l/m 8,0 km/h (2 Bft) SO 135 0 min 0,000 mm 0,0 UV-I 0 W/m 13,1 C 17,3 C 12,9 km/h (3 Bft) 100,00 %
20.07.2019 05:09 18,1 C 15,6 C 18,9 C 18,9 C 18,3 C 72 % 50 cb 152 cb 181 cb 1015,5 hPa 0,0 l/m 9,7 km/h (2 Bft) SO 135 0 min 0,000 mm 0,0 UV-I 0 W/m 13,0 C 16,7 C 12,9 km/h (3 Bft) 91,30 %
20.07.2019 05:08 18,1 C 15,6 C 18,9 C 18,9 C 18,3 C 72 % 50 cb 152 cb 181 cb 1015,4 hPa 0,0 l/m 9,7 km/h (2 Bft) SO 135 0 min 0,000 mm 0,0 UV-I 0 W/m 13,0 C 16,7 C 11,3 km/h (2 Bft) 95,65 %
20.07.2019 05:07 18,1 C 15,6 C 18,9 C 18,9 C 18,3 C 72 % 50 cb 152 cb 181 cb 1015,4 hPa 0,0 l/m 9,7 km/h (2 Bft) SO 135 0 min 0,000 mm 0,0 UV-I 0 W/m 13,0 C 16,7 C 11,3 km/h (2 Bft) 100,00 %
20.07.2019 05:06 18,1 C 15,6 C 18,9 C 18,9 C 18,3 C 72 % 50 cb 152 cb 181 cb 1015,4 hPa 0,0 l/m 9,7 km/h (2 Bft) SO 135 0 min 0,000 mm 0,0 UV-I 0 W/m 13,0 C 16,7 C 11,3 km/h (2 Bft) 95,65 %
20.07.2019 05:05 18,1 C 15,6 C 18,9 C 18,9 C 18,3 C 72 % 50 cb 152 cb 181 cb 1015,3 hPa 0,0 l/m 9,7 km/h (2 Bft) SO 135 0 min 0,000 mm 0,0 UV-I 0 W/m 13,0 C 16,7 C 12,9 km/h (3 Bft) 95,65 %
20.07.2019 05:04 18,1 C 15,6 C 18,9 C 18,9 C 18,3 C 72 % 50 cb 152 cb 181 cb 1015,4 hPa 0,0 l/m 8,0 km/h (2 Bft) SO 135 0 min 0,000 mm 0,0 UV-I 0 W/m 13,0 C 17,4 C 11,3 km/h (2 Bft) 100,00 %
20.07.2019 05:03 18,1 C 15,6 C 18,9 C 18,9 C 18,3 C 72 % 50 cb 152 cb 181 cb 1015,4 hPa 0,0 l/m 8,0 km/h (2 Bft) SO 135 0 min 0,000 mm 0,0 UV-I 0 W/m 13,0 C 17,4 C 9,7 km/h (2 Bft) 95,65 %
20.07.2019 05:02 18,1 C 15,6 C 18,9 C 18,9 C 18,3 C 72 % 50 cb 152 cb 181 cb 1015,3 hPa 0,0 l/m 6,4 km/h (2 Bft) SO 135 0 min 0,000 mm 0,0 UV-I 0 W/m 13,0 C 18,1 C 11,3 km/h (2 Bft) 91,30 %
20.07.2019 05:01 18,1 C 15,6 C 18,9 C 18,9 C 18,3 C 72 % 50 cb 152 cb 181 cb 1015,5 hPa 0,0 l/m 6,4 km/h (2 Bft) SO 135 0 min 0,000 mm 0,0 UV-I 0 W/m 13,0 C 18,1 C 11,3 km/h (2 Bft) 95,65 %
20.07.2019 05:00 18,1 C 15,6 C 18,9 C 18,9 C 18,3 C 72 % 50 cb 152 cb 181 cb 1015,4 hPa 0,0 l/m 4,8 km/h (1 Bft) SO 135 0 min 0,051 mm 0,0 UV-I 0 W/m 13,0 C 18,1 C 6,4 km/h (2 Bft) 95,65 %
20.07.2019 04:59 18,1 C 15,6 C 18,9 C 18,9 C 18,3 C 73 % 50 cb 152 cb 181 cb 1015,4 hPa 0,0 l/m 4,8 km/h (1 Bft) O-SO 112 0 min 0,000 mm 0,0 UV-I 0 W/m 13,2 C 18,1 C 6,4 km/h (2 Bft) 95,65 %
20.07.2019 04:58 18,1 C 15,6 C 18,9 C 18,9 C 18,3 C 73 % 50 cb 152 cb 181 cb 1015,4 hPa 0,0 l/m 3,2 km/h (1 Bft) O-SO 112 0 min 0,000 mm 0,0 UV-I 0 W/m 13,2 C 18,1 C 4,8 km/h (1 Bft) 95,65 %
20.07.2019 04:57 18,1 C 15,6 C 18,9 C 18,9 C 18,3 C 73 % 50 cb 152 cb 181 cb 1015,4 hPa 0,0 l/m 3,2 km/h (1 Bft) O-SO 112 0 min 0,000 mm 0,0 UV-I 0 W/m 13,2 C 18,1 C 4,8 km/h (1 Bft) 95,65 %
20.07.2019 04:56 18,1 C 15,6 C 18,9 C 18,9 C 18,3 C 73 % 50 cb 152 cb 181 cb 1015,5 hPa 0,0 l/m 3,2 km/h (1 Bft) O-SO 112 0 min 0,000 mm 0,0 UV-I 0 W/m 13,2 C 18,1 C 4,8 km/h (1 Bft) 95,65 %
20.07.2019 04:55 18,1 C 15,6 C 18,9 C 18,9 C 18,3 C 73 % 50 cb 152 cb 181 cb 1015,4 hPa 0,0 l/m 1,6 km/h (1 Bft) O-SO 112 0 min 0,000 mm 0,0 UV-I 0 W/m 13,2 C 18,1 C 3,2 km/h (1 Bft) 95,65 %
20.07.2019 04:54 18,2 C 15,6 C 18,9 C 18,9 C 18,3 C 73 % 50 cb 152 cb 181 cb 1015,5 hPa 0,0 l/m 3,2 km/h (1 Bft) O-SO 112 0 min 0,000 mm 0,0 UV-I 0 W/m 13,3 C 18,2 C 3,2 km/h (1 Bft) 95,65 %
20.07.2019 04:53 18,2 C 15,6 C 18,9 C 18,9 C 18,3 C 72 % 50 cb 152 cb 181 cb 1015,4 hPa 0,0 l/m 3,2 km/h (1 Bft) O-SO 112 0 min 0,000 mm 0,0 UV-I 0 W/m 13,1 C 18,2 C 3,2 km/h (1 Bft) 95,65 %
20.07.2019 04:52 18,2 C 15,6 C 18,9 C 18,9 C 18,3 C 72 % 50 cb 152 cb 181 cb 1015,4 hPa 0,0 l/m 3,2 km/h (1 Bft) O-SO 112 0 min 0,000 mm 0,0 UV-I 0 W/m 13,1 C 18,2 C 4,8 km/h (1 Bft) 91,30 %
20.07.2019 04:51 18,2 C 15,6 C 18,9 C 18,9 C 18,3 C 72 % 50 cb 152 cb 181 cb 1015,5 hPa 0,0 l/m 3,2 km/h (1 Bft) O-SO 112 0 min 0,000 mm 0,0 UV-I 0 W/m 13,1 C 18,2 C 4,8 km/h (1 Bft) 100,00 %
20.07.2019 04:50 18,2 C 15,6 C 18,9 C 18,9 C 18,3 C 72 % 50 cb 152 cb 181 cb 1015,4 hPa 0,0 l/m 3,2 km/h (1 Bft) O 90 0 min 0,000 mm 0,0 UV-I 0 W/m 13,1 C 18,2 C 4,8 km/h (1 Bft) 95,65 %
20.07.2019 04:49 18,3 C 15,6 C 18,9 C 18,9 C 18,3 C 72 % 50 cb 152 cb 181 cb 1015,4 hPa 0,0 l/m 4,8 km/h (1 Bft) O-SO 112 0 min 0,000 mm 0,0 UV-I 0 W/m 13,2 C 18,3 C 6,4 km/h (2 Bft) 91,30 %
20.07.2019 04:48 18,2 C 15,6 C 18,9 C 18,9 C 18,3 C 72 % 50 cb 152 cb 181 cb 1015,4 hPa 0,0 l/m 3,2 km/h (1 Bft) O 90 0 min 0,000 mm 0,0 UV-I 0 W/m 13,1 C 18,2 C 4,8 km/h (1 Bft) 100,00 %
20.07.2019 04:47 18,2 C 15,6 C 18,9 C 18,9 C 18,3 C 72 % 50 cb 152 cb 181 cb 1015,4 hPa 0,0 l/m 4,8 km/h (1 Bft) O 90 0 min 0,000 mm 0,0 UV-I 0 W/m 13,1 C 18,2 C 6,4 km/h (2 Bft) 95,65 %
20.07.2019 04:46 18,3 C 15,6 C 18,9 C 19,4 C 18,3 C 72 % 50 cb 154 cb 181 cb 1015,4 hPa 0,0 l/m 3,2 km/h (1 Bft) O 90 0 min 0,000 mm 0,0 UV-I 0 W/m 13,2 C 18,3 C 4,8 km/h (1 Bft) 95,65 %
20.07.2019 04:45 18,2 C 15,6 C 18,9 C 19,4 C 18,3 C 72 % 50 cb 154 cb 181 cb 1015,2 hPa 0,0 l/m 3,2 km/h (1 Bft) S-SO 157 0 min 0,000 mm 0,0 UV-I 0 W/m 13,1 C 18,2 C 4,8 km/h (1 Bft) 95,65 %
20.07.2019 04:44 18,3 C 15,6 C 18,9 C 19,4 C 18,3 C 72 % 50 cb 154 cb 181 cb 1015,3 hPa 0,0 l/m 3,2 km/h (1 Bft) SO 135 0 min 0,000 mm 0,0 UV-I 0 W/m 13,2 C 18,3 C 4,8 km/h (1 Bft) 91,30 %
20.07.2019 04:43 18,2 C 15,6 C 18,9 C 19,4 C 18,3 C 72 % 50 cb 154 cb 181 cb 1015,4 hPa 0,0 l/m 3,2 km/h (1 Bft) SO 135 0 min 0,000 mm 0,0 UV-I 0 W/m 13,1 C 18,2 C 4,8 km/h (1 Bft) 95,65 %
20.07.2019 04:42 18,3 C 15,6 C 18,9 C 19,4 C 18,3 C 72 % 50 cb 154 cb 181 cb 1015,3 hPa 0,0 l/m 3,2 km/h (1 Bft) O-SO 112 0 min 0,000 mm 0,0 UV-I 0 W/m 13,2 C 18,3 C 4,8 km/h (1 Bft) 100,00 %
20.07.2019 04:41 18,3 C 15,6 C 18,9 C 19,4 C 18,3 C 72 % 50 cb 154 cb 181 cb 1015,5 hPa 0,0 l/m 3,2 km/h (1 Bft) O-SO 112 0 min 0,000 mm 0,0 UV-I 0 W/m 13,2 C 18,3 C 4,8 km/h (1 Bft) 95,65 %
20.07.2019 04:40 18,3 C 15,6 C 18,9 C 19,4 C 18,3 C 72 % 50 cb 154 cb 181 cb 1015,4 hPa 0,0 l/m 4,8 km/h (1 Bft) O-SO 112 0 min 0,000 mm 0,0 UV-I 0 W/m 13,2 C 18,3 C 6,4 km/h (2 Bft) 91,30 %
20.07.2019 04:39 18,3 C 15,6 C 18,9 C 19,4 C 18,3 C 72 % 50 cb 154 cb 181 cb 1015,4 hPa 0,0 l/m 6,4 km/h (2 Bft) O-SO 112 0 min 0,000 mm 0,0 UV-I 0 W/m 13,2 C 18,3 C 6,4 km/h (2 Bft) 100,00 %
20.07.2019 04:38 18,2 C 15,6 C 18,9 C 19,4 C 18,3 C 72 % 50 cb 154 cb 181 cb 1015,4 hPa 0,0 l/m 6,4 km/h (2 Bft) O-SO 112 0 min 0,000 mm 0,0 UV-I 0 W/m 13,1 C 18,2 C 9,7 km/h (2 Bft) 91,30 %
20.07.2019 04:37 18,3 C 15,6 C 18,9 C 19,4 C 18,3 C 72 % 50 cb 154 cb 181 cb 1015,4 hPa 0,0 l/m 4,8 km/h (1 Bft) O-SO 112 0 min 0,000 mm 0,0 UV-I 0 W/m 13,2 C 18,3 C 6,4 km/h (2 Bft) 95,65 %
20.07.2019 04:36 18,3 C 15,6 C 18,9 C 19,4 C 18,3 C 72 % 50 cb 154 cb 181 cb 1015,4 hPa 0,0 l/m 8,0 km/h (2 Bft) O-SO 112 0 min 0,000 mm 0,0 UV-I 0 W/m 13,2 C 17,6 C 9,7 km/h (2 Bft) 100,00 %
20.07.2019 04:35 18,3 C 15,6 C 18,9 C 19,4 C 18,3 C 72 % 50 cb 154 cb 181 cb 1015,4 hPa 0,0 l/m 6,4 km/h (2 Bft) O-SO 112 0 min 0,000 mm 0,0 UV-I 0 W/m 13,2 C 18,3 C 9,7 km/h (2 Bft) 95,65 %
20.07.2019 04:34 18,3 C 15,6 C 18,9 C 19,4 C 18,3 C 72 % 50 cb 154 cb 181 cb 1015,4 hPa 0,0 l/m 8,0 km/h (2 Bft) O-SO 112 0 min 0,000 mm 0,0 UV-I 0 W/m 13,2 C 17,6 C 11,3 km/h (2 Bft) 95,65 %
20.07.2019 04:33 18,4 C 15,6 C 18,9 C 19,4 C 18,3 C 72 % 50 cb 154 cb 181 cb 1015,4 hPa 0,0 l/m 9,7 km/h (2 Bft) O-SO 112 0 min 0,000 mm 0,0 UV-I 0 W/m 13,3 C 17,0 C 12,9 km/h (3 Bft) 91,30 %
20.07.2019 04:32 18,4 C 15,6 C 18,9 C 19,4 C 18,3 C 72 % 50 cb 154 cb 181 cb 1015,4 hPa 0,0 l/m 9,7 km/h (2 Bft) O-SO 112 0 min 0,000 mm 0,0 UV-I 0 W/m 13,3 C 17,0 C 14,5 km/h (3 Bft) 95,65 %
20.07.2019 04:31 18,4 C 15,6 C 18,9 C 19,4 C 18,3 C 71 % 50 cb 154 cb 181 cb 1015,4 hPa 0,0 l/m 9,7 km/h (2 Bft) O-SO 112 0 min 0,000 mm 0,0 UV-I 0 W/m 13,0 C 17,0 C 12,9 km/h (3 Bft) 95,65 %
20.07.2019 04:30 18,4 C 16,1 C 18,9 C 19,4 C 18,3 C 71 % 50 cb 154 cb 181 cb 1015,4 hPa 0,0 l/m 8,0 km/h (2 Bft) O-SO 112 0 min 0,000 mm 0,0 UV-I 0 W/m 13,0 C 17,7 C 11,3 km/h (2 Bft) 100,00 %
20.07.2019 04:29 18,4 C 16,1 C 18,9 C 19,4 C 18,3 C 71 % 50 cb 154 cb 181 cb 1015,4 hPa 0,0 l/m 8,0 km/h (2 Bft) SO 135 0 min 0,000 mm 0,0 UV-I 0 W/m 13,0 C 17,7 C 11,3 km/h (2 Bft) 95,65 %
20.07.2019 04:28 18,4 C 16,1 C 18,9 C 19,4 C 18,3 C 71 % 50 cb 154 cb 181 cb 1015,4 hPa 0,0 l/m 8,0 km/h (2 Bft) SO 135 0 min 0,000 mm 0,0 UV-I 0 W/m 13,0 C 17,7 C 11,3 km/h (2 Bft) 91,30 %
20.07.2019 04:27 18,5 C 16,1 C 18,9 C 19,4 C 18,3 C 71 % 50 cb 154 cb 181 cb 1015,5 hPa 0,0 l/m 8,0 km/h (2 Bft) SO 135 0 min 0,000 mm 0,0 UV-I 0 W/m 13,1 C 17,8 C 11,3 km/h (2 Bft) 100,00 %
20.07.2019 04:26 18,5 C 16,1 C 18,9 C 19,4 C 18,3 C 71 % 50 cb 154 cb 181 cb 1015,5 hPa 0,0 l/m 9,7 km/h (2 Bft) O-SO 112 0 min 0,000 mm 0,0 UV-I 0 W/m 13,1 C 17,1 C 14,5 km/h (3 Bft) 95,65 %
20.07.2019 04:25 18,5 C 16,1 C 18,9 C 19,4 C 18,3 C 71 % 50 cb 154 cb 181 cb 1015,5 hPa 0,0 l/m 9,7 km/h (2 Bft) O-SO 112 0 min 0,000 mm 0,0 UV-I 0 W/m 13,1 C 17,1 C 14,5 km/h (3 Bft) 95,65 %
20.07.2019 04:24 18,5 C 16,1 C 18,9 C 19,4 C 18,3 C 70 % 50 cb 154 cb 181 cb 1015,4 hPa 0,0 l/m 8,0 km/h (2 Bft) SO 135 0 min 0,000 mm 0,0 UV-I 0 W/m 12,9 C 17,8 C 11,3 km/h (2 Bft) 100,00 %
20.07.2019 04:23 18,6 C 16,1 C 18,9 C 19,4 C 18,3 C 71 % 50 cb 154 cb 181 cb 1015,5 hPa 0,0 l/m 8,0 km/h (2 Bft) SO 135 0 min 0,000 mm 0,0 UV-I 0 W/m 13,2 C 17,9 C 11,3 km/h (2 Bft) 95,65 %
20.07.2019 04:22 18,5 C 16,1 C 18,9 C 19,4 C 18,3 C 71 % 50 cb 154 cb 181 cb 1015,5 hPa 0,0 l/m 8,0 km/h (2 Bft) SO 135 0 min 0,000 mm 0,0 UV-I 0 W/m 13,1 C 17,8 C 11,3 km/h (2 Bft) 91,30 %
20.07.2019 04:21 18,4 C 16,1 C 18,9 C 19,4 C 18,3 C 71 % 50 cb 154 cb 181 cb 1015,4 hPa 0,0 l/m 8,0 km/h (2 Bft) SO 135 0 min 0,000 mm 0,0 UV-I 0 W/m 13,0 C 17,7 C 11,3 km/h (2 Bft) 95,65 %
20.07.2019 04:20 18,4 C 16,1 C 18,9 C 19,4 C 18,3 C 71 % 50 cb 154 cb 181 cb 1015,5 hPa 0,0 l/m 9,7 km/h (2 Bft) SO 135 0 min 0,000 mm 0,0 UV-I 0 W/m 13,0 C 17,0 C 11,3 km/h (2 Bft) 91,30 %
20.07.2019 04:19 18,4 C 16,1 C 18,9 C 19,4 C 18,3 C 72 % 50 cb 154 cb 181 cb 1015,5 hPa 0,0 l/m 8,0 km/h (2 Bft) SO 135 0 min 0,000 mm 0,0 UV-I 0 W/m 13,3 C 17,7 C 12,9 km/h (3 Bft) 95,65 %
20.07.2019 04:18 18,4 C 16,1 C 18,9 C 19,4 C 18,3 C 72 % 50 cb 154 cb 181 cb 1015,5 hPa 0,0 l/m 6,4 km/h (2 Bft) SO 135 0 min 0,000 mm 0,0 UV-I 0 W/m 13,3 C 18,4 C 8,0 km/h (2 Bft) 100,00 %
20.07.2019 04:17 18,4 C 16,1 C 18,9 C 19,4 C 18,3 C 72 % 50 cb 154 cb 181 cb 1015,5 hPa 0,0 l/m 6,4 km/h (2 Bft) SO 135 0 min 0,000 mm 0,0 UV-I 0 W/m 13,3 C 18,4 C 9,7 km/h (2 Bft) 95,65 %
20.07.2019 04:16 18,4 C 16,1 C 18,9 C 19,4 C 18,3 C 72 % 50 cb 154 cb 181 cb 1015,5 hPa 0,0 l/m 9,7 km/h (2 Bft) SO 135 0 min 0,000 mm 0,0 UV-I 0 W/m 13,3 C 17,0 C 11,3 km/h (2 Bft) 91,30 %
20.07.2019 04:15 18,4 C 16,1 C 18,9 C 19,4 C 18,3 C 72 % 50 cb 154 cb 181 cb 1015,5 hPa 0,0 l/m 8,0 km/h (2 Bft) O-SO 112 0 min 0,000 mm 0,0 UV-I 0 W/m 13,3 C 17,7 C 11,3 km/h (2 Bft) 95,65 %
20.07.2019 04:14 18,4 C 16,1 C 18,9 C 19,4 C 18,3 C 72 % 50 cb 154 cb 181 cb 1015,5 hPa 0,0 l/m 9,7 km/h (2 Bft) SO 135 0 min 0,000 mm 0,0 UV-I 0 W/m 13,3 C 17,0 C 11,3 km/h (2 Bft) 95,65 %
20.07.2019 04:13 18,4 C 16,1 C 18,9 C 19,4 C 18,3 C 72 % 50 cb 154 cb 181 cb 1015,5 hPa 0,0 l/m 8,0 km/h (2 Bft) O-SO 112 0 min 0,000 mm 0,0 UV-I 0 W/m 13,3 C 17,7 C 11,3 km/h (2 Bft) 91,30 %
20.07.2019 04:12 18,3 C 16,1 C 18,9 C 19,4 C 18,3 C 72 % 50 cb 154 cb 181 cb 1015,5 hPa 0,0 l/m 8,0 km/h (2 Bft) O-SO 112 0 min 0,000 mm 0,0 UV-I 0 W/m 13,2 C 17,6 C 9,7 km/h (2 Bft) 95,65 %
20.07.2019 04:11 18,4 C 16,1 C 18,9 C 19,4 C 18,3 C 72 % 50 cb 154 cb 181 cb 1015,4 hPa 0,0 l/m 6,4 km/h (2 Bft) O-SO 112 0 min 0,000 mm 0,0 UV-I 0 W/m 13,3 C 18,4 C 9,7 km/h (2 Bft) 91,30 %
20.07.2019 04:10 18,4 C 16,1 C 18,9 C 19,4 C 18,3 C 72 % 50 cb 154 cb 181 cb 1015,4 hPa 0,0 l/m 9,7 km/h (2 Bft) O-SO 112 0 min 0,000 mm 0,0 UV-I 0 W/m 13,3 C 17,0 C 12,9 km/h (3 Bft) 95,65 %
20.07.2019 04:09 18,3 C 16,1 C 18,9 C 19,4 C 18,3 C 72 % 50 cb 154 cb 181 cb 1015,5 hPa 0,0 l/m 6,4 km/h (2 Bft) O-SO 112 0 min 0,000 mm 0,0 UV-I 0 W/m 13,2 C 18,3 C 12,9 km/h (3 Bft) 95,65 %
20.07.2019 04:08 18,3 C 16,1 C 18,9 C 19,4 C 18,3 C 72 % 50 cb 154 cb 181 cb 1015,5 hPa 0,0 l/m 6,4 km/h (2 Bft) O-SO 112 0 min 0,000 mm 0,0 UV-I 0 W/m 13,2 C 18,3 C 9,7 km/h (2 Bft) 100,00 %
20.07.2019 04:07 18,3 C 16,1 C 18,9 C 19,4 C 18,3 C 72 % 50 cb 154 cb 181 cb 1015,4 hPa 0,0 l/m 8,0 km/h (2 Bft) O-SO 112 0 min 0,000 mm 0,0 UV-I 0 W/m 13,2 C 17,6 C 11,3 km/h (2 Bft) 95,65 %
20.07.2019 04:06 18,3 C 16,1 C 18,9 C 19,4 C 18,3 C 73 % 50 cb 154 cb 181 cb 1015,4 hPa 0,0 l/m 8,0 km/h (2 Bft) O-SO 112 0 min 0,000 mm 0,0 UV-I 0 W/m 13,4 C 17,6 C 11,3 km/h (2 Bft) 95,65 %
20.07.2019 04:05 18,3 C 15,6 C 18,9 C 19,4 C 18,3 C 73 % 50 cb 154 cb 181 cb 1015,5 hPa 0,0 l/m 8,0 km/h (2 Bft) O 90 0 min 0,000 mm 0,0 UV-I 0 W/m 13,4 C 17,6 C 14,5 km/h (3 Bft) 95,65 %
20.07.2019 04:04 18,3 C 15,6 C 18,9 C 19,4 C 18,3 C 72 % 50 cb 154 cb 181 cb 1015,5 hPa 0,0 l/m 9,7 km/h (2 Bft) O-SO 112 0 min 0,000 mm 0,0 UV-I 0 W/m 13,2 C 16,9 C 14,5 km/h (3 Bft) 95,65 %
20.07.2019 04:03 18,2 C 15,6 C 18,9 C 19,4 C 18,3 C 73 % 50 cb 154 cb 181 cb 1015,5 hPa 0,0 l/m 8,0 km/h (2 Bft) S 180 0 min 0,000 mm 0,0 UV-I 0 W/m 13,3 C 17,5 C 12,9 km/h (3 Bft) 95,65 %
20.07.2019 04:02 18,2 C 15,6 C 18,9 C 19,4 C 18,3 C 73 % 50 cb 154 cb 181 cb 1015,5 hPa 0,0 l/m 9,7 km/h (2 Bft) S-SW 202 0 min 0,000 mm 0,0 UV-I 0 W/m 13,3 C 16,8 C 12,9 km/h (3 Bft) 100,00 %
20.07.2019 04:01 18,2 C 15,6 C 18,9 C 19,4 C 18,3 C 73 % 50 cb 154 cb 181 cb 1015,5 hPa 0,0 l/m 11,3 km/h (2 Bft) S-SW 202 0 min 0,000 mm 0,0 UV-I 0 W/m 13,3 C 16,2 C 12,9 km/h (3 Bft) 95,65 %
20.07.2019 04:00 18,2 C 15,6 C 18,9 C 19,4 C 18,3 C 73 % 50 cb 154 cb 181 cb 1015,5 hPa 0,0 l/m 9,7 km/h (2 Bft) S 180 0 min 0,051 mm 0,0 UV-I 0 W/m 13,3 C 16,8 C 11,3 km/h (2 Bft) 91,30 %
20.07.2019 03:59 18,2 C 15,6 C 18,9 C 19,4 C 18,3 C 73 % 50 cb 154 cb 181 cb 1015,5 hPa 0,0 l/m 9,7 km/h (2 Bft) S-SO 157 0 min 0,000 mm 0,0 UV-I 0 W/m 13,3 C 16,8 C 14,5 km/h (3 Bft) 100,00 %
20.07.2019 03:58 18,2 C 15,6 C 18,9 C 19,4 C 18,3 C 73 % 50 cb 154 cb 181 cb 1015,4 hPa 0,0 l/m 11,3 km/h (2 Bft) S-SO 157 0 min 0,000 mm 0,0 UV-I 0 W/m 13,3 C 16,2 C 14,5 km/h (3 Bft) 91,30 %
20.07.2019 03:57 18,2 C 15,6 C 18,9 C 19,4 C 18,3 C 73 % 50 cb 154 cb 181 cb 1015,4 hPa 0,0 l/m 9,7 km/h (2 Bft) S-SO 157 0 min 0,000 mm 0,0 UV-I 0 W/m 13,3 C 16,8 C 11,3 km/h (2 Bft) 91,30 %
20.07.2019 03:56 18,2 C 15,6 C 18,9 C 19,4 C 18,3 C 73 % 50 cb 154 cb 181 cb 1015,5 hPa 0,0 l/m 8,0 km/h (2 Bft) S-SO 157 0 min 0,000 mm 0,0 UV-I 0 W/m 13,3 C 17,5 C 11,3 km/h (2 Bft) 100,00 %
20.07.2019 03:55 18,2 C 15,6 C 18,9 C 19,4 C 18,3 C 73 % 50 cb 154 cb 181 cb 1015,5 hPa 0,0 l/m 11,3 km/h (2 Bft) O-SO 112 0 min 0,000 mm 0,0 UV-I 0 W/m 13,3 C 16,2 C 14,5 km/h (3 Bft) 95,65 %
20.07.2019 03:54 18,3 C 15,6 C 18,9 C 19,4 C 18,3 C 72 % 50 cb 154 cb 181 cb 1015,5 hPa 0,0 l/m 9,7 km/h (2 Bft) O-SO 112 0 min 0,000 mm 0,0 UV-I 0 W/m 13,2 C 16,9 C 12,9 km/h (3 Bft) 95,65 %
20.07.2019 03:53 18,3 C 15,6 C 18,9 C 19,4 C 18,3 C 72 % 50 cb 154 cb 181 cb 1015,5 hPa 0,0 l/m 8,0 km/h (2 Bft) O-SO 112 0 min 0,000 mm 0,0 UV-I 0 W/m 13,2 C 17,6 C 11,3 km/h (2 Bft) 100,00 %
20.07.2019 03:52 18,3 C 15,6 C 18,9 C 19,4 C 18,3 C 72 % 50 cb 154 cb 181 cb 1015,5 hPa 0,0 l/m 9,7 km/h (2 Bft) O-SO 112 0 min 0,000 mm 0,0 UV-I 0 W/m 13,2 C 16,9 C 12,9 km/h (3 Bft) 95,65 %
20.07.2019 03:51 18,3 C 15,6 C 18,9 C 19,4 C 18,3 C 72 % 50 cb 154 cb 181 cb 1015,5 hPa 0,0 l/m 6,4 km/h (2 Bft) SO 135 0 min 0,000 mm 0,0 UV-I 0 W/m 13,2 C 18,3 C 11,3 km/h (2 Bft) 91,30 %
20.07.2019 03:50 18,3 C 15,6 C 18,9 C 19,4 C 18,3 C 72 % 50 cb 154 cb 181 cb 1015,5 hPa 0,0 l/m 8,0 km/h (2 Bft) SO 135 0 min 0,000 mm 0,0 UV-I 0 W/m 13,2 C 17,6 C 11,3 km/h (2 Bft) 100,00 %
20.07.2019 03:49 18,4 C 15,6 C 19,4 C 19,4 C 18,3 C 72 % 50 cb 154 cb 181 cb 1015,5 hPa 0,0 l/m 6,4 km/h (2 Bft) SO 135 0 min 0,000 mm 0,0 UV-I 0 W/m 13,3 C 18,4 C 6,4 km/h (2 Bft) 95,65 %
20.07.2019 03:48 18,4 C 15,6 C 19,4 C 19,4 C 18,3 C 72 % 50 cb 154 cb 181 cb 1015,5 hPa 0,0 l/m 6,4 km/h (2 Bft) O-SO 112 0 min 0,000 mm 0,0 UV-I 0 W/m 13,3 C 18,4 C 8,0 km/h (2 Bft) 95,65 %
20.07.2019 03:47 18,4 C 15,6 C 19,4 C 19,4 C 18,3 C 72 % 50 cb 154 cb 181 cb 1015,5 hPa 0,0 l/m 4,8 km/h (1 Bft) SO 135 0 min 0,000 mm 0,0 UV-I 0 W/m 13,3 C 18,4 C 8,0 km/h (2 Bft) 100,00 %
20.07.2019 03:46 18,4 C 15,6 C 19,4 C 19,4 C 18,3 C 72 % 50 cb 154 cb 181 cb 1015,5 hPa 0,0 l/m 6,4 km/h (2 Bft) SO 135 0 min 0,000 mm 0,0 UV-I 0 W/m 13,3 C 18,4 C 8,0 km/h (2 Bft) 95,65 %
20.07.2019 03:45 18,4 C 15,6 C 19,4 C 19,4 C 18,3 C 72 % 50 cb 154 cb 181 cb 1015,6 hPa 0,0 l/m 6,4 km/h (2 Bft) SO 135 0 min 0,000 mm 0,0 UV-I 0 W/m 13,3 C 18,4 C 8,0 km/h (2 Bft) 91,30 %
20.07.2019 03:44 18,4 C 15,6 C 19,4 C 19,4 C 18,3 C 72 % 50 cb 154 cb 181 cb 1015,5 hPa 0,0 l/m 3,2 km/h (1 Bft) O-SO 112 0 min 0,000 mm 0,0 UV-I 0 W/m 13,3 C 18,4 C 4,8 km/h (1 Bft) 95,65 %
20.07.2019 03:43 18,5 C 15,6 C 19,4 C 19,4 C 18,3 C 72 % 50 cb 154 cb 181 cb 1015,5 hPa 0,0 l/m 3,2 km/h (1 Bft) O-SO 112 0 min 0,000 mm 0,0 UV-I 0 W/m 13,4 C 18,5 C 3,2 km/h (1 Bft) 95,65 %
20.07.2019 03:42 18,5 C 15,6 C 19,4 C 19,4 C 18,3 C 71 % 50 cb 154 cb 181 cb 1015,5 hPa 0,0 l/m 3,2 km/h (1 Bft) SO 135 0 min 0,000 mm 0,0 UV-I 0 W/m 13,1 C 18,5 C 4,8 km/h (1 Bft) 95,65 %
20.07.2019 03:41 18,6 C 15,6 C 19,4 C 19,4 C 18,3 C 72 % 50 cb 154 cb 181 cb 1015,5 hPa 0,0 l/m 3,2 km/h (1 Bft) SO 135 0 min 0,000 mm 0,0 UV-I 0 W/m 13,4 C 18,6 C 4,8 km/h (1 Bft) 100,00 %
20.07.2019 03:40 18,6 C 15,6 C 19,4 C 19,4 C 18,3 C 72 % 50 cb 153 cb 181 cb 1015,6 hPa 0,0 l/m 1,6 km/h (1 Bft) O 90 0 min 0,000 mm 0,0 UV-I 0 W/m 13,4 C 18,6 C 3,2 km/h (1 Bft) 95,65 %
20.07.2019 03:39 18,6 C 16,1 C 19,4 C 19,4 C 18,3 C 72 % 50 cb 153 cb 181 cb 1015,5 hPa 0,0 l/m 1,6 km/h (1 Bft) O-SO 112 0 min 0,000 mm 0,0 UV-I 0 W/m 13,4 C 18,6 C 3,2 km/h (1 Bft) 86,96 %
20.07.2019 03:38 18,5 C 16,1 C 19,4 C 19,4 C 18,3 C 71 % 50 cb 154 cb 181 cb 1015,6 hPa 0,0 l/m 3,2 km/h (1 Bft) O-SO 112 0 min 0,000 mm 0,0 UV-I 0 W/m 13,1 C 18,5 C 9,7 km/h (2 Bft) 100,00 %
20.07.2019 03:37 18,6 C 16,1 C 19,4 C 19,4 C 18,3 C 72 % 50 cb 153 cb 181 cb 1015,6 hPa 0,0 l/m 9,7 km/h (2 Bft) O-SO 112 0 min 0,000 mm 0,0 UV-I 0 W/m 13,4 C 17,2 C 11,3 km/h (2 Bft) 91,30 %
20.07.2019 03:36 18,6 C 16,1 C 19,4 C 19,4 C 18,3 C 72 % 50 cb 154 cb 181 cb 1015,6 hPa 0,0 l/m 9,7 km/h (2 Bft) O-SO 112 0 min 0,000 mm 0,0 UV-I 0 W/m 13,4 C 17,2 C 12,9 km/h (3 Bft) 95,65 %
20.07.2019 03:35 18,6 C 16,1 C 19,4 C 19,4 C 18,3 C 71 % 50 cb 154 cb 181 cb 1015,5 hPa 0,0 l/m 9,7 km/h (2 Bft) O-SO 112 0 min 0,000 mm 0,0 UV-I 0 W/m 13,2 C 17,2 C 12,9 km/h (3 Bft) 100,00 %
20.07.2019 03:34 18,6 C 16,1 C 19,4 C 19,4 C 18,3 C 71 % 50 cb 153 cb 181 cb 1015,6 hPa 0,0 l/m 8,0 km/h (2 Bft) O-SO 112 0 min 0,000 mm 0,0 UV-I 0 W/m 13,2 C 17,9 C 11,3 km/h (2 Bft) 95,65 %
20.07.2019 03:33 18,6 C 16,1 C 19,4 C 19,4 C 18,3 C 71 % 50 cb 153 cb 181 cb 1015,5 hPa 0,0 l/m 9,7 km/h (2 Bft) SO 135 0 min 0,000 mm 0,0 UV-I 0 W/m 13,2 C 17,2 C 12,9 km/h (3 Bft) 91,30 %
20.07.2019 03:32 18,6 C 16,1 C 19,4 C 19,4 C 18,3 C 71 % 50 cb 153 cb 181 cb 1015,5 hPa 0,0 l/m 11,3 km/h (2 Bft) SO 135 0 min 0,000 mm 0,0 UV-I 0 W/m 13,2 C 16,6 C 12,9 km/h (3 Bft) 100,00 %
20.07.2019 03:31 18,7 C 16,1 C 19,4 C 19,4 C 18,3 C 71 % 50 cb 153 cb 181 cb 1015,6 hPa 0,0 l/m 9,7 km/h (2 Bft) SO 135 0 min 0,000 mm 0,0 UV-I 0 W/m 13,3 C 17,3 C 14,5 km/h (3 Bft) 95,65 %
20.07.2019 03:30 18,6 C 16,1 C 19,4 C 19,4 C 18,3 C 71 % 50 cb 153 cb 181 cb 1015,6 hPa 0,0 l/m 11,3 km/h (2 Bft) SO 135 0 min 0,000 mm 0,0 UV-I 0 W/m 13,2 C 16,6 C 14,5 km/h (3 Bft) 95,65 %
20.07.2019 03:29 18,7 C 16,1 C 19,4 C 19,4 C 18,3 C 71 % 50 cb 154 cb 181 cb 1015,5 hPa 0,0 l/m 12,9 km/h (3 Bft) SO 135 0 min 0,000 mm 0,0 UV-I 0 W/m 13,3 C 16,3 C 17,7 km/h (3 Bft) 95,65 %
20.07.2019 03:28 18,7 C 16,1 C 19,4 C 19,4 C 18,3 C 71 % 50 cb 154 cb 181 cb 1015,6 hPa 0,0 l/m 9,7 km/h (2 Bft) SO 135 0 min 0,000 mm 0,0 UV-I 0 W/m 13,3 C 17,3 C 14,5 km/h (3 Bft) 95,65 %
20.07.2019 03:27 18,6 C 16,1 C 19,4 C 19,4 C 18,3 C 71 % 50 cb 154 cb 181 cb 1015,5 hPa 0,0 l/m 9,7 km/h (2 Bft) SO 135 0 min 0,000 mm 0,0 UV-I 0 W/m 13,2 C 17,2 C 12,9 km/h (3 Bft) 91,30 %
20.07.2019 03:26 18,6 C 16,1 C 19,4 C 19,4 C 18,3 C 71 % 50 cb 153 cb 181 cb 1015,6 hPa 0,0 l/m 11,3 km/h (2 Bft) SO 135 0 min 0,000 mm 0,0 UV-I 0 W/m 13,2 C 16,6 C 14,5 km/h (3 Bft) 100,00 %
20.07.2019 03:25 18,6 C 16,1 C 19,4 C 19,4 C 18,3 C 71 % 50 cb 153 cb 181 cb 1015,6 hPa 0,0 l/m 11,3 km/h (2 Bft) SO 135 0 min 0,000 mm 0,0 UV-I 0 W/m 13,2 C 16,6 C 16,1 km/h (3 Bft) 91,30 %
20.07.2019 03:24 18,6 C 16,1 C 19,4 C 19,4 C 18,3 C 71 % 50 cb 153 cb 181 cb 1015,6 hPa 0,0 l/m 9,7 km/h (2 Bft) SO 135 0 min 0,000 mm 0,0 UV-I 0 W/m 13,2 C 17,2 C 16,1 km/h (3 Bft) 91,30 %
20.07.2019 03:23 18,6 C 16,1 C 19,4 C 19,4 C 18,3 C 71 % 50 cb 154 cb 181 cb 1015,6 hPa 0,0 l/m 11,3 km/h (2 Bft) SO 135 0 min 0,000 mm 0,0 UV-I 0 W/m 13,2 C 16,6 C 14,5 km/h (3 Bft) 100,00 %
20.07.2019 03:22 18,6 C 16,1 C 19,4 C 19,4 C 18,3 C 71 % 50 cb 153 cb 181 cb 1015,6 hPa 0,0 l/m 9,7 km/h (2 Bft) O-NO 67 0 min 0,000 mm 0,0 UV-I 0 W/m 13,2 C 17,2 C 12,9 km/h (3 Bft) 95,65 %
20.07.2019 03:21 18,6 C 16,1 C 19,4 C 19,4 C 18,3 C 71 % 50 cb 153 cb 181 cb 1015,6 hPa 0,0 l/m 9,7 km/h (2 Bft) O-NO 67 0 min 0,000 mm 0,0 UV-I 0 W/m 13,2 C 17,2 C 9,7 km/h (2 Bft) 91,30 %
20.07.2019 03:20 18,6 C 16,1 C 19,4 C 19,4 C 18,3 C 71 % 50 cb 153 cb 181 cb 1015,6 hPa 0,0 l/m 11,3 km/h (2 Bft) N-NO 22 0 min 0,000 mm 0,0 UV-I 0 W/m 13,2 C 16,6 C 16,1 km/h (3 Bft) 95,65 %
20.07.2019 03:19 18,7 C 16,1 C 19,4 C 19,4 C 18,3 C 71 % 50 cb 153 cb 181 cb 1015,7 hPa 0,0 l/m 8,0 km/h (2 Bft) N-NO 22 0 min 0,000 mm 0,0 UV-I 0 W/m 13,3 C 18,0 C 12,9 km/h (3 Bft) 100,00 %
20.07.2019 03:18 18,8 C 16,1 C 19,4 C 19,4 C 18,3 C 71 % 50 cb 153 cb 181 cb 1015,8 hPa 0,0 l/m 8,0 km/h (2 Bft) N-NO 22 0 min 0,000 mm 0,0 UV-I 0 W/m 13,4 C 18,1 C 11,3 km/h (2 Bft) 86,96 %
20.07.2019 03:17 18,8 C 16,1 C 19,4 C 19,4 C 18,3 C 70 % 50 cb 153 cb 181 cb 1015,8 hPa 0,0 l/m 6,4 km/h (2 Bft) N-NO 22 0 min 0,000 mm 0,0 UV-I 0 W/m 13,2 C 18,8 C 8,0 km/h (2 Bft) 91,30 %
20.07.2019 03:16 18,8 C 16,1 C 19,4 C 19,4 C 18,3 C 70 % 50 cb 154 cb 181 cb 1015,8 hPa 0,0 l/m 8,0 km/h (2 Bft) N-NO 22 0 min 0,000 mm 0,0 UV-I 0 W/m 13,2 C 18,1 C 11,3 km/h (2 Bft) 95,65 %
20.07.2019 03:15 18,9 C 16,1 C 19,4 C 19,4 C 18,3 C 70 % 50 cb 153 cb 181 cb 1015,7 hPa 0,0 l/m 8,0 km/h (2 Bft) N-NO 22 0 min 0,000 mm 0,0 UV-I 0 W/m 13,3 C 18,2 C 8,0 km/h (2 Bft) 95,65 %
20.07.2019 03:14 18,9 C 16,1 C 19,4 C 19,4 C 18,3 C 70 % 50 cb 153 cb 181 cb 1015,8 hPa 0,0 l/m 4,8 km/h (1 Bft) N-NO 22 0 min 0,000 mm 0,0 UV-I 0 W/m 13,3 C 18,9 C 6,4 km/h (2 Bft) 95,65 %
20.07.2019 03:13 18,9 C 16,1 C 19,4 C 19,4 C 18,3 C 70 % 50 cb 153 cb 181 cb 1015,8 hPa 0,0 l/m 3,2 km/h (1 Bft) N-NO 22 0 min 0,000 mm 0,0 UV-I 0 W/m 13,3 C 18,9 C 6,4 km/h (2 Bft) 95,65 %
20.07.2019 03:12 18,9 C 16,1 C 19,4 C 19,4 C 18,3 C 70 % 50 cb 153 cb 181 cb 1015,8 hPa 0,0 l/m 4,8 km/h (1 Bft) N-NO 22 0 min 0,000 mm 0,0 UV-I 0 W/m 13,3 C 18,9 C 6,4 km/h (2 Bft) 95,65 %
20.07.2019 03:11 18,9 C 16,1 C 19,4 C 19,4 C 18,3 C 70 % 50 cb 153 cb 181 cb 1015,8 hPa 0,0 l/m 3,2 km/h (1 Bft) N 360 0 min 0,000 mm 0,0 UV-I 0 W/m 13,3 C 18,9 C 3,2 km/h (1 Bft) 86,96 %
20.07.2019 03:10 18,9 C 16,1 C 19,4 C 19,4 C 18,3 C 70 % 50 cb 153 cb 181 cb 1015,9 hPa 0,0 l/m 0,0 km/h (0 Bft) N 360 0 min 0,000 mm 0,0 UV-I 0 W/m 13,3 C 18,9 C 1,6 km/h (1 Bft) 91,30 %
20.07.2019 03:09 19,0 C 16,1 C 19,4 C 19,4 C 18,3 C 70 % 50 cb 153 cb 181 cb 1015,8 hPa 0,0 l/m 1,6 km/h (1 Bft) N 360 0 min 0,000 mm 0,0 UV-I 0 W/m 13,4 C 19,0 C 3,2 km/h (1 Bft) 95,65 %
20.07.2019 03:08 19,0 C 16,1 C 19,4 C 19,4 C 18,3 C 70 % 50 cb 153 cb 181 cb 1015,9 hPa 0,0 l/m 1,6 km/h (1 Bft) N 360 0 min 0,000 mm 0,0 UV-I 0 W/m 13,4 C 19,0 C 3,2 km/h (1 Bft) 95,65 %
20.07.2019 03:07 19,1 C 16,1 C 19,4 C 19,4 C 18,3 C 70 % 50 cb 153 cb 181 cb 1015,9 hPa 0,0 l/m 1,6 km/h (1 Bft) O 90 0 min 0,000 mm 0,0 UV-I 0 W/m 13,5 C 19,1 C 4,8 km/h (1 Bft) 100,00 %
20.07.2019 03:06 19,2 C 16,1 C 19,4 C 19,4 C 18,3 C 69 % 50 cb 153 cb 181 cb 1015,9 hPa 0,0 l/m 3,2 km/h (1 Bft) O 90 0 min 0,000 mm 0,0 UV-I 0 W/m 13,4 C 19,2 C 6,4 km/h (2 Bft) 95,65 %
20.07.2019 03:05 19,2 C 16,1 C 19,4 C 19,4 C 18,3 C 69 % 50 cb 153 cb 181 cb 1015,8 hPa 0,0 l/m 4,8 km/h (1 Bft) O-SO 112 0 min 0,000 mm 0,0 UV-I 0 W/m 13,4 C 19,2 C 6,4 km/h (2 Bft) 95,65 %
20.07.2019 03:04 19,2 C 16,1 C 19,4 C 19,4 C 18,3 C 69 % 50 cb 153 cb 181 cb 1015,8 hPa 0,0 l/m 6,4 km/h (2 Bft) O 90 0 min 0,000 mm 0,0 UV-I 0 W/m 13,4 C 19,2 C 11,3 km/h (2 Bft) 95,65 %
20.07.2019 03:03 19,2 C 16,1 C 19,4 C 19,4 C 18,3 C 69 % 50 cb 153 cb 181 cb 1015,8 hPa 0,0 l/m 6,4 km/h (2 Bft) O-SO 112 0 min 0,000 mm 0,0 UV-I 0 W/m 13,4 C 19,2 C 9,7 km/h (2 Bft) 95,65 %
20.07.2019 03:02 19,2 C 16,1 C 19,4 C 19,4 C 18,3 C 69 % 50 cb 153 cb 181 cb 1015,7 hPa 0,0 l/m 6,4 km/h (2 Bft) O-SO 112 0 min 0,000 mm 0,0 UV-I 0 W/m 13,4 C 19,2 C 11,3 km/h (2 Bft) 95,65 %
20.07.2019 03:01 19,2 C 16,1 C 19,4 C 19,4 C 18,3 C 69 % 50 cb 153 cb 181 cb 1015,8 hPa 0,0 l/m 9,7 km/h (2 Bft) O-SO 112 0 min 0,000 mm 0,0 UV-I 0 W/m 13,4 C 17,9 C 11,3 km/h (2 Bft) 95,65 %
20.07.2019 03:00 19,2 C 16,7 C 19,4 C 19,4 C 18,3 C 69 % 50 cb 153 cb 181 cb 1015,7 hPa 0,0 l/m 9,7 km/h (2 Bft) SO 135 0 min 0,051 mm 0,0 UV-I 0 W/m 13,4 C 17,9 C 14,5 km/h (3 Bft) 95,65 %
20.07.2019 02:59 19,3 C 16,7 C 19,4 C 19,4 C 18,3 C 69 % 50 cb 153 cb 181 cb 1015,8 hPa 0,0 l/m 11,3 km/h (2 Bft) SO 135 0 min 0,000 mm 0,0 UV-I 0 W/m 13,5 C 17,4 C 20,9 km/h (4 Bft) 91,30 %
20.07.2019 02:58 19,3 C 16,7 C 19,4 C 19,4 C 18,3 C 69 % 50 cb 153 cb 181 cb 1015,7 hPa 0,0 l/m 16,1 km/h (3 Bft) O-SO 112 0 min 0,000 mm 0,0 UV-I 0 W/m 13,5 C 16,1 C 20,9 km/h (4 Bft) 95,65 %
20.07.2019 02:57 19,3 C 16,7 C 19,4 C 19,4 C 18,3 C 69 % 50 cb 153 cb 181 cb 1015,7 hPa 0,0 l/m 12,9 km/h (3 Bft) SO 135 0 min 0,000 mm 0,0 UV-I 0 W/m 13,5 C 17,0 C 16,1 km/h (3 Bft) 95,65 %
20.07.2019 02:56 19,3 C 16,7 C 19,4 C 19,4 C 18,3 C 68 % 50 cb 153 cb 181 cb 1015,7 hPa 0,0 l/m 12,9 km/h (3 Bft) SO 135 0 min 0,000 mm 0,0 UV-I 0 W/m 13,2 C 17,0 C 19,3 km/h (3 Bft) 95,65 %
20.07.2019 02:55 19,3 C 16,7 C 19,4 C 19,4 C 18,3 C 69 % 50 cb 153 cb 181 cb 1015,7 hPa 0,0 l/m 12,9 km/h (3 Bft) SO 135 0 min 0,000 mm 0,0 UV-I 0 W/m 13,5 C 17,0 C 16,1 km/h (3 Bft) 95,65 %
20.07.2019 02:54 19,3 C 16,7 C 19,4 C 19,4 C 18,3 C 68 % 50 cb 153 cb 181 cb 1015,8 hPa 0,0 l/m 12,9 km/h (3 Bft) SO 135 0 min 0,000 mm 0,0 UV-I 0 W/m 13,2 C 17,0 C 16,1 km/h (3 Bft) 95,65 %
20.07.2019 02:53 19,3 C 16,7 C 19,4 C 19,4 C 18,3 C 68 % 50 cb 153 cb 181 cb 1015,7 hPa 0,0 l/m 12,9 km/h (3 Bft) SO 135 0 min 0,000 mm 0,0 UV-I 0 W/m 13,2 C 17,0 C 14,5 km/h (3 Bft) 95,65 %
20.07.2019 02:52 19,4 C 16,7 C 19,4 C 19,4 C 18,3 C 68 % 50 cb 153 cb 181 cb 1015,7 hPa 0,0 l/m 14,5 km/h (3 Bft) SO 135 0 min 0,000 mm 0,0 UV-I 0 W/m 13,3 C 16,6 C 19,3 km/h (3 Bft) 100,00 %
20.07.2019 02:51 19,4 C 16,7 C 19,4 C 19,4 C 18,3 C 68 % 50 cb 153 cb 181 cb 1015,7 hPa 0,0 l/m 12,9 km/h (3 Bft) SO 135 0 min 0,000 mm 0,0 UV-I 0 W/m 13,3 C 17,1 C 16,1 km/h (3 Bft) 95,65 %
20.07.2019 02:50 19,4 C 16,7 C 19,4 C 19,4 C 18,3 C 68 % 50 cb 153 cb 181 cb 1015,7 hPa 0,0 l/m 12,9 km/h (3 Bft) SO 135 0 min 0,000 mm 0,0 UV-I 0 W/m 13,3 C 17,1 C 16,1 km/h (3 Bft) 95,65 %
20.07.2019 02:49 19,4 C 16,7 C 19,4 C 19,4 C 18,3 C 68 % 50 cb 153 cb 181 cb 1015,7 hPa 0,0 l/m 12,9 km/h (3 Bft) SO 135 0 min 0,000 mm 0,0 UV-I 0 W/m 13,3 C 17,1 C 17,7 km/h (3 Bft) 95,65 %
20.07.2019 02:48 19,4 C 16,7 C 19,4 C 19,4 C 18,3 C 68 % 50 cb 153 cb 181 cb 1015,7 hPa 0,0 l/m 14,5 km/h (3 Bft) O-SO 112 0 min 0,000 mm 0,0 UV-I 0 W/m 13,3 C 16,6 C 19,3 km/h (3 Bft) 95,65 %
20.07.2019 02:47 19,4 C 16,7 C 19,4 C 19,4 C 18,3 C 68 % 50 cb 153 cb 181 cb 1015,8 hPa 0,0 l/m 14,5 km/h (3 Bft) SO 135 0 min 0,000 mm 0,0 UV-I 0 W/m 13,3 C 16,6 C 19,3 km/h (3 Bft) 95,65 %
20.07.2019 02:46 19,4 C 16,7 C 19,4 C 19,4 C 18,3 C 68 % 50 cb 153 cb 181 cb 1015,7 hPa 0,0 l/m 14,5 km/h (3 Bft) SO 135 0 min 0,000 mm 0,0 UV-I 0 W/m 13,3 C 16,6 C 19,3 km/h (3 Bft) 100,00 %
20.07.2019 02:45 19,4 C 16,7 C 19,4 C 19,4 C 18,3 C 68 % 50 cb 153 cb 181 cb 1015,7 hPa 0,0 l/m 14,5 km/h (3 Bft) SO 135 0 min 0,000 mm 0,0 UV-I 0 W/m 13,3 C 16,6 C 17,7 km/h (3 Bft) 91,30 %
20.07.2019 02:44 19,4 C 16,7 C 19,4 C 19,4 C 18,3 C 68 % 50 cb 153 cb 181 cb 1015,7 hPa 0,0 l/m 14,5 km/h (3 Bft) SO 135 0 min 0,000 mm 0,0 UV-I 0 W/m 13,3 C 16,6 C 16,1 km/h (3 Bft) 95,65 %
20.07.2019 02:43 19,3 C 16,7 C 19,4 C 19,4 C 18,3 C 68 % 50 cb 153 cb 181 cb 1015,7 hPa 0,0 l/m 11,3 km/h (2 Bft) O-SO 112 0 min 0,000 mm 0,0 UV-I 0 W/m 13,2 C 17,4 C 12,9 km/h (3 Bft) 95,65 %
20.07.2019 02:42 19,3 C 16,7 C 19,4 C 19,4 C 18,3 C 68 % 50 cb 153 cb 181 cb 1015,7 hPa 0,0 l/m 14,5 km/h (3 Bft) SO 135 0 min 0,000 mm 0,0 UV-I 0 W/m 13,2 C 16,5 C 17,7 km/h (3 Bft) 91,30 %
20.07.2019 02:41 19,3 C 16,7 C 19,4 C 19,4 C 18,3 C 69 % 50 cb 153 cb 181 cb 1015,7 hPa 0,0 l/m 12,9 km/h (3 Bft) SO 135 0 min 0,000 mm 0,0 UV-I 0 W/m 13,5 C 17,0 C 16,1 km/h (3 Bft) 95,65 %
20.07.2019 02:40 19,3 C 16,7 C 19,4 C 19,4 C 18,3 C 69 % 50 cb 153 cb 181 cb 1015,7 hPa 0,0 l/m 14,5 km/h (3 Bft) SO 135 0 min 0,000 mm 0,0 UV-I 0 W/m 13,5 C 16,5 C 17,7 km/h (3 Bft) 91,30 %
20.07.2019 02:39 19,3 C 16,1 C 19,4 C 19,4 C 18,3 C 68 % 50 cb 153 cb 181 cb 1015,7 hPa 0,0 l/m 11,3 km/h (2 Bft) SO 135 0 min 0,000 mm 0,0 UV-I 0 W/m 13,2 C 17,4 C 19,3 km/h (3 Bft) 91,30 %
20.07.2019 02:38 19,3 C 16,1 C 19,4 C 19,4 C 18,3 C 68 % 50 cb 153 cb 181 cb 1015,7 hPa 0,0 l/m 14,5 km/h (3 Bft) SO 135 0 min 0,000 mm 0,0 UV-I 0 W/m 13,2 C 16,5 C 19,3 km/h (3 Bft) 95,65 %
20.07.2019 02:37 19,3 C 16,1 C 19,4 C 19,4 C 18,3 C 68 % 50 cb 153 cb 181 cb 1015,7 hPa 0,0 l/m 12,9 km/h (3 Bft) SO 135 0 min 0,000 mm 0,0 UV-I 0 W/m 13,2 C 17,0 C 16,1 km/h (3 Bft) 100,00 %
20.07.2019 02:36 19,3 C 16,1 C 19,4 C 19,4 C 18,3 C 68 % 50 cb 153 cb 181 cb 1015,8 hPa 0,0 l/m 9,7 km/h (2 Bft) O-SO 112 0 min 0,000 mm 0,0 UV-I 0 W/m 13,2 C 18,0 C 16,1 km/h (3 Bft) 95,65 %
20.07.2019 02:35 19,4 C 16,1 C 19,4 C 19,4 C 18,3 C 68 % 50 cb 153 cb 181 cb 1015,8 hPa 0,0 l/m 11,3 km/h (2 Bft) SO 135 0 min 0,000 mm 0,0 UV-I 0 W/m 13,3 C 17,6 C 14,5 km/h (3 Bft) 95,65 %
20.07.2019 02:34 19,4 C 16,1 C 19,4 C 19,4 C 18,3 C 68 % 50 cb 153 cb 181 cb 1015,8 hPa 0,0 l/m 11,3 km/h (2 Bft) O-SO 112 0 min 0,000 mm 0,0 UV-I 0 W/m 13,3 C 17,6 C 16,1 km/h (3 Bft) 100,00 %
20.07.2019 02:33 19,4 C 16,1 C 19,4 C 19,4 C 18,3 C 68 % 50 cb 153 cb 181 cb 1015,6 hPa 0,0 l/m 9,7 km/h (2 Bft) O-SO 112 0 min 0,000 mm 0,0 UV-I 0 W/m 13,3 C 18,1 C 12,9 km/h (3 Bft) 95,65 %
20.07.2019 02:32 19,5 C 16,1 C 19,4 C 19,4 C 18,3 C 68 % 50 cb 153 cb 181 cb 1015,8 hPa 0,0 l/m 8,0 km/h (2 Bft) SO 135 0 min 0,000 mm 0,0 UV-I 0 W/m 13,4 C 18,8 C 14,5 km/h (3 Bft) 86,96 %
20.07.2019 02:31 19,5 C 16,1 C 19,4 C 19,4 C 18,3 C 68 % 50 cb 153 cb 181 cb 1015,8 hPa 0,0 l/m 8,0 km/h (2 Bft) O-SO 112 0 min 0,000 mm 0,0 UV-I 0 W/m 13,4 C 18,8 C 11,3 km/h (2 Bft) 95,65 %
20.07.2019 02:30 19,5 C 16,1 C 19,4 C 19,4 C 18,3 C 68 % 50 cb 153 cb 181 cb 1015,8 hPa 0,0 l/m 4,8 km/h (1 Bft) O 90 0 min 0,000 mm 0,0 UV-I 0 W/m 13,4 C 19,5 C 6,4 km/h (2 Bft) 100,00 %
20.07.2019 02:29 19,5 C 16,1 C 19,4 C 19,4 C 18,3 C 68 % 50 cb 153 cb 181 cb 1015,8 hPa 0,0 l/m 3,2 km/h (1 Bft) O-SO 112 0 min 0,000 mm 0,0 UV-I 0 W/m 13,4 C 19,5 C 6,4 km/h (2 Bft) 91,30 %
20.07.2019 02:28 19,5 C 16,1 C 19,4 C 19,4 C 18,3 C 68 % 50 cb 153 cb 181 cb 1015,9 hPa 0,0 l/m 4,8 km/h (1 Bft) O-SO 112 0 min 0,000 mm 0,0 UV-I 0 W/m 13,4 C 19,5 C 6,4 km/h (2 Bft) 95,65 %
20.07.2019 02:27 19,4 C 16,1 C 19,4 C 19,4 C 18,3 C 68 % 50 cb 153 cb 181 cb 1015,8 hPa 0,0 l/m 4,8 km/h (1 Bft) O 90 0 min 0,000 mm 0,0 UV-I 0 W/m 13,3 C 19,4 C 6,4 km/h (2 Bft) 100,00 %
20.07.2019 02:26 19,4 C 15,6 C 19,4 C 19,4 C 18,3 C 68 % 50 cb 153 cb 181 cb 1015,9 hPa 0,0 l/m 3,2 km/h (1 Bft) O 90 0 min 0,000 mm 0,0 UV-I 0 W/m 13,3 C 19,4 C 3,2 km/h (1 Bft) 91,30 %
20.07.2019 02:25 19,4 C 15,6 C 19,4 C 19,4 C 18,3 C 68 % 50 cb 153 cb 181 cb 1015,9 hPa 0,0 l/m 3,2 km/h (1 Bft) O 90 0 min 0,000 mm 0,0 UV-I 0 W/m 13,3 C 19,4 C 4,8 km/h (1 Bft) 95,65 %
20.07.2019 02:24 19,4 C 15,6 C 19,4 C 19,4 C 18,3 C 68 % 50 cb 153 cb 181 cb 1015,8 hPa 0,0 l/m 3,2 km/h (1 Bft) O 90 0 min 0,000 mm 0,0 UV-I 0 W/m 13,3 C 19,4 C 4,8 km/h (1 Bft) 100,00 %
20.07.2019 02:23 19,3 C 15,6 C 19,4 C 19,4 C 18,3 C 68 % 50 cb 153 cb 181 cb 1015,9 hPa 0,0 l/m 3,2 km/h (1 Bft) O 90 0 min 0,000 mm 0,0 UV-I 0 W/m 13,2 C 19,3 C 6,4 km/h (2 Bft) 95,65 %
20.07.2019 02:22 19,3 C 15,6 C 19,4 C 19,4 C 18,3 C 68 % 50 cb 153 cb 182 cb 1015,8 hPa 0,0 l/m 4,8 km/h (1 Bft) O 90 0 min 0,000 mm 0,0 UV-I 0 W/m 13,2 C 19,3 C 6,4 km/h (2 Bft) 95,65 %
20.07.2019 02:21 19,4 C 15,6 C 19,4 C 19,4 C 18,3 C 68 % 50 cb 153 cb 182 cb 1015,8 hPa 0,0 l/m 3,2 km/h (1 Bft) O 90 0 min 0,000 mm 0,0 UV-I 0 W/m 13,3 C 19,4 C 6,4 km/h (2 Bft) 100,00 %
20.07.2019 02:20 19,4 C 15,6 C 19,4 C 19,4 C 18,3 C 68 % 50 cb 153 cb 181 cb 1015,9 hPa 0,0 l/m 3,2 km/h (1 Bft) O 90 0 min 0,000 mm 0,0 UV-I 0 W/m 13,3 C 19,4 C 4,8 km/h (1 Bft) 95,65 %
20.07.2019 02:19 19,4 C 16,1 C 19,4 C 19,4 C 18,3 C 68 % 49 cb 153 cb 181 cb 1015,8 hPa 0,0 l/m 3,2 km/h (1 Bft) NO 45 0 min 0,000 mm 0,0 UV-I 0 W/m 13,3 C 19,4 C 4,8 km/h (1 Bft) 95,65 %
20.07.2019 02:18 19,4 C 16,1 C 19,4 C 19,4 C 18,3 C 68 % 49 cb 153 cb 181 cb 1015,9 hPa 0,0 l/m 4,8 km/h (1 Bft) N-NO 22 0 min 0,000 mm 0,0 UV-I 0 W/m 13,3 C 19,4 C 6,4 km/h (2 Bft) 100,00 %
20.07.2019 02:17 19,4 C 16,1 C 19,4 C 19,4 C 18,3 C 68 % 49 cb 153 cb 182 cb 1015,9 hPa 0,0 l/m 3,2 km/h (1 Bft) O-NO 67 0 min 0,000 mm 0,0 UV-I 0 W/m 13,3 C 19,4 C 4,8 km/h (1 Bft) 95,65 %
20.07.2019 02:16 19,4 C 16,1 C 19,4 C 19,4 C 18,3 C 68 % 49 cb 153 cb 182 cb 1015,8 hPa 0,0 l/m 3,2 km/h (1 Bft) O 90 0 min 0,000 mm 0,0 UV-I 0 W/m 13,3 C 19,4 C 3,2 km/h (1 Bft) 91,30 %
20.07.2019 02:15 19,4 C 16,1 C 19,4 C 19,4 C 18,3 C 68 % 49 cb 153 cb 182 cb 1015,8 hPa 0,0 l/m 3,2 km/h (1 Bft) O 90 0 min 0,000 mm 0,0 UV-I 0 W/m 13,3 C 19,4 C 3,2 km/h (1 Bft) 100,00 %
20.07.2019 02:14 19,4 C 16,1 C 19,4 C 19,4 C 18,3 C 68 % 49 cb 153 cb 182 cb 1015,8 hPa 0,0 l/m 3,2 km/h (1 Bft) NO 45 0 min 0,000 mm 0,0 UV-I 0 W/m 13,3 C 19,4 C 4,8 km/h (1 Bft) 95,65 %
20.07.2019 02:13 19,4 C 16,1 C 19,4 C 19,4 C 18,3 C 68 % 49 cb 153 cb 182 cb 1015,8 hPa 0,0 l/m 3,2 km/h (1 Bft) NO 45 0 min 0,000 mm 0,0 UV-I 0 W/m 13,3 C 19,4 C 3,2 km/h (1 Bft) 95,65 %
20.07.2019 02:12 19,5 C 16,1 C 19,4 C 19,4 C 18,3 C 68 % 49 cb 153 cb 182 cb 1015,8 hPa 0,0 l/m 3,2 km/h (1 Bft) O 90 0 min 0,000 mm 0,0 UV-I 0 W/m 13,4 C 19,5 C 3,2 km/h (1 Bft) 95,65 %
20.07.2019 02:11 19,5 C 16,1 C 19,4 C 19,4 C 18,3 C 67 % 49 cb 153 cb 182 cb 1015,8 hPa 0,0 l/m 1,6 km/h (1 Bft) O 90 0 min 0,000 mm 0,0 UV-I 0 W/m 13,2 C 19,5 C 3,2 km/h (1 Bft) 95,65 %
20.07.2019 02:10 19,6 C 16,1 C 19,4 C 19,4 C 18,3 C 67 % 49 cb 153 cb 182 cb 1015,8 hPa 0,0 l/m 3,2 km/h (1 Bft) O 90 0 min 0,000 mm 0,0 UV-I 0 W/m 13,3 C 19,6 C 4,8 km/h (1 Bft) 95,65 %
20.07.2019 02:09 19,6 C 16,7 C 19,4 C 19,4 C 18,3 C 67 % 49 cb 153 cb 182 cb 1015,8 hPa 0,0 l/m 3,2 km/h (1 Bft) O-SO 112 0 min 0,000 mm 0,0 UV-I 0 W/m 13,3 C 19,6 C 4,8 km/h (1 Bft) 100,00 %
20.07.2019 02:08 19,7 C 16,7 C 19,4 C 19,4 C 18,3 C 66 % 49 cb 153 cb 182 cb 1015,8 hPa 0,0 l/m 4,8 km/h (1 Bft) O-SO 112 0 min 0,000 mm 0,0 UV-I 0 W/m 13,2 C 19,7 C 6,4 km/h (2 Bft) 95,65 %
20.07.2019 02:07 19,7 C 16,7 C 19,4 C 19,4 C 18,3 C 66 % 49 cb 153 cb 182 cb 1015,8 hPa 0,0 l/m 6,4 km/h (2 Bft) O-SO 112 0 min 0,000 mm 0,0 UV-I 0 W/m 13,2 C 19,7 C 11,3 km/h (2 Bft) 91,30 %
20.07.2019 02:06 19,7 C 16,7 C 19,4 C 19,4 C 18,3 C 66 % 49 cb 153 cb 182 cb 1015,8 hPa 0,0 l/m 3,2 km/h (1 Bft) O-SO 112 0 min 0,000 mm 0,0 UV-I 0 W/m 13,2 C 19,7 C 4,8 km/h (1 Bft) 100,00 %
20.07.2019 02:05 19,7 C 16,7 C 19,4 C 19,4 C 18,3 C 66 % 49 cb 153 cb 182 cb 1015,8 hPa 0,0 l/m 3,2 km/h (1 Bft) O-SO 112 0 min 0,000 mm 0,0 UV-I 0 W/m 13,2 C 19,7 C 4,8 km/h (1 Bft) 95,65 %
20.07.2019 02:04 19,7 C 16,7 C 19,4 C 19,4 C 18,3 C 66 % 49 cb 153 cb 182 cb 1015,7 hPa 0,0 l/m 4,8 km/h (1 Bft) O 90 0 min 0,000 mm 0,0 UV-I 0 W/m 13,2 C 19,7 C 4,8 km/h (1 Bft) 86,96 %
20.07.2019 02:03 19,7 C 16,7 C 19,4 C 19,4 C 18,3 C 66 % 49 cb 153 cb 182 cb 1015,8 hPa 0,0 l/m 3,2 km/h (1 Bft) O-SO 112 0 min 0,000 mm 0,0 UV-I 0 W/m 13,2 C 19,7 C 4,8 km/h (1 Bft) 100,00 %
20.07.2019 02:02 19,7 C 16,7 C 19,4 C 19,4 C 18,3 C 66 % 49 cb 153 cb 182 cb 1015,8 hPa 0,0 l/m 3,2 km/h (1 Bft) O-SO 112 0 min 0,000 mm 0,0 UV-I 0 W/m 13,2 C 19,7 C 3,2 km/h (1 Bft) 95,65 %
20.07.2019 02:01 19,7 C 16,7 C 19,4 C 19,4 C 18,3 C 66 % 49 cb 153 cb 182 cb 1015,7 hPa 0,0 l/m 3,2 km/h (1 Bft) O-SO 112 0 min 0,000 mm 0,0 UV-I 0 W/m 13,2 C 19,7 C 4,8 km/h (1 Bft) 95,65 %
20.07.2019 02:00 19,7 C 16,7 C 19,4 C 19,4 C 18,3 C 66 % 49 cb 153 cb 182 cb 1015,8 hPa 0,0 l/m 6,4 km/h (2 Bft) SO 135 0 min 0,051 mm 0,0 UV-I 0 W/m 13,2 C 19,7 C 11,3 km/h (2 Bft) 100,00 %
20.07.2019 01:59 19,7 C 16,7 C 19,4 C 19,4 C 18,3 C 66 % 49 cb 153 cb 182 cb 1015,8 hPa 0,0 l/m 4,8 km/h (1 Bft) O-SO 112 0 min 0,000 mm 0,0 UV-I 0 W/m 13,2 C 19,7 C 9,7 km/h (2 Bft) 95,65 %
20.07.2019 01:58 19,8 C 16,7 C 19,4 C 19,4 C 18,3 C 66 % 49 cb 153 cb 182 cb 1015,7 hPa 0,0 l/m 4,8 km/h (1 Bft) O-SO 112 0 min 0,000 mm 0,0 UV-I 0 W/m 13,3 C 19,8 C 9,7 km/h (2 Bft) 95,65 %
20.07.2019 01:57 19,8 C 16,7 C 19,4 C 19,4 C 18,3 C 66 % 49 cb 153 cb 182 cb 1015,9 hPa 0,0 l/m 3,2 km/h (1 Bft) O 90 0 min 0,000 mm 0,0 UV-I 0 W/m 13,3 C 19,8 C 6,4 km/h (2 Bft) 100,00 %
20.07.2019 01:56 19,8 C 16,7 C 19,4 C 19,4 C 18,3 C 66 % 49 cb 153 cb 182 cb 1015,7 hPa 0,0 l/m 3,2 km/h (1 Bft) O 90 0 min 0,000 mm 0,0 UV-I 0 W/m 13,3 C 19,8 C 4,8 km/h (1 Bft) 91,30 %
20.07.2019 01:55 19,8 C 16,7 C 19,4 C 19,4 C 18,3 C 66 % 49 cb 153 cb 182 cb 1015,8 hPa 0,0 l/m 3,2 km/h (1 Bft) O 90 0 min 0,000 mm 0,0 UV-I 0 W/m 13,3 C 19,8 C 4,8 km/h (1 Bft) 95,65 %
20.07.2019 01:54 19,8 C 16,7 C 19,4 C 19,4 C 18,3 C 66 % 49 cb 153 cb 182 cb 1015,8 hPa 0,0 l/m 4,8 km/h (1 Bft) O 90 0 min 0,000 mm 0,0 UV-I 0 W/m 13,3 C 19,8 C 9,7 km/h (2 Bft) 100,00 %
20.07.2019 01:53 19,8 C 16,7 C 19,4 C 19,4 C 18,3 C 66 % 49 cb 153 cb 182 cb 1015,8 hPa 0,0 l/m 4,8 km/h (1 Bft) O-SO 112 0 min 0,000 mm 0,0 UV-I 0 W/m 13,3 C 19,8 C 6,4 km/h (2 Bft) 95,65 %
20.07.2019 01:52 19,8 C 16,7 C 19,4 C 19,4 C 18,3 C 66 % 49 cb 153 cb 182 cb 1015,8 hPa 0,0 l/m 8,0 km/h (2 Bft) O-SO 112 0 min 0,000 mm 0,0 UV-I 0 W/m 13,3 C 19,1 C 11,3 km/h (2 Bft) 95,65 %
20.07.2019 01:51 19,8 C 16,7 C 19,4 C 19,4 C 18,3 C 66 % 49 cb 153 cb 182 cb 1015,9 hPa 0,0 l/m 4,8 km/h (1 Bft) O 90 0 min 0,000 mm 0,0 UV-I 0 W/m 13,3 C 19,8 C 6,4 km/h (2 Bft) 95,65 %
20.07.2019 01:50 19,8 C 16,7 C 19,4 C 19,4 C 18,3 C 66 % 49 cb 153 cb 182 cb 1015,8 hPa 0,0 l/m 4,8 km/h (1 Bft) O-SO 112 0 min 0,000 mm 0,0 UV-I 0 W/m 13,3 C 19,8 C 6,4 km/h (2 Bft) 95,65 %
20.07.2019 01:49 19,9 C 16,7 C 19,4 C 19,4 C 18,3 C 66 % 49 cb 153 cb 182 cb 1015,8 hPa 0,0 l/m 4,8 km/h (1 Bft) O-SO 112 0 min 0,000 mm 0,0 UV-I 0 W/m 13,4 C 19,9 C 6,4 km/h (2 Bft) 91,30 %
20.07.2019 01:48 19,8 C 16,7 C 19,4 C 19,4 C 18,3 C 66 % 49 cb 153 cb 182 cb 1015,8 hPa 0,0 l/m 8,0 km/h (2 Bft) O-SO 112 0 min 0,000 mm 0,0 UV-I 0 W/m 13,3 C 19,1 C 11,3 km/h (2 Bft) 100,00 %
20.07.2019 01:47 19,8 C 16,7 C 19,4 C 19,4 C 18,3 C 66 % 49 cb 153 cb 182 cb 1015,9 hPa 0,0 l/m 6,4 km/h (2 Bft) O-SO 112 0 min 0,000 mm 0,0 UV-I 0 W/m 13,3 C 19,8 C 11,3 km/h (2 Bft) 95,65 %
20.07.2019 01:46 19,8 C 16,7 C 19,4 C 19,4 C 18,3 C 67 % 49 cb 153 cb 182 cb 1015,8 hPa 0,0 l/m 6,4 km/h (2 Bft) O-SO 112 0 min 0,000 mm 0,0 UV-I 0 W/m 13,5 C 19,8 C 14,5 km/h (3 Bft) 91,30 %
20.07.2019 01:45 19,8 C 16,7 C 19,4 C 19,4 C 18,3 C 67 % 49 cb 153 cb 182 cb 1015,9 hPa 0,0 l/m 8,0 km/h (2 Bft) O-SO 112 0 min 0,000 mm 0,0 UV-I 0 W/m 13,5 C 19,1 C 14,5 km/h (3 Bft) 95,65 %
20.07.2019 01:44 19,8 C 16,1 C 19,4 C 19,4 C 18,3 C 67 % 49 cb 153 cb 182 cb 1015,9 hPa 0,0 l/m 8,0 km/h (2 Bft) O-SO 112 0 min 0,000 mm 0,0 UV-I 0 W/m 13,5 C 19,1 C 12,9 km/h (3 Bft) 100,00 %
20.07.2019 01:43 19,7 C 16,1 C 19,4 C 19,4 C 18,3 C 67 % 49 cb 153 cb 182 cb 1015,9 hPa 0,0 l/m 8,0 km/h (2 Bft) O-SO 112 0 min 0,000 mm 0,0 UV-I 0 W/m 13,4 C 19,0 C 12,9 km/h (3 Bft) 95,65 %
20.07.2019 01:42 19,7 C 16,1 C 19,4 C 19,4 C 18,3 C 67 % 49 cb 152 cb 182 cb 1015,8 hPa 0,0 l/m 6,4 km/h (2 Bft) O-SO 112 0 min 0,000 mm 0,0 UV-I 0 W/m 13,4 C 19,7 C 9,7 km/h (2 Bft) 95,65 %
20.07.2019 01:41 19,7 C 16,1 C 19,4 C 19,4 C 18,3 C 68 % 49 cb 152 cb 182 cb 1015,9 hPa 0,0 l/m 8,0 km/h (2 Bft) O 90 0 min 0,000 mm 0,0 UV-I 0 W/m 13,6 C 19,0 C 12,9 km/h (3 Bft) 100,00 %
20.07.2019 01:40 19,7 C 16,1 C 19,4 C 19,4 C 18,3 C 68 % 49 cb 152 cb 182 cb 1015,9 hPa 0,0 l/m 4,8 km/h (1 Bft) O-SO 112 0 min 0,000 mm 0,0 UV-I 0 W/m 13,6 C 19,7 C 11,3 km/h (2 Bft) 95,65 %
20.07.2019 01:39 19,6 C 16,1 C 19,4 C 19,4 C 18,3 C 68 % 49 cb 152 cb 182 cb 1015,9 hPa 0,0 l/m 4,8 km/h (1 Bft) O 90 0 min 0,000 mm 0,0 UV-I 0 W/m 13,5 C 19,6 C 11,3 km/h (2 Bft) 95,65 %
20.07.2019 01:38 19,6 C 15,6 C 19,4 C 19,4 C 18,3 C 68 % 49 cb 152 cb 182 cb 1015,9 hPa 0,0 l/m 4,8 km/h (1 Bft) O 90 0 min 0,000 mm 0,0 UV-I 0 W/m 13,5 C 19,6 C 6,4 km/h (2 Bft) 100,00 %
20.07.2019 01:37 19,5 C 15,6 C 19,4 C 19,4 C 18,3 C 68 % 49 cb 152 cb 182 cb 1016,0 hPa 0,0 l/m 4,8 km/h (1 Bft) O 90 0 min 0,000 mm 0,0 UV-I 0 W/m 13,4 C 19,5 C 8,0 km/h (2 Bft) 95,65 %
20.07.2019 01:36 19,4 C 15,6 C 19,4 C 19,4 C 18,3 C 69 % 49 cb 152 cb 182 cb 1016,0 hPa 0,0 l/m 4,8 km/h (1 Bft) O 90 0 min 0,000 mm 0,0 UV-I 0 W/m 13,6 C 19,4 C 6,4 km/h (2 Bft) 95,65 %
20.07.2019 01:35 19,4 C 15,6 C 19,4 C 19,4 C 18,3 C 69 % 49 cb 152 cb 182 cb 1015,9 hPa 0,0 l/m 3,2 km/h (1 Bft) O 90 0 min 0,000 mm 0,0 UV-I 0 W/m 13,6 C 19,4 C 4,8 km/h (1 Bft) 100,00 %
20.07.2019 01:34 19,3 C 15,6 C 19,4 C 19,4 C 18,3 C 70 % 49 cb 152 cb 182 cb 1016,0 hPa 0,0 l/m 3,2 km/h (1 Bft) O-NO 67 0 min 0,000 mm 0,0 UV-I 0 W/m 13,7 C 19,3 C 4,8 km/h (1 Bft) 91,30 %
20.07.2019 01:33 19,3 C 16,1 C 19,4 C 19,4 C 18,3 C 70 % 49 cb 152 cb 182 cb 1016,1 hPa 0,0 l/m 3,2 km/h (1 Bft) O-NO 67 0 min 0,000 mm 0,0 UV-I 0 W/m 13,7 C 19,3 C 4,8 km/h (1 Bft) 95,65 %
20.07.2019 01:32 19,2 C 16,1 C 19,4 C 19,4 C 18,3 C 71 % 49 cb 152 cb 182 cb 1016,0 hPa 0,0 l/m 1,6 km/h (1 Bft) N 360 0 min 0,000 mm 0,0 UV-I 0 W/m 13,8 C 19,2 C 3,2 km/h (1 Bft) 100,00 %
20.07.2019 01:31 19,2 C 16,1 C 19,4 C 19,4 C 18,3 C 71 % 49 cb 152 cb 182 cb 1016,0 hPa 0,0 l/m 3,2 km/h (1 Bft) N 360 0 min 0,000 mm 0,0 UV-I 0 W/m 13,8 C 19,2 C 3,2 km/h (1 Bft) 95,65 %
20.07.2019 01:30 19,1 C 16,1 C 19,4 C 19,4 C 18,3 C 71 % 49 cb 152 cb 182 cb 1016,0 hPa 0,0 l/m 3,2 km/h (1 Bft) N-NO 22 0 min 0,000 mm 0,0 UV-I 0 W/m 13,7 C 19,1 C 6,4 km/h (2 Bft) 95,65 %
20.07.2019 01:29 19,2 C 16,1 C 19,4 C 19,4 C 18,3 C 71 % 49 cb 152 cb 182 cb 1016,0 hPa 0,0 l/m 3,2 km/h (1 Bft) N 360 0 min 0,000 mm 0,0 UV-I 0 W/m 13,8 C 19,2 C 4,8 km/h (1 Bft) 100,00 %
20.07.2019 01:28 19,2 C 16,1 C 19,4 C 19,4 C 18,3 C 71 % 49 cb 152 cb 182 cb 1016,1 hPa 0,0 l/m 3,2 km/h (1 Bft) N 360 0 min 0,000 mm 0,0 UV-I 0 W/m 13,8 C 19,2 C 4,8 km/h (1 Bft) 95,65 %
20.07.2019 01:27 19,2 C 16,1 C 19,4 C 19,4 C 18,3 C 71 % 49 cb 152 cb 182 cb 1016,0 hPa 0,0 l/m 6,4 km/h (2 Bft) N-NO 22 0 min 0,000 mm 0,0 UV-I 0 W/m 13,8 C 19,2 C 8,0 km/h (2 Bft) 95,65 %
20.07.2019 01:26 19,3 C 16,1 C 19,4 C 19,4 C 18,3 C 71 % 49 cb 152 cb 182 cb 1016,1 hPa 0,0 l/m 4,8 km/h (1 Bft) N 360 0 min 0,000 mm 0,0 UV-I 0 W/m 13,9 C 19,3 C 6,4 km/h (2 Bft) 95,65 %
20.07.2019 01:25 19,3 C 16,1 C 19,4 C 19,4 C 18,3 C 70 % 49 cb 152 cb 182 cb 1015,9 hPa 0,0 l/m 4,8 km/h (1 Bft) N 360 0 min 0,000 mm 0,0 UV-I 0 W/m 13,7 C 19,3 C 6,4 km/h (2 Bft) 95,65 %
20.07.2019 01:24 19,4 C 16,1 C 19,4 C 19,4 C 18,3 C 70 % 49 cb 152 cb 182 cb 1016,1 hPa 0,0 l/m 6,4 km/h (2 Bft) N 360 0 min 0,000 mm 0,0 UV-I 0 W/m 13,8 C 19,4 C 6,4 km/h (2 Bft) 86,96 %
20.07.2019 01:23 19,4 C 16,1 C 19,4 C 19,4 C 18,3 C 69 % 49 cb 152 cb 182 cb 1016,0 hPa 0,0 l/m 6,4 km/h (2 Bft) N-NO 22 0 min 0,000 mm 0,0 UV-I 0 W/m 13,6 C 19,4 C 8,0 km/h (2 Bft) 95,65 %
20.07.2019 01:22 19,4 C 16,1 C 19,4 C 19,4 C 18,3 C 69 % 49 cb 152 cb 182 cb 1016,1 hPa 0,0 l/m 4,8 km/h (1 Bft) N 360 0 min 0,000 mm 0,0 UV-I 0 W/m 13,6 C 19,4 C 8,0 km/h (2 Bft) 91,30 %
20.07.2019 01:21 19,4 C 16,1 C 19,4 C 19,4 C 18,3 C 69 % 49 cb 152 cb 182 cb 1016,0 hPa 0,0 l/m 6,4 km/h (2 Bft) N-NO 22 0 min 0,000 mm 0,0 UV-I 0 W/m 13,6 C 19,4 C 8,0 km/h (2 Bft) 91,30 %
20.07.2019 01:20 19,4 C 16,1 C 19,4 C 19,4 C 18,3 C 70 % 49 cb 152 cb 182 cb 1016,1 hPa 0,0 l/m 4,8 km/h (1 Bft) N-NO 22 0 min 0,000 mm 0,0 UV-I 0 W/m 13,8 C 19,4 C 8,0 km/h (2 Bft) 100,00 %
20.07.2019 01:19 19,4 C 16,1 C 19,4 C 19,4 C 18,3 C 70 % 49 cb 152 cb 182 cb 1016,0 hPa 0,0 l/m 3,2 km/h (1 Bft) N-NO 22 0 min 0,000 mm 0,0 UV-I 0 W/m 13,8 C 19,4 C 4,8 km/h (1 Bft) 95,65 %
20.07.2019 01:18 19,4 C 16,1 C 19,4 C 19,4 C 18,3 C 70 % 49 cb 152 cb 182 cb 1015,9 hPa 0,0 l/m 4,8 km/h (1 Bft) N-NO 22 0 min 0,000 mm 0,0 UV-I 0 W/m 13,8 C 19,4 C 4,8 km/h (1 Bft) 95,65 %
20.07.2019 01:17 19,4 C 16,1 C 19,4 C 19,4 C 18,3 C 70 % 49 cb 152 cb 182 cb 1015,9 hPa 0,0 l/m 4,8 km/h (1 Bft) N 360 0 min 0,000 mm 0,0 UV-I 0 W/m 13,8 C 19,4 C 6,4 km/h (2 Bft) 100,00 %
20.07.2019 01:16 19,4 C 16,1 C 19,4 C 19,4 C 18,3 C 69 % 49 cb 152 cb 182 cb 1016,0 hPa 0,0 l/m 6,4 km/h (2 Bft) N 360 0 min 0,000 mm 0,0 UV-I 0 W/m 13,6 C 19,4 C 8,0 km/h (2 Bft) 95,65 %
20.07.2019 01:15 19,4 C 16,1 C 19,4 C 19,4 C 18,3 C 69 % 49 cb 152 cb 182 cb 1015,9 hPa 0,0 l/m 4,8 km/h (1 Bft) N-NO 22 0 min 0,000 mm 0,0 UV-I 0 W/m 13,6 C 19,4 C 6,4 km/h (2 Bft) 91,30 %
20.07.2019 01:14 19,6 C 16,1 C 19,4 C 19,4 C 18,3 C 69 % 49 cb 152 cb 182 cb 1015,9 hPa 0,0 l/m 3,2 km/h (1 Bft) N-NO 22 0 min 0,000 mm 0,0 UV-I 0 W/m 13,8 C 19,6 C 4,8 km/h (1 Bft) 95,65 %
20.07.2019 01:13 19,5 C 16,1 C 19,4 C 19,4 C 18,3 C 69 % 49 cb 152 cb 182 cb 1016,0 hPa 0,0 l/m 4,8 km/h (1 Bft) NO 45 0 min 0,000 mm 0,0 UV-I 0 W/m 13,7 C 19,5 C 6,4 km/h (2 Bft) 95,65 %
20.07.2019 01:12 19,5 C 16,1 C 19,4 C 19,4 C 18,3 C 69 % 49 cb 152 cb 182 cb 1016,0 hPa 0,0 l/m 4,8 km/h (1 Bft) NO 45 0 min 0,000 mm 0,0 UV-I 0 W/m 13,7 C 19,5 C 4,8 km/h (1 Bft) 95,65 %
20.07.2019 01:11 19,6 C 16,1 C 19,4 C 19,4 C 18,3 C 70 % 49 cb 152 cb 182 cb 1016,0 hPa 0,0 l/m 3,2 km/h (1 Bft) N-NO 22 0 min 0,000 mm 0,0 UV-I 0 W/m 14,0 C 19,6 C 4,8 km/h (1 Bft) 100,00 %
20.07.2019 01:10 19,7 C 15,6 C 19,4 C 19,4 C 18,3 C 69 % 49 cb 152 cb 182 cb 1016,0 hPa 0,0 l/m 4,8 km/h (1 Bft) N-NO 22 0 min 0,000 mm 0,0 UV-I 0 W/m 13,8 C 19,7 C 4,8 km/h (1 Bft) 95,65 %
20.07.2019 01:09 19,7 C 15,6 C 19,4 C 19,4 C 18,3 C 69 % 49 cb 152 cb 182 cb 1016,1 hPa 0,0 l/m 4,8 km/h (1 Bft) N-NO 22 0 min 0,000 mm 0,0 UV-I 0 W/m 13,8 C 19,7 C 6,4 km/h (2 Bft) 95,65 %
20.07.2019 01:08 19,8 C 15,6 C 19,4 C 19,4 C 18,3 C 68 % 49 cb 152 cb 182 cb 1016,0 hPa 0,0 l/m 4,8 km/h (1 Bft) N-NO 22 0 min 0,000 mm 0,0 UV-I 0 W/m 13,7 C 19,8 C 6,4 km/h (2 Bft) 100,00 %
20.07.2019 01:07 19,8 C 15,6 C 19,4 C 19,4 C 18,3 C 68 % 49 cb 152 cb 182 cb 1016,1 hPa 0,0 l/m 3,2 km/h (1 Bft) N-NO 22 0 min 0,000 mm 0,0 UV-I 0 W/m 13,7 C 19,8 C 4,8 km/h (1 Bft) 95,65 %
20.07.2019 01:06 19,9 C 15,6 C 19,4 C 19,4 C 18,3 C 67 % 49 cb 152 cb 182 cb 1016,0 hPa 0,0 l/m 3,2 km/h (1 Bft) N-NO 22 0 min 0,000 mm 0,0 UV-I 0 W/m 13,6 C 19,9 C 4,8 km/h (1 Bft) 95,65 %
20.07.2019 01:05 19,9 C 15,6 C 19,4 C 19,4 C 18,3 C 67 % 49 cb 152 cb 182 cb 1016,0 hPa 0,0 l/m 3,2 km/h (1 Bft) O-NO 67 0 min 0,000 mm 0,0 UV-I 0 W/m 13,6 C 19,9 C 3,2 km/h (1 Bft) 100,00 %
20.07.2019 01:04 19,9 C 15,6 C 19,4 C 19,4 C 18,3 C 67 % 49 cb 152 cb 182 cb 1016,1 hPa 0,0 l/m 3,2 km/h (1 Bft) O-NO 67 0 min 0,000 mm 0,0 UV-I 0 W/m 13,6 C 19,9 C 4,8 km/h (1 Bft) 95,65 %
20.07.2019 01:03 19,8 C 16,1 C 19,4 C 19,4 C 18,3 C 67 % 49 cb 152 cb 182 cb 1016,1 hPa 0,0 l/m 3,2 km/h (1 Bft) NO 45 0 min 0,000 mm 0,0 UV-I 0 W/m 13,5 C 19,8 C 6,4 km/h (2 Bft) 91,30 %
20.07.2019 01:02 19,8 C 16,1 C 19,4 C 19,4 C 18,3 C 67 % 49 cb 152 cb 182 cb 1016,0 hPa 0,0 l/m 3,2 km/h (1 Bft) NO 45 0 min 0,000 mm 0,0 UV-I 0 W/m 13,5 C 19,8 C 4,8 km/h (1 Bft) 100,00 %
20.07.2019 01:01 19,8 C 16,1 C 19,4 C 19,4 C 18,3 C 68 % 49 cb 152 cb 182 cb 1016,1 hPa 0,0 l/m 3,2 km/h (1 Bft) NO 45 0 min 0,000 mm 0,0 UV-I 0 W/m 13,7 C 19,8 C 3,2 km/h (1 Bft) 95,65 %
20.07.2019 01:00 19,7 C 16,1 C 19,4 C 19,4 C 18,3 C 68 % 49 cb 152 cb 182 cb 1016,0 hPa 0,0 l/m 3,2 km/h (1 Bft) NO 45 0 min 0,051 mm 0,0 UV-I 0 W/m 13,6 C 19,7 C 4,8 km/h (1 Bft) 95,65 %
20.07.2019 00:59 19,8 C 16,1 C 19,4 C 19,4 C 18,3 C 68 % 49 cb 152 cb 182 cb 1016,0 hPa 0,0 l/m 3,2 km/h (1 Bft) NO 45 0 min 0,000 mm 0,0 UV-I 0 W/m 13,7 C 19,8 C 4,8 km/h (1 Bft) 95,65 %
20.07.2019 00:58 19,7 C 16,1 C 19,4 C 19,4 C 18,3 C 68 % 49 cb 152 cb 182 cb 1016,1 hPa 0,0 l/m 4,8 km/h (1 Bft) N-NO 22 0 min 0,000 mm 0,0 UV-I 0 W/m 13,6 C 19,7 C 4,8 km/h (1 Bft) 95,65 %
20.07.2019 00:57 19,8 C 16,1 C 19,4 C 19,4 C 18,3 C 68 % 49 cb 152 cb 182 cb 1016,0 hPa 0,0 l/m 3,2 km/h (1 Bft) N-NO 22 0 min 0,000 mm 0,0 UV-I 0 W/m 13,7 C 19,8 C 4,8 km/h (1 Bft) 95,65 %
20.07.2019 00:56 19,8 C 16,1 C 19,4 C 19,4 C 18,3 C 68 % 49 cb 152 cb 182 cb 1016,1 hPa 0,0 l/m 3,2 km/h (1 Bft) N-NO 22 0 min 0,000 mm 0,0 UV-I 0 W/m 13,7 C 19,8 C 4,8 km/h (1 Bft) 95,65 %
20.07.2019 00:55 19,8 C 16,1 C 19,4 C 19,4 C 18,3 C 68 % 49 cb 152 cb 182 cb 1016,0 hPa 0,0 l/m 3,2 km/h (1 Bft) N 360 0 min 0,000 mm 0,0 UV-I 0 W/m 13,7 C 19,8 C 4,8 km/h (1 Bft) 100,00 %
20.07.2019 00:54 19,8 C 16,1 C 19,4 C 19,4 C 18,3 C 67 % 49 cb 152 cb 182 cb 1016,1 hPa 0,0 l/m 4,8 km/h (1 Bft) N 360 0 min 0,000 mm 0,0 UV-I 0 W/m 13,5 C 19,8 C 4,8 km/h (1 Bft) 95,65 %
20.07.2019 00:53 19,9 C 16,1 C 19,4 C 19,4 C 18,3 C 67 % 49 cb 152 cb 182 cb 1016,1 hPa 0,0 l/m 4,8 km/h (1 Bft) N 360 0 min 0,000 mm 0,0 UV-I 0 W/m 13,6 C 19,9 C 4,8 km/h (1 Bft) 91,30 %
20.07.2019 00:52 20,0 C 16,1 C 19,4 C 19,4 C 18,3 C 67 % 49 cb 152 cb 182 cb 1016,1 hPa 0,0 l/m 4,8 km/h (1 Bft) N 360 0 min 0,000 mm 0,0 UV-I 0 W/m 13,7 C 20,0 C 6,4 km/h (2 Bft) 100,00 %
20.07.2019 00:51 20,1 C 16,7 C 19,4 C 19,4 C 18,3 C 67 % 49 cb 152 cb 182 cb 1016,0 hPa 0,0 l/m 4,8 km/h (1 Bft) N 360 0 min 0,000 mm 0,0 UV-I 0 W/m 13,8 C 20,1 C 8,0 km/h (2 Bft) 86,96 %
20.07.2019 00:50 20,1 C 16,7 C 19,4 C 19,4 C 18,3 C 66 % 49 cb 152 cb 182 cb 1016,1 hPa 0,0 l/m 4,8 km/h (1 Bft) N 360 0 min 0,000 mm 0,0 UV-I 0 W/m 13,5 C 20,1 C 6,4 km/h (2 Bft) 95,65 %
20.07.2019 00:49 20,2 C 16,7 C 19,4 C 19,4 C 18,3 C 66 % 49 cb 152 cb 182 cb 1015,9 hPa 0,0 l/m 6,4 km/h (2 Bft) N 360 0 min 0,000 mm 0,0 UV-I 0 W/m 13,6 C 20,2 C 8,0 km/h (2 Bft) 100,00 %
20.07.2019 00:48 20,3 C 16,7 C 19,4 C 19,4 C 18,3 C 66 % 49 cb 152 cb 182 cb 1016,1 hPa 0,0 l/m 4,8 km/h (1 Bft) N 360 0 min 0,000 mm 0,0 UV-I 0 W/m 13,7 C 20,3 C 6,4 km/h (2 Bft) 95,65 %
20.07.2019 00:47 20,3 C 16,7 C 19,4 C 19,4 C 18,3 C 65 % 49 cb 152 cb 182 cb 1016,0 hPa 0,0 l/m 6,4 km/h (2 Bft) N 360 0 min 0,000 mm 0,0 UV-I 0 W/m 13,5 C 20,3 C 6,4 km/h (2 Bft) 95,65 %
20.07.2019 00:46 20,4 C 16,7 C 19,4 C 19,4 C 18,3 C 65 % 49 cb 152 cb 182 cb 1015,9 hPa 0,0 l/m 4,8 km/h (1 Bft) N-NO 22 0 min 0,000 mm 0,0 UV-I 0 W/m 13,6 C 20,4 C 6,4 km/h (2 Bft) 100,00 %
20.07.2019 00:45 20,6 C 16,7 C 19,4 C 19,4 C 18,3 C 64 % 49 cb 153 cb 182 cb 1016,1 hPa 0,0 l/m 6,4 km/h (2 Bft) N-NO 22 0 min 0,000 mm 0,0 UV-I 0 W/m 13,5 C 20,6 C 6,4 km/h (2 Bft) 95,65 %
20.07.2019 00:44 20,7 C 16,7 C 19,4 C 19,4 C 18,3 C 64 % 49 cb 153 cb 182 cb 1015,9 hPa 0,0 l/m 4,8 km/h (1 Bft) N-NO 22 0 min 0,000 mm 0,0 UV-I 0 W/m 13,6 C 20,7 C 6,4 km/h (2 Bft) 91,30 %
20.07.2019 00:43 20,8 C 16,7 C 19,4 C 19,4 C 18,3 C 63 % 49 cb 153 cb 182 cb 1016,0 hPa 0,0 l/m 4,8 km/h (1 Bft) N-NO 22 0 min 0,000 mm 0,0 UV-I 0 W/m 13,5 C 20,8 C 4,8 km/h (1 Bft) 100,00 %
20.07.2019 00:42 20,8 C 16,7 C 19,4 C 19,4 C 18,3 C 63 % 49 cb 153 cb 182 cb 1015,9 hPa 0,0 l/m 3,2 km/h (1 Bft) NO 45 0 min 0,000 mm 0,0 UV-I 0 W/m 13,5 C 20,8 C 4,8 km/h (1 Bft) 95,65 %
20.07.2019 00:41 20,9 C 16,7 C 19,4 C 19,4 C 18,3 C 62 % 48 cb 153 cb 182 cb 1015,9 hPa 0,0 l/m 4,8 km/h (1 Bft) NO 45 0 min 0,000 mm 0,0 UV-I 0 W/m 13,3 C 20,9 C 6,4 km/h (2 Bft) 95,65 %
20.07.2019 00:40 20,9 C 16,7 C 19,4 C 19,4 C 18,3 C 63 % 48 cb 153 cb 182 cb 1016,0 hPa 0,0 l/m 3,2 km/h (1 Bft) NO 45 0 min 0,000 mm 0,0 UV-I 0 W/m 13,6 C 20,9 C 6,4 km/h (2 Bft) 100,00 %
20.07.2019 00:39 21,0 C 16,7 C 19,4 C 19,4 C 18,3 C 62 % 48 cb 153 cb 182 cb 1015,9 hPa 0,0 l/m 4,8 km/h (1 Bft) NO 45 0 min 0,000 mm 0,0 UV-I 0 W/m 13,4 C 21,0 C 4,8 km/h (1 Bft) 95,65 %
20.07.2019 00:38 21,0 C 16,7 C 19,4 C 19,4 C 18,3 C 62 % 48 cb 153 cb 182 cb 1016,0 hPa 0,0 l/m 3,2 km/h (1 Bft) NO 45 0 min 0,000 mm 0,0 UV-I 0 W/m 13,4 C 21,0 C 4,8 km/h (1 Bft) 91,30 %
20.07.2019 00:37 21,0 C 16,7 C 19,4 C 19,4 C 18,3 C 62 % 48 cb 153 cb 182 cb 1015,9 hPa 0,0 l/m 3,2 km/h (1 Bft) O-NO 67 0 min 0,000 mm 0,0 UV-I 0 W/m 13,4 C 21,0 C 3,2 km/h (1 Bft) 95,65 %
20.07.2019 00:36 21,0 C 16,1 C 19,4 C 19,4 C 18,3 C 62 % 48 cb 153 cb 182 cb 1015,9 hPa 0,0 l/m 3,2 km/h (1 Bft) O-NO 67 0 min 0,000 mm 0,0 UV-I 0 W/m 13,4 C 21,0 C 4,8 km/h (1 Bft) 95,65 %
20.07.2019 00:35 21,0 C 16,1 C 19,4 C 19,4 C 18,3 C 62 % 48 cb 153 cb 182 cb 1016,0 hPa 0,0 l/m 4,8 km/h (1 Bft) O-NO 67 0 min 0,000 mm 0,0 UV-I 0 W/m 13,4 C 21,0 C 6,4 km/h (2 Bft) 91,30 %
20.07.2019 00:34 21,0 C 16,1 C 20,0 C 19,4 C 18,3 C 62 % 49 cb 153 cb 182 cb 1015,9 hPa 0,0 l/m 3,2 km/h (1 Bft) O-NO 67 0 min 0,000 mm 0,0 UV-I 0 W/m 13,4 C 21,0 C 4,8 km/h (1 Bft) 100,00 %
20.07.2019 00:33 21,1 C 16,1 C 20,0 C 19,4 C 18,3 C 62 % 49 cb 153 cb 182 cb 1016,0 hPa 0,0 l/m 4,8 km/h (1 Bft) O-NO 67 0 min 0,000 mm 0,0 UV-I 0 W/m 13,5 C 21,1 C 6,4 km/h (2 Bft) 95,65 %
20.07.2019 00:32 21,1 C 16,1 C 20,0 C 19,4 C 18,3 C 62 % 49 cb 153 cb 182 cb 1016,0 hPa 0,0 l/m 3,2 km/h (1 Bft) O-NO 67 0 min 0,000 mm 0,0 UV-I 0 W/m 13,5 C 21,1 C 4,8 km/h (1 Bft) 91,30 %
20.07.2019 00:31 21,1 C 16,1 C 20,0 C 19,4 C 18,3 C 62 % 49 cb 153 cb 182 cb 1016,0 hPa 0,0 l/m 3,2 km/h (1 Bft) O-NO 67 0 min 0,000 mm 0,0 UV-I 0 W/m 13,5 C 21,1 C 4,8 km/h (1 Bft) 100,00 %
20.07.2019 00:30 21,1 C 16,1 C 20,0 C 19,4 C 18,3 C 62 % 49 cb 153 cb 182 cb 1016,0 hPa 0,0 l/m 3,2 km/h (1 Bft) O-NO 67 0 min 0,000 mm 0,0 UV-I 0 W/m 13,5 C 21,1 C 4,8 km/h (1 Bft) 95,65 %
20.07.2019 00:29 21,1 C 16,1 C 20,0 C 19,4 C 18,3 C 62 % 49 cb 153 cb 182 cb 1016,1 hPa 0,0 l/m 3,2 km/h (1 Bft) O-NO 67 0 min 0,000 mm 0,0 UV-I 0 W/m 13,5 C 21,1 C 4,8 km/h (1 Bft) 91,30 %
20.07.2019 00:28 21,1 C 16,7 C 20,0 C 19,4 C 18,3 C 62 % 49 cb 152 cb 182 cb 1016,0 hPa 0,0 l/m 3,2 km/h (1 Bft) O-NO 67 0 min 0,000 mm 0,0 UV-I 0 W/m 13,5 C 21,1 C 4,8 km/h (1 Bft) 100,00 %
20.07.2019 00:27 21,1 C 16,7 C 20,0 C 19,4 C 18,3 C 62 % 49 cb 152 cb 182 cb 1016,0 hPa 0,0 l/m 3,2 km/h (1 Bft) O-NO 67 0 min 0,000 mm 0,0 UV-I 0 W/m 13,5 C 21,1 C 4,8 km/h (1 Bft) 95,65 %
20.07.2019 00:26 21,1 C 16,7 C 20,0 C 19,4 C 18,3 C 62 % 49 cb 153 cb 182 cb 1016,1 hPa 0,0 l/m 3,2 km/h (1 Bft) O-NO 67 0 min 0,000 mm 0,0 UV-I 0 W/m 13,5 C 21,1 C 3,2 km/h (1 Bft) 95,65 %
20.07.2019 00:25 21,1 C 16,7 C 20,0 C 19,4 C 18,3 C 62 % 49 cb 152 cb 182 cb 1016,0 hPa 0,0 l/m 1,6 km/h (1 Bft) O-NO 67 0 min 0,000 mm 0,0 UV-I 0 W/m 13,5 C 21,1 C 3,2 km/h (1 Bft) 100,00 %
20.07.2019 00:24 21,1 C 16,7 C 20,0 C 19,4 C 18,3 C 62 % 49 cb 152 cb 182 cb 1016,0 hPa 0,0 l/m 3,2 km/h (1 Bft) O 90 0 min 0,000 mm 0,0 UV-I 0 W/m 13,5 C 21,1 C 3,2 km/h (1 Bft) 95,65 %
20.07.2019 00:23 21,1 C 16,7 C 20,0 C 19,4 C 18,3 C 61 % 49 cb 152 cb 182 cb 1016,1 hPa 0,0 l/m 3,2 km/h (1 Bft) O 90 0 min 0,000 mm 0,0 UV-I 0 W/m 13,3 C 21,1 C 4,8 km/h (1 Bft) 95,65 %
20.07.2019 00:22 21,1 C 16,1 C 20,0 C 19,4 C 18,3 C 61 % 49 cb 152 cb 182 cb 1016,0 hPa 0,0 l/m 4,8 km/h (1 Bft) O 90 0 min 0,000 mm 0,0 UV-I 0 W/m 13,3 C 21,1 C 6,4 km/h (2 Bft) 95,65 %
20.07.2019 00:21 21,1 C 16,1 C 20,0 C 19,4 C 18,3 C 62 % 49 cb 152 cb 182 cb 1016,1 hPa 0,0 l/m 4,8 km/h (1 Bft) O 90 0 min 0,000 mm 0,0 UV-I 0 W/m 13,5 C 21,1 C 6,4 km/h (2 Bft) 95,65 %
20.07.2019 00:20 21,1 C 16,1 C 20,0 C 19,4 C 18,3 C 62 % 49 cb 152 cb 182 cb 1016,1 hPa 0,0 l/m 3,2 km/h (1 Bft) O 90 0 min 0,000 mm 0,0 UV-I 0 W/m 13,5 C 21,1 C 4,8 km/h (1 Bft) 95,65 %
20.07.2019 00:19 21,1 C 16,1 C 20,0 C 19,4 C 18,3 C 62 % 49 cb 152 cb 182 cb 1016,1 hPa 0,0 l/m 3,2 km/h (1 Bft) O 90 0 min 0,000 mm 0,0 UV-I 0 W/m 13,5 C 21,1 C 4,8 km/h (1 Bft) 100,00 %
20.07.2019 00:18 21,0 C 16,1 C 20,0 C 19,4 C 18,3 C 62 % 49 cb 152 cb 182 cb 1016,0 hPa 0,0 l/m 3,2 km/h (1 Bft) O 90 0 min 0,000 mm 0,0 UV-I 0 W/m 13,4 C 21,0 C 4,8 km/h (1 Bft) 95,65 %
20.07.2019 00:17 21,0 C 16,1 C 20,0 C 19,4 C 18,3 C 62 % 49 cb 152 cb 182 cb 1016,1 hPa 0,0 l/m 3,2 km/h (1 Bft) O 90 0 min 0,000 mm 0,0 UV-I 0 W/m 13,4 C 21,0 C 4,8 km/h (1 Bft) 95,65 %
20.07.2019 00:16 20,9 C 16,1 C 20,0 C 19,4 C 18,3 C 62 % 49 cb 152 cb 182 cb 1016,1 hPa 0,0 l/m 3,2 km/h (1 Bft) O 90 0 min 0,000 mm 0,0 UV-I 0 W/m 13,3 C 20,9 C 4,8 km/h (1 Bft) 95,65 %
20.07.2019 00:15 20,9 C 16,1 C 20,0 C 19,4 C 18,3 C 62 % 49 cb 152 cb 182 cb 1016,1 hPa 0,0 l/m 3,2 km/h (1 Bft) O 90 0 min 0,000 mm 0,0 UV-I 0 W/m 13,3 C 20,9 C 4,8 km/h (1 Bft) 95,65 %
20.07.2019 00:14 20,8 C 16,1 C 20,0 C 19,4 C 18,3 C 63 % 49 cb 152 cb 182 cb 1016,1 hPa 0,0 l/m 3,2 km/h (1 Bft) O-NO 67 0 min 0,000 mm 0,0 UV-I 0 W/m 13,5 C 20,8 C 4,8 km/h (1 Bft) 95,65 %
20.07.2019 00:13 20,8 C 16,1 C 20,0 C 19,4 C 18,3 C 64 % 49 cb 152 cb 182 cb 1016,1 hPa 0,0 l/m 3,2 km/h (1 Bft) O-NO 67 0 min 0,000 mm 0,0 UV-I 0 W/m 13,7 C 20,8 C 4,8 km/h (1 Bft) 100,00 %
20.07.2019 00:12 20,8 C 16,1 C 20,0 C 19,4 C 18,3 C 64 % 49 cb 152 cb 182 cb 1016,1 hPa 0,0 l/m 3,2 km/h (1 Bft) NO 45 0 min 0,000 mm 0,0 UV-I 0 W/m 13,7 C 20,8 C 4,8 km/h (1 Bft) 95,65 %
20.07.2019 00:11 20,8 C 16,1 C 20,0 C 19,4 C 18,3 C 64 % 49 cb 152 cb 182 cb 1016,1 hPa 0,0 l/m 1,6 km/h (1 Bft) NO 45 0 min 0,000 mm 0,0 UV-I 0 W/m 13,7 C 20,8 C 3,2 km/h (1 Bft) 95,65 %
20.07.2019 00:10 20,8 C 16,1 C 20,0 C 19,4 C 18,3 C 64 % 49 cb 152 cb 182 cb 1016,1 hPa 0,0 l/m 1,6 km/h (1 Bft) NO 45 0 min 0,000 mm 0,0 UV-I 0 W/m 13,7 C 20,8 C 3,2 km/h (1 Bft) 95,65 %
20.07.2019 00:09 20,8 C 16,1 C 20,0 C 19,4 C 18,3 C 64 % 49 cb 152 cb 182 cb 1016,1 hPa 0,0 l/m 1,6 km/h (1 Bft) NO 45 0 min 0,000 mm 0,0 UV-I 0 W/m 13,7 C 20,8 C 3,2 km/h (1 Bft) 100,00 %
20.07.2019 00:08 20,8 C 16,1 C 20,0 C 19,4 C 18,3 C 64 % 49 cb 152 cb 182 cb 1016,1 hPa 0,0 l/m 3,2 km/h (1 Bft) NO 45 0 min 0,000 mm 0,0 UV-I 0 W/m 13,7 C 20,8 C 3,2 km/h (1 Bft) 95,65 %
20.07.2019 00:07 20,8 C 16,1 C 20,0 C 19,4 C 18,3 C 64 % 49 cb 152 cb 182 cb 1016,1 hPa 0,0 l/m 1,6 km/h (1 Bft) NO 45 0 min 0,000 mm 0,0 UV-I 0 W/m 13,7 C 20,8 C 3,2 km/h (1 Bft) 91,30 %
20.07.2019 00:06 20,8 C 16,1 C 20,0 C 19,4 C 18,3 C 64 % 49 cb 152 cb 182 cb 1016,2 hPa 0,0 l/m 1,6 km/h (1 Bft) NO 45 0 min 0,000 mm 0,0 UV-I 0 W/m 13,7 C 20,8 C 3,2 km/h (1 Bft) 100,00 %
20.07.2019 00:05 20,8 C 16,1 C 20,0 C 19,4 C 18,3 C 64 % 49 cb 152 cb 182 cb 1016,1 hPa 0,0 l/m 3,2 km/h (1 Bft) NO 45 0 min 0,000 mm 0,0 UV-I 0 W/m 13,7 C 20,8 C 4,8 km/h (1 Bft) 91,30 %
20.07.2019 00:04 20,8 C 16,1 C 20,0 C 19,4 C 18,3 C 64 % 49 cb 152 cb 182 cb 1016,1 hPa 0,0 l/m 3,2 km/h (1 Bft) NO 45 0 min 0,000 mm 0,0 UV-I 0 W/m 13,7 C 20,8 C 3,2 km/h (1 Bft) 95,65 %
20.07.2019 00:03 20,7 C 16,1 C 20,0 C 19,4 C 18,3 C 64 % 49 cb 152 cb 182 cb 1016,1 hPa 0,0 l/m 4,8 km/h (1 Bft) N-NO 22 0 min 0,000 mm 0,0 UV-I 0 W/m 13,6 C 20,7 C 4,8 km/h (1 Bft) 100,00 %
20.07.2019 00:02 20,7 C 16,1 C 20,0 C 19,4 C 18,3 C 64 % 49 cb 152 cb 182 cb 1016,1 hPa 0,0 l/m 4,8 km/h (1 Bft) N-NO 22 0 min 0,000 mm 0,0 UV-I 0 W/m 13,6 C 20,7 C 4,8 km/h (1 Bft) 91,30 %
20.07.2019 00:01 20,7 C 16,1 C 20,0 C 19,4 C 18,3 C 64 % 48 cb 152 cb 182 cb 1016,1 hPa 0,0 l/m 3,2 km/h (1 Bft) N-NO 22 0 min 0,000 mm 0,0 UV-I 0 W/m 13,6 C 20,7 C 4,8 km/h (1 Bft) 86,96 %
20.07.2019 00:00 20,7 C 16,1 C 20,0 C 19,4 C 18,3 C 64 % 49 cb 152 cb 182 cb 1016,1 hPa 0,0 l/m 3,2 km/h (1 Bft) N-NO 22 0 min 0,051 mm 0,0 UV-I 0 W/m 13,6 C 20,7 C 4,8 km/h (1 Bft) 95,65 %
_ Min-Zeit 06:06 01:04 03:50 04:47 00:00 00:22 00:01 00:00 05:27 04:45 - 03:10 - - - - - - 04:24 02:58 03:10 06:23
Minimum _ 16,4 C 15,6 C 18,9 C 18,9 C 18,3 C 61 % 48 cb 152 cb 180 cb 1015,2 hPa - 0,0 km/h (0 Bft) - - - - - - 12,9 C 16,1 C 1,6 km/h (1 Bft) 82,61 %
_ Max-Zeit 10:11 10:15 00:00 00:00 05:42 06:43 07:46 09:57 00:00 09:34 00:00 02:58 - - 07:10 09:00 10:14 10:15 09:58 10:12 02:58 00:03
Maximum _ 22,6 C 29,4 C 20,0 C 19,4 C 18,9 C 85 % 52 cb 155 cb 182 cb 1016,5 hPa 0,0 l/m 16,1 km/h
O-SO (3 Bft)
- - 1 min 0,279 mm 3,9 UV-I 689 W/m 16,0 C 22,6 C 20,9 km/h
SO (4 Bft)
100,00 %
Durchschnitt _ 19,2 C 18,1 C 19,1 C 19,1 C 18,6 C 71 % 50 cb 153 cb 182 cb 1015,9 hPa #0,0 l/m 6,1 km/h (2 Bft) O-SO - #2:56 h #1,067 mm 1,9 UV-I 262 W/m 13,8 C 18,7 C 8,6 km/h (2 Bft) 94,98 %